Kopte, Robert; Tanhua, Toste; Schroeder, Katrin (2026): Shipboard ADCP current measurements (38 kHz) during RV METEOR cruise M216 [dataset]. PANGAEA, https://doi.pangaea.de/10.1594/PANGAEA.993785 (DOI registration in progress)
Always quote citation above when using data! You can download the citation in several formats below.
Published: 2026-04-23
Abstract:
Current velocities of the upper water column along the cruise track of R/V Meteor cruise M216 were collected by a vessel-mounted 38 kHz RDI Ocean Surveyor ADCP. The ADCP transducer was located at 5.0 m below the water line. The instrument was operated in narrowband mode (WM10) with a bin size of 32.00 m, a blanking distance of 16.00 m, and a total of 55 bins, covering the depth range between 53.0 m and 1781.0 m. Attitude data from the ship's motion reference unit were used by the data acquisition software VmDAS internally to convert ADCP beam velocities to geographic coordinates. The Python toolbox OSADCP (version 2.2.0) was used for data post-processing. Acoustic Interferences were identified based on outliers in the ADCP echo intensity data. Echo intensity data were cleaned accordingly and affected velocity cells were flagged to be removed prior ensemble-averaging. The ship's velocity was calculated from position fixes obtained by the Global Navigation Satellite System (GNSS), taking into account lever arms of ADCP transducer and GNSS antenna. Accuracy of the derived water velocities mainly depends on the quality of the position fixes and the ship's heading data. Further errors stem from a misalignment of the transducer with the ship's centerline. Data processing included water track calibration of the misalignment angle (-0.6595° +/- 0.5466°) and scale factor (1.0026 +/- 0.0105) of the measured velocities. The velocity data were averaged in time using an average interval of 60 s. Depth cells with ensemble-averaged percent-good values below 25% are marked as 'bad data'.
Related to:
Kopte, Robert; Tanhua, Toste; Schroeder, Katrin (2026): Shipboard ADCP current measurements (75 kHz) during RV METEOR cruise M216 [dataset]. PANGAEA, https://doi.pangaea.de/10.1594/PANGAEA.993800
Other version:
nc file: ADCP current measurements (38 kHz) during RV METEOR cruise M216 (2026). met_216_vmadcp_38khz.nc
Data processing report:
Kopte, Robert (2026): Upper-ocean acoustic Doppler current profiler (38kHz-ADCP) underway measurements during METEOR cruise M216. Institute of Geosciences, Kiel University, met_216_vmadcp_38khz_proc_report.pdf
Standard operating procedure:
Kopte, Robert; Betz, Maximilian; Anselm, Norbert (2022): SOP 38kHz ADCP aboard of RV Meteor ( vessel:meteor:adcp_38khz_1214k). Zenodo, https://doi.org/10.5281/zenodo.7022812
Project(s):
DAM Underway Research Data (DAM_Underway)
Coverage:
Median Latitude: 37.131732 * Median Longitude: 19.739848 * South-bound Latitude: 34.239800 * West-bound Longitude: 11.753700 * North-bound Latitude: 41.550000 * East-bound Longitude: 26.220600
Date/Time Start: 2026-01-16T04:16:00 * Date/Time End: 2026-01-30T22:34:00
Minimum DEPTH, water: 53.0 m * Maximum DEPTH, water: 1781.0 m
Event(s):
M216_0_Underway-3 * Latitude Start: 35.650100 * Longitude Start: 26.220000 * Latitude End: 39.218400 * Longitude End: 11.753700 * Date/Time Start: 2026-01-16T04:16:00 * Date/Time End: 2026-01-30T22:34:00 * Elevation: -2296.0 m * O2A Registry URI: https://registry.o2a-data.de/items/7479 * Campaign: M216 (MedSHIP01-2025) * Basis: Meteor (1986) * Method/Device: Vessel mounted Acoustic Doppler Current Profiler [38 kHz] (VMADCP-38)
Parameter(s):
License:
Creative Commons Attribution 4.0 International (CC-BY-4.0)
Status:
Curation Level: Enhanced curation (CurationLevelC) * Processing Level: PANGAEA data processing level 2 (ProcLevel2)
Size:
2709798 data points
Data
| 1 Date/Time | 2 Latitude | 3 Longitude | 4 Depth water [m] | 5 Cur vel U [cm/s] | 6 Cur vel V [cm/s] | 7 QF cur vel | 8 Echo int [cts] | 9 Echo int clean [cts] | 10 Backsc rel [dB] | 11 Pings per ens [#] | 12 good ping [%] |
|---|---|---|---|---|---|---|---|---|---|---|---|
| 2026-01-16T04:16:00 | 35.6501 | 26.2200 | 53.0 | -5.54 | -6.74 | 4 | 169.7 | 165.0 | -80.2 | 6 | 21.4 |
| 2026-01-16T04:16:00 | 35.6501 | 26.2200 | 85.0 | 2.00 | 6.07 | 4 | 162.9 | 157.9 | -77.5 | 4 | 14.3 |
| 2026-01-16T04:16:00 | 35.6501 | 26.2200 | 117.0 | 5.55 | -1.82 | 1 | 152.4 | 149.9 | -77.1 | 13 | 46.4 |
| 2026-01-16T04:16:00 | 35.6501 | 26.2200 | 149.0 | -8.69 | -10.47 | 1 | 139.6 | 135.3 | -80.5 | 11 | 39.3 |
| 2026-01-16T04:16:00 | 35.6501 | 26.2200 | 181.0 | 13.85 | -0.83 | 1 | 134.6 | 131.2 | -79.7 | 8 | 28.6 |
| 2026-01-16T04:16:00 | 35.6501 | 26.2200 | 213.0 | 2.69 | -4.62 | 1 | 130.7 | 127.5 | -79.1 | 13 | 46.4 |
| 2026-01-16T04:16:00 | 35.6501 | 26.2200 | 245.0 | 4.76 | -0.81 | 1 | 121.7 | 118.2 | -81.2 | 12 | 42.9 |
| 2026-01-16T04:16:00 | 35.6501 | 26.2200 | 277.0 | 0.79 | -2.67 | 1 | 115.2 | 112.1 | -82.0 | 12 | 42.9 |
| 2026-01-16T04:16:00 | 35.6501 | 26.2200 | 309.0 | -6.05 | 2.61 | 1 | 108.1 | 104.6 | -83.6 | 12 | 42.9 |
| 2026-01-16T04:16:00 | 35.6501 | 26.2200 | 341.0 | 0.49 | 6.06 | 1 | 105.1 | 101.9 | -83.2 | 15 | 53.6 |
| 2026-01-16T04:16:00 | 35.6501 | 26.2200 | 373.0 | -3.64 | 4.80 | 1 | 108.5 | 104.1 | -80.7 | 11 | 39.3 |
| 2026-01-16T04:16:00 | 35.6501 | 26.2200 | 405.0 | 5.18 | 2.44 | 1 | 110.4 | 107.5 | -77.7 | 16 | 57.1 |
| 2026-01-16T04:16:00 | 35.6501 | 26.2200 | 437.0 | 4.16 | -0.41 | 1 | 110.7 | 108.5 | -75.9 | 18 | 67.9 |
| 2026-01-16T04:16:00 | 35.6501 | 26.2200 | 469.0 | 8.68 | -0.26 | 1 | 110.1 | 107.6 | -75.0 | 15 | 57.1 |
| 2026-01-16T04:16:00 | 35.6501 | 26.2200 | 501.0 | 0.84 | -2.43 | 1 | 109.4 | 105.5 | -74.6 | 11 | 42.9 |
| 2026-01-16T04:16:00 | 35.6501 | 26.2200 | 533.0 | 2.37 | -3.91 | 1 | 104.0 | 101.8 | -75.0 | 18 | 67.9 |
| 2026-01-16T04:16:00 | 35.6501 | 26.2200 | 565.0 | 3.81 | -0.06 | 1 | 101.1 | 97.8 | -75.5 | 13 | 50.0 |
| 2026-01-16T04:16:00 | 35.6501 | 26.2200 | 597.0 | -9.25 | -5.26 | 1 | 93.6 | 91.7 | -76.9 | 21 | 78.6 |
| 2026-01-16T04:16:00 | 35.6501 | 26.2200 | 629.0 | -3.37 | 0.80 | 1 | 90.6 | 87.1 | -77.8 | 13 | 46.4 |
| 2026-01-16T04:16:00 | 35.6501 | 26.2200 | 661.0 | 4.46 | -11.46 | 1 | 84.2 | 81.1 | -79.3 | 15 | 57.1 |
| 2026-01-16T04:16:00 | 35.6501 | 26.2200 | 693.0 | -1.08 | -1.32 | 1 | 80.9 | 76.9 | -80.0 | 13 | 46.4 |
| 2026-01-16T04:16:00 | 35.6501 | 26.2200 | 725.0 | 3.49 | -1.26 | 1 | 77.1 | 75.7 | -79.5 | 19 | 71.4 |
| 2026-01-16T04:16:00 | 35.6501 | 26.2200 | 757.0 | 2.84 | 0.63 | 1 | 68.2 | 67.3 | -82.1 | 22 | 78.6 |
| 2026-01-16T04:16:00 | 35.6501 | 26.2200 | 789.0 | 2.50 | -3.44 | 1 | 65.8 | 63.8 | -82.6 | 19 | 67.9 |
| 2026-01-16T04:16:00 | 35.6501 | 26.2200 | 821.0 | -0.67 | -6.38 | 1 | 63.7 | 62.4 | -82.1 | 21 | 78.6 |
| 2026-01-16T04:16:00 | 35.6501 | 26.2200 | 853.0 | 1.10 | 6.59 | 1 | 61.7 | 59.2 | -82.5 | 15 | 57.1 |
| 2026-01-16T04:16:00 | 35.6501 | 26.2200 | 885.0 | -4.45 | -3.67 | 1 | 59.7 | 57.5 | -82.3 | 11 | 42.9 |
| 2026-01-16T04:16:00 | 35.6501 | 26.2200 | 917.0 | -2.50 | -10.58 | 1 | 52.4 | 51.5 | -83.9 | 18 | 67.9 |
| 2026-01-16T04:16:00 | 35.6501 | 26.2200 | 949.0 | -1.54 | 3.80 | 1 | 46.3 | 43.6 | -86.5 | 16 | 60.7 |
| 2026-01-16T04:16:00 | 35.6501 | 26.2200 | 981.0 | -5.82 | -2.37 | 1 | 42.0 | 39.3 | -87.4 | 15 | 53.6 |
| 2026-01-16T04:16:00 | 35.6501 | 26.2200 | 1013.0 | 4.30 | -0.09 | 1 | 36.2 | 33.3 | -89.2 | 17 | 64.3 |
| 2026-01-16T04:16:00 | 35.6501 | 26.2200 | 1045.0 | -0.45 | -0.47 | 1 | 26.6 | 25.8 | -91.7 | 24 | 89.3 |
| 2026-01-16T04:16:00 | 35.6501 | 26.2200 | 1077.0 | -1.67 | -1.35 | 1 | 19.0 | 18.5 | -94.4 | 26 | 96.4 |
| 2026-01-16T04:16:00 | 35.6501 | 26.2200 | 1109.0 | -2.11 | -0.64 | 1 | 13.1 | 12.6 | -96.7 | 26 | 96.4 |
| 2026-01-16T04:16:00 | 35.6501 | 26.2200 | 1141.0 | -6.18 | -4.59 | 1 | 8.8 | 8.1 | -98.9 | 24 | 89.3 |
| 2026-01-16T04:16:00 | 35.6501 | 26.2200 | 1173.0 | -1.40 | 4.68 | 1 | 8.0 | 7.1 | -98.8 | 18 | 67.9 |
| 2026-01-16T04:16:00 | 35.6501 | 26.2200 | 1205.0 | -2.77 | 0.39 | 1 | 8.0 | 7.2 | -97.9 | 10 | 39.3 |
| 2026-01-16T04:16:00 | 35.6501 | 26.2200 | 1237.0 | 12.82 | -9.35 | 4 | 7.5 | 6.5 | -97.6 | 1 | 3.6 |
| 2026-01-16T04:17:00 | 35.6501 | 26.2200 | 53.0 | -2.66 | 4.86 | 1 | 166.9 | 165.9 | -79.9 | 13 | 68.4 |
| 2026-01-16T04:17:00 | 35.6501 | 26.2200 | 85.0 | 6.05 | 4.80 | 1 | 160.6 | 159.6 | -76.8 | 14 | 73.7 |
| 2026-01-16T04:17:00 | 35.6501 | 26.2200 | 117.0 | 7.36 | -11.25 | 1 | 153.8 | 151.4 | -76.5 | 9 | 47.4 |
| 2026-01-16T04:17:00 | 35.6501 | 26.2200 | 149.0 | 6.68 | -18.41 | 1 | 139.1 | 137.4 | -79.6 | 15 | 78.9 |
| 2026-01-16T04:17:00 | 35.6501 | 26.2200 | 181.0 | 8.56 | -13.13 | 1 | 132.1 | 129.3 | -80.6 | 13 | 68.4 |
| 2026-01-16T04:17:00 | 35.6501 | 26.2200 | 213.0 | -5.70 | -15.72 | 1 | 128.1 | 126.5 | -79.5 | 14 | 73.7 |
| 2026-01-16T04:17:00 | 35.6501 | 26.2200 | 245.0 | -0.87 | -1.86 | 1 | 125.2 | 122.2 | -79.4 | 8 | 42.1 |
| 2026-01-16T04:17:00 | 35.6501 | 26.2200 | 277.0 | 16.06 | -10.31 | 1 | 114.4 | 111.2 | -82.4 | 10 | 52.6 |
| 2026-01-16T04:17:00 | 35.6501 | 26.2200 | 309.0 | 4.25 | -11.98 | 1 | 108.4 | 103.7 | -84.0 | 8 | 42.1 |
| 2026-01-16T04:17:00 | 35.6501 | 26.2200 | 341.0 | 5.28 | -3.63 | 1 | 104.3 | 102.9 | -82.7 | 14 | 73.7 |
| 2026-01-16T04:17:00 | 35.6501 | 26.2200 | 373.0 | 7.87 | -9.25 | 1 | 107.3 | 104.2 | -80.6 | 11 | 57.9 |
| 2026-01-16T04:17:00 | 35.6501 | 26.2200 | 405.0 | -8.33 | -1.59 | 1 | 111.0 | 109.0 | -77.1 | 12 | 63.2 |
| 2026-01-16T04:17:00 | 35.6501 | 26.2200 | 437.0 | -0.09 | -3.67 | 1 | 112.2 | 110.7 | -74.9 | 12 | 63.2 |
| 2026-01-16T04:17:00 | 35.6501 | 26.2200 | 469.0 | -0.78 | -1.59 | 1 | 110.2 | 108.9 | -74.4 | 14 | 73.7 |
| 2026-01-16T04:17:00 | 35.6501 | 26.2200 | 501.0 | -9.82 | 1.93 | 1 | 107.4 | 105.8 | -74.5 | 13 | 68.4 |
| 2026-01-16T04:17:00 | 35.6501 | 26.2200 | 533.0 | 3.38 | 3.50 | 1 | 104.9 | 101.2 | -75.2 | 10 | 52.6 |
| 2026-01-16T04:17:00 | 35.6501 | 26.2200 | 565.0 | 3.39 | -1.37 | 1 | 99.8 | 97.0 | -75.8 | 11 | 57.9 |
| 2026-01-16T04:17:00 | 35.6501 | 26.2200 | 597.0 | 9.23 | 2.36 | 1 | 94.1 | 92.1 | -76.8 | 12 | 63.2 |
| 2026-01-16T04:17:00 | 35.6501 | 26.2200 | 629.0 | -8.00 | -4.61 | 1 | 90.1 | 85.9 | -78.3 | 7 | 36.8 |
| 2026-01-16T04:17:00 | 35.6501 | 26.2200 | 661.0 | 2.22 | -1.54 | 1 | 82.2 | 79.4 | -80.0 | 13 | 68.4 |
| 2026-01-16T04:17:00 | 35.6501 | 26.2200 | 693.0 | -0.56 | -5.76 | 1 | 80.3 | 77.6 | -79.7 | 10 | 52.6 |
| 2026-01-16T04:17:00 | 35.6501 | 26.2200 | 725.0 | -13.18 | 2.56 | 1 | 76.8 | 73.8 | -80.3 | 12 | 63.2 |
| 2026-01-16T04:17:00 | 35.6501 | 26.2200 | 757.0 | 0.57 | -2.15 | 1 | 70.6 | 68.5 | -81.6 | 13 | 68.4 |
| 2026-01-16T04:17:00 | 35.6501 | 26.2200 | 789.0 | -0.71 | -1.70 | 1 | 67.5 | 64.2 | -82.4 | 10 | 52.6 |
| 2026-01-16T04:17:00 | 35.6501 | 26.2200 | 821.0 | 6.70 | -2.20 | 1 | 64.9 | 62.9 | -81.9 | 13 | 68.4 |
| 2026-01-16T04:17:00 | 35.6501 | 26.2200 | 853.0 | 5.87 | -5.33 | 1 | 61.0 | 59.6 | -82.4 | 13 | 68.4 |
| 2026-01-16T04:17:00 | 35.6501 | 26.2200 | 885.0 | 0.05 | -5.82 | 1 | 59.1 | 55.0 | -83.4 | 9 | 47.4 |
| 2026-01-16T04:17:00 | 35.6501 | 26.2200 | 917.0 | 0.99 | -11.10 | 1 | 52.8 | 50.8 | -84.2 | 11 | 57.9 |
| 2026-01-16T04:17:00 | 35.6501 | 26.2200 | 949.0 | 0.99 | -9.52 | 1 | 45.2 | 44.3 | -86.1 | 16 | 84.2 |
| 2026-01-16T04:17:00 | 35.6501 | 26.2200 | 981.0 | -5.78 | 2.78 | 1 | 41.0 | 38.8 | -87.6 | 12 | 63.2 |
| 2026-01-16T04:17:00 | 35.6501 | 26.2200 | 1013.0 | 1.61 | 1.53 | 1 | 33.4 | 32.4 | -89.6 | 14 | 73.7 |
| 2026-01-16T04:17:00 | 35.6501 | 26.2200 | 1045.0 | -4.58 | -6.51 | 1 | 27.8 | 24.7 | -92.2 | 13 | 68.4 |
| 2026-01-16T04:17:00 | 35.6501 | 26.2200 | 1077.0 | -4.47 | -3.25 | 1 | 19.5 | 17.9 | -94.6 | 15 | 78.9 |
| 2026-01-16T04:17:00 | 35.6501 | 26.2200 | 1109.0 | -1.68 | -1.78 | 1 | 12.8 | 11.7 | -97.3 | 17 | 89.5 |
| 2026-01-16T04:17:00 | 35.6501 | 26.2200 | 1141.0 | -3.32 | -2.24 | 1 | 9.7 | 8.4 | -98.7 | 17 | 89.5 |
| 2026-01-16T04:17:00 | 35.6501 | 26.2200 | 1173.0 | -6.41 | -4.68 | 1 | 7.6 | 6.5 | -99.3 | 9 | 47.4 |
| 2026-01-16T04:17:00 | 35.6501 | 26.2200 | 1205.0 | -2.76 | -2.06 | 1 | 7.4 | 6.8 | -98.2 | 9 | 47.4 |
| 2026-01-16T04:17:00 | 35.6501 | 26.2200 | 1237.0 | 0.58 | 0.63 | 4 | 7.3 | 6.2 | -97.8 | 2 | 10.5 |
| 2026-01-16T04:18:00 | 35.6501 | 26.2200 | 53.0 | 4.88 | -4.25 | 1 | 168.6 | 165.1 | -80.2 | 11 | 55.0 |
| 2026-01-16T04:18:00 | 35.6501 | 26.2200 | 85.0 | 15.48 | -5.74 | 1 | 160.0 | 159.4 | -76.9 | 14 | 70.0 |
| 2026-01-16T04:18:00 | 35.6501 | 26.2200 | 117.0 | 6.13 | -10.53 | 1 | 153.4 | 150.9 | -76.7 | 10 | 50.0 |
| 2026-01-16T04:18:00 | 35.6501 | 26.2200 | 149.0 | 0.50 | -6.41 | 1 | 139.1 | 137.0 | -79.7 | 14 | 70.0 |
| 2026-01-16T04:18:00 | 35.6501 | 26.2200 | 181.0 | 5.48 | 2.28 | 1 | 134.8 | 132.8 | -79.0 | 13 | 65.0 |
| 2026-01-16T04:18:00 | 35.6501 | 26.2200 | 213.0 | -0.44 | -8.69 | 1 | 132.1 | 130.6 | -77.7 | 15 | 75.0 |
| 2026-01-16T04:18:00 | 35.6501 | 26.2200 | 245.0 | 7.53 | -12.93 | 1 | 123.5 | 122.9 | -79.1 | 18 | 90.0 |
| 2026-01-16T04:18:00 | 35.6501 | 26.2200 | 277.0 | 8.23 | 0.08 | 1 | 114.2 | 113.2 | -81.5 | 16 | 80.0 |
| 2026-01-16T04:18:00 | 35.6501 | 26.2200 | 309.0 | 6.77 | -13.48 | 1 | 108.4 | 107.7 | -82.2 | 16 | 80.0 |
| 2026-01-16T04:18:00 | 35.6501 | 26.2200 | 341.0 | -0.44 | -7.09 | 1 | 105.9 | 104.3 | -82.1 | 14 | 70.0 |
| 2026-01-16T04:18:00 | 35.6501 | 26.2200 | 373.0 | 1.87 | -5.17 | 1 | 107.4 | 105.4 | -80.1 | 14 | 70.0 |
| 2026-01-16T04:18:00 | 35.6501 | 26.2200 | 405.0 | 0.40 | -0.70 | 1 | 110.8 | 109.1 | -77.0 | 13 | 65.0 |
| 2026-01-16T04:18:00 | 35.6501 | 26.2200 | 437.0 | 15.80 | -3.72 | 1 | 110.9 | 109.1 | -75.6 | 14 | 70.0 |
| 2026-01-16T04:18:00 | 35.6501 | 26.2200 | 469.0 | 4.26 | -8.42 | 1 | 108.4 | 106.9 | -75.2 | 16 | 80.0 |
| 2026-01-16T04:18:00 | 35.6501 | 26.2200 | 501.0 | 8.27 | -1.58 | 1 | 106.9 | 104.5 | -75.0 | 13 | 65.0 |
| 2026-01-16T04:18:00 | 35.6501 | 26.2200 | 533.0 | 5.89 | -2.57 | 1 | 103.1 | 100.3 | -75.6 | 13 | 65.0 |
| 2026-01-16T04:18:00 | 35.6501 | 26.2200 | 565.0 | -0.89 | -7.54 | 1 | 102.1 | 99.5 | -74.7 | 12 | 60.0 |
| 2026-01-16T04:18:00 | 35.6501 | 26.2200 | 597.0 | -3.82 | -4.50 | 1 | 95.9 | 90.6 | -77.4 | 9 | 45.0 |
| 2026-01-16T04:18:00 | 35.6501 | 26.2200 | 629.0 | -2.17 | -6.40 | 1 | 88.4 | 87.1 | -77.8 | 15 | 75.0 |
| 2026-01-16T04:18:00 | 35.6501 | 26.2200 | 661.0 | 5.35 | -4.80 | 1 | 81.5 | 80.3 | -79.7 | 14 | 70.0 |
| 2026-01-16T04:18:00 | 35.6501 | 26.2200 | 693.0 | 1.17 | -9.51 | 1 | 81.7 | 78.5 | -79.3 | 10 | 50.0 |
| 2026-01-16T04:18:00 | 35.6501 | 26.2200 | 725.0 | -4.77 | -7.98 | 1 | 75.9 | 73.7 | -80.3 | 11 | 55.0 |
| 2026-01-16T04:18:00 | 35.6501 | 26.2200 | 757.0 | -2.26 | 0.24 | 1 | 68.8 | 68.1 | -81.7 | 15 | 75.0 |
| 2026-01-16T04:18:00 | 35.6501 | 26.2200 | 789.0 | 4.52 | 2.17 | 1 | 65.2 | 63.6 | -82.7 | 15 | 75.0 |
| 2026-01-16T04:18:00 | 35.6501 | 26.2200 | 821.0 | -6.26 | 8.04 | 1 | 65.9 | 62.6 | -82.1 | 12 | 60.0 |
| 2026-01-16T04:18:00 | 35.6501 | 26.2200 | 853.0 | -4.42 | -15.12 | 1 | 61.2 | 59.7 | -82.3 | 11 | 55.0 |
| 2026-01-16T04:18:00 | 35.6501 | 26.2200 | 885.0 | 5.22 | -8.60 | 1 | 57.6 | 54.4 | -83.6 | 13 | 65.0 |
| 2026-01-16T04:18:00 | 35.6501 | 26.2200 | 917.0 | 0.31 | -11.38 | 1 | 52.3 | 50.2 | -84.5 | 14 | 70.0 |
| 2026-01-16T04:18:00 | 35.6501 | 26.2200 | 949.0 | 1.17 | -1.33 | 1 | 46.4 | 45.5 | -85.6 | 15 | 75.0 |
| 2026-01-16T04:18:00 | 35.6501 | 26.2200 | 981.0 | -2.57 | 4.17 | 1 | 42.1 | 40.5 | -86.9 | 12 | 60.0 |
| 2026-01-16T04:18:00 | 35.6501 | 26.2200 | 1013.0 | 7.58 | -1.70 | 1 | 34.2 | 33.1 | -89.2 | 17 | 85.0 |
| 2026-01-16T04:18:00 | 35.6501 | 26.2200 | 1045.0 | -1.92 | -1.17 | 1 | 26.4 | 25.9 | -91.6 | 19 | 95.0 |
| 2026-01-16T04:18:00 | 35.6501 | 26.2200 | 1077.0 | 6.10 | 0.07 | 1 | 17.9 | 17.9 | -94.7 | 20 | 100.0 |
| 2026-01-16T04:18:00 | 35.6501 | 26.2200 | 1109.0 | 4.32 | -2.81 | 1 | 11.6 | 11.6 | -97.3 | 20 | 100.0 |
| 2026-01-16T04:18:00 | 35.6501 | 26.2200 | 1141.0 | 5.22 | 1.25 | 1 | 9.1 | 8.9 | -98.2 | 17 | 85.0 |
| 2026-01-16T04:18:00 | 35.6501 | 26.2200 | 1173.0 | -3.24 | -0.09 | 1 | 6.7 | 6.7 | -99.1 | 14 | 70.0 |
| 2026-01-16T04:18:00 | 35.6501 | 26.2200 | 1205.0 | 7.75 | -3.56 | 1 | 6.8 | 6.7 | -98.3 | 9 | 45.0 |
| 2026-01-16T04:19:00 | 35.6501 | 26.2200 | 53.0 | -10.10 | -17.35 | 1 | 164.3 | 163.9 | -80.7 | 17 | 89.5 |
| 2026-01-16T04:19:00 | 35.6501 | 26.2200 | 85.0 | 0.36 | -3.55 | 1 | 158.9 | 158.9 | -77.1 | 16 | 84.2 |
| 2026-01-16T04:19:00 | 35.6501 | 26.2200 | 117.0 | 6.41 | -5.21 | 1 | 151.6 | 151.3 | -76.5 | 17 | 89.5 |
| 2026-01-16T04:19:00 | 35.6501 | 26.2200 | 149.0 | 15.05 | -10.53 | 1 | 138.8 | 137.5 | -79.5 | 15 | 78.9 |
| 2026-01-16T04:19:00 | 35.6501 | 26.2200 | 181.0 | 12.44 | -3.77 | 1 | 135.1 | 132.8 | -79.0 | 9 | 47.4 |
| 2026-01-16T04:19:00 | 35.6501 | 26.2200 | 213.0 | 2.95 | -10.72 | 1 | 131.0 | 129.2 | -78.4 | 15 | 78.9 |
| 2026-01-16T04:19:00 | 35.6501 | 26.2200 | 245.0 | 3.44 | -12.04 | 1 | 125.5 | 124.4 | -78.5 | 15 | 78.9 |
| 2026-01-16T04:19:00 | 35.6501 | 26.2200 | 277.0 | 2.44 | -5.63 | 1 | 114.0 | 113.4 | -81.4 | 14 | 73.7 |
| 2026-01-16T04:19:00 | 35.6501 | 26.2200 | 309.0 | -0.03 | -4.55 | 1 | 107.8 | 106.4 | -82.8 | 14 | 73.7 |
| 2026-01-16T04:19:00 | 35.6501 | 26.2200 | 341.0 | 8.97 | 2.33 | 1 | 104.7 | 103.2 | -82.6 | 15 | 78.9 |
| 2026-01-16T04:19:00 | 35.6501 | 26.2200 | 373.0 | 2.57 | -4.85 | 1 | 106.2 | 105.0 | -80.3 | 14 | 73.7 |
| 2026-01-16T04:19:00 | 35.6501 | 26.2200 | 405.0 | -1.40 | -10.91 | 1 | 109.8 | 109.2 | -77.0 | 17 | 89.5 |
| 2026-01-16T04:19:00 | 35.6501 | 26.2200 | 437.0 | 1.24 | -0.73 | 1 | 112.7 | 109.5 | -75.5 | 11 | 57.9 |
| 2026-01-16T04:19:00 | 35.6501 | 26.2200 | 469.0 | 0.95 | 3.22 | 1 | 110.5 | 108.6 | -74.5 | 13 | 68.4 |
| 2026-01-16T04:19:00 | 35.6501 | 26.2200 | 501.0 | -1.46 | 6.63 | 1 | 108.2 | 107.0 | -73.9 | 14 | 73.7 |
| 2026-01-16T04:19:00 | 35.6501 | 26.2200 | 533.0 | -7.82 | 6.20 | 1 | 102.7 | 99.4 | -76.0 | 11 | 57.9 |
| 2026-01-16T04:19:00 | 35.6501 | 26.2200 | 565.0 | 2.22 | 1.05 | 1 | 99.1 | 98.3 | -75.3 | 15 | 78.9 |
| 2026-01-16T04:19:00 | 35.6501 | 26.2200 | 597.0 | -4.57 | -2.69 | 1 | 94.1 | 93.2 | -76.3 | 15 | 78.9 |
| 2026-01-16T04:19:00 | 35.6501 | 26.2200 | 629.0 | 5.91 | -5.85 | 1 | 90.4 | 86.5 | -78.1 | 10 | 52.6 |
| 2026-01-16T04:19:00 | 35.6501 | 26.2200 | 661.0 | 4.62 | -2.93 | 1 | 82.2 | 79.7 | -79.9 | 12 | 63.2 |
| 2026-01-16T04:19:00 | 35.6501 | 26.2200 | 693.0 | -0.21 | 7.42 | 1 | 81.5 | 79.9 | -78.7 | 13 | 68.4 |
| 2026-01-16T04:19:00 | 35.6501 | 26.2200 | 725.0 | -1.93 | -0.45 | 1 | 77.3 | 74.7 | -79.9 | 13 | 68.4 |
| 2026-01-16T04:19:00 | 35.6501 | 26.2200 | 757.0 | -1.20 | -3.13 | 1 | 65.8 | 65.3 | -82.9 | 14 | 73.7 |
| 2026-01-16T04:19:00 | 35.6501 | 26.2200 | 789.0 | -0.11 | -9.94 | 1 | 62.9 | 60.3 | -84.1 | 13 | 68.4 |
| 2026-01-16T04:19:00 | 35.6501 | 26.2200 | 821.0 | 1.34 | -4.77 | 1 | 63.5 | 61.7 | -82.5 | 15 | 78.9 |
| 2026-01-16T04:19:00 | 35.6501 | 26.2200 | 853.0 | 10.64 | 5.81 | 1 | 60.7 | 58.9 | -82.7 | 13 | 68.4 |
| 2026-01-16T04:19:00 | 35.6501 | 26.2200 | 885.0 | 1.67 | 1.09 | 1 | 58.2 | 55.8 | -83.0 | 12 | 63.2 |
| 2026-01-16T04:19:00 | 35.6501 | 26.2200 | 917.0 | -3.14 | -6.51 | 1 | 52.8 | 50.1 | -84.6 | 11 | 57.9 |
| 2026-01-16T04:19:00 | 35.6501 | 26.2200 | 949.0 | 1.71 | -10.58 | 1 | 46.4 | 43.7 | -86.4 | 14 | 73.7 |
| 2026-01-16T04:19:00 | 35.6501 | 26.2200 | 981.0 | -3.31 | 2.89 | 1 | 40.1 | 39.3 | -87.4 | 16 | 84.2 |
| 2026-01-16T04:19:00 | 35.6501 | 26.2200 | 1013.0 | 7.10 | -7.81 | 1 | 36.3 | 33.2 | -89.2 | 9 | 47.4 |
| 2026-01-16T04:19:00 | 35.6501 | 26.2200 | 1045.0 | -8.33 | 1.28 | 1 | 26.5 | 25.2 | -92.0 | 15 | 78.9 |
| 2026-01-16T04:19:00 | 35.6501 | 26.2200 | 1077.0 | -5.82 | -2.67 | 1 | 17.4 | 17.4 | -94.9 | 18 | 94.7 |
| 2026-01-16T04:19:00 | 35.6501 | 26.2200 | 1109.0 | -1.48 | -1.31 | 1 | 12.0 | 11.8 | -97.2 | 18 | 94.7 |
| 2026-01-16T04:19:00 | 35.6501 | 26.2200 | 1141.0 | -2.23 | -1.58 | 1 | 8.8 | 8.8 | -98.4 | 16 | 84.2 |
| 2026-01-16T04:19:00 | 35.6501 | 26.2200 | 1173.0 | 7.61 | -1.18 | 1 | 6.7 | 6.7 | -99.2 | 14 | 73.7 |
| 2026-01-16T04:19:00 | 35.6501 | 26.2200 | 1205.0 | -4.34 | -6.56 | 1 | 7.1 | 7.3 | -97.8 | 10 | 52.6 |
| 2026-01-16T04:19:00 | 35.6501 | 26.2200 | 1237.0 | 1.07 | 9.27 | 4 | 6.1 | 6.2 | -97.8 | 2 | 10.5 |
| 2026-01-16T04:20:00 | 35.6501 | 26.2200 | 53.0 | -3.33 | -2.59 | 1 | 167.2 | 166.0 | -79.8 | 14 | 73.7 |
| 2026-01-16T04:20:00 | 35.6501 | 26.2200 | 85.0 | 0.69 | -2.53 | 1 | 157.8 | 157.3 | -77.8 | 16 | 84.2 |
| 2026-01-16T04:20:00 | 35.6501 | 26.2200 | 117.0 | 1.25 | -8.93 | 1 | 150.9 | 150.1 | -77.0 | 16 | 84.2 |
| 2026-01-16T04:20:00 | 35.6501 | 26.2200 | 149.0 | -0.05 | -11.60 | 1 | 139.4 | 138.6 | -79.0 | 16 | 84.2 |
| 2026-01-16T04:20:00 | 35.6501 | 26.2200 | 181.0 | 7.40 | -13.63 | 1 | 134.7 | 130.3 | -80.1 | 11 | 57.9 |
| 2026-01-16T04:20:00 | 35.6501 | 26.2200 | 213.0 | 5.03 | -5.69 | 1 | 130.8 | 129.8 | -78.1 | 14 | 73.7 |
| 2026-01-16T04:20:00 | 35.6501 | 26.2200 | 245.0 | -1.89 | -6.72 | 1 | 125.4 | 123.4 | -78.9 | 13 | 68.4 |
| 2026-01-16T04:20:00 | 35.6501 | 26.2200 | 277.0 | 9.42 | -3.33 | 1 | 114.8 | 113.6 | -81.3 | 17 | 89.5 |
| 2026-01-16T04:20:00 | 35.6501 | 26.2200 | 309.0 | 6.74 | -7.12 | 1 | 106.5 | 105.6 | -83.1 | 16 | 84.2 |
| 2026-01-16T04:20:00 | 35.6501 | 26.2200 | 341.0 | -1.84 | 0.29 | 1 | 104.3 | 102.5 | -82.9 | 14 | 73.7 |
| 2026-01-16T04:20:00 | 35.6501 | 26.2200 | 373.0 | -0.36 | 1.67 | 1 | 106.4 | 105.1 | -80.2 | 16 | 84.2 |
| 2026-01-16T04:20:00 | 35.6501 | 26.2200 | 405.0 | -0.26 | -2.42 | 1 | 111.4 | 108.5 | -77.3 | 13 | 68.4 |
| 2026-01-16T04:20:00 | 35.6501 | 26.2200 | 437.0 | -1.12 | 0.40 | 1 | 110.9 | 110.1 | -75.2 | 16 | 84.2 |
| 2026-01-16T04:20:00 | 35.6501 | 26.2200 | 469.0 | -1.01 | 2.69 | 1 | 110.0 | 109.4 | -74.2 | 17 | 89.5 |
| 2026-01-16T04:20:00 | 35.6501 | 26.2200 | 501.0 | 0.52 | 0.17 | 1 | 107.1 | 105.7 | -74.5 | 12 | 63.2 |
| 2026-01-16T04:20:00 | 35.6501 | 26.2200 | 533.0 | 2.22 | 4.02 | 1 | 103.1 | 100.5 | -75.5 | 11 | 57.9 |
| 2026-01-16T04:20:00 | 35.6501 | 26.2200 | 565.0 | 6.34 | -8.97 | 1 | 101.5 | 99.1 | -74.9 | 11 | 57.9 |
| 2026-01-16T04:20:00 | 35.6501 | 26.2200 | 597.0 | 9.33 | -11.53 | 1 | 94.4 | 94.0 | -76.0 | 18 | 94.7 |
| 2026-01-16T04:20:00 | 35.6501 | 26.2200 | 629.0 | 6.06 | 1.77 | 1 | 88.0 | 86.6 | -78.0 | 15 | 78.9 |
| 2026-01-16T04:20:00 | 35.6501 | 26.2200 | 661.0 | -9.27 | -1.93 | 1 | 83.4 | 81.2 | -79.3 | 14 | 73.7 |
| 2026-01-16T04:20:00 | 35.6501 | 26.2200 | 693.0 | -1.03 | -1.23 | 1 | 80.3 | 79.5 | -78.9 | 16 | 84.2 |
| 2026-01-16T04:20:00 | 35.6501 | 26.2200 | 725.0 | 1.86 | 1.18 | 1 | 74.8 | 72.3 | -81.0 | 14 | 73.7 |
| 2026-01-16T04:20:00 | 35.6501 | 26.2200 | 757.0 | 5.68 | 2.69 | 1 | 70.2 | 67.8 | -81.9 | 14 | 73.7 |
| 2026-01-16T04:20:00 | 35.6501 | 26.2200 | 789.0 | 6.10 | -1.30 | 1 | 65.2 | 64.5 | -82.3 | 16 | 84.2 |
| 2026-01-16T04:20:00 | 35.6501 | 26.2200 | 821.0 | 3.86 | -2.28 | 1 | 64.5 | 63.7 | -81.6 | 16 | 84.2 |
| 2026-01-16T04:20:00 | 35.6501 | 26.2200 | 853.0 | 4.47 | -2.00 | 1 | 58.8 | 58.2 | -83.0 | 16 | 84.2 |
| 2026-01-16T04:20:00 | 35.6501 | 26.2200 | 885.0 | 0.31 | 1.43 | 1 | 57.1 | 56.8 | -82.6 | 17 | 89.5 |
| 2026-01-16T04:20:00 | 35.6501 | 26.2200 | 917.0 | -6.49 | -9.06 | 1 | 51.2 | 50.9 | -84.2 | 17 | 89.5 |
| 2026-01-16T04:20:00 | 35.6501 | 26.2200 | 949.0 | -2.34 | -8.78 | 1 | 46.3 | 45.1 | -85.8 | 14 | 73.7 |
| 2026-01-16T04:20:00 | 35.6501 | 26.2200 | 981.0 | 0.74 | -0.71 | 1 | 40.6 | 39.2 | -87.5 | 15 | 78.9 |
| 2026-01-16T04:20:00 | 35.6501 | 26.2200 | 1013.0 | -4.35 | 2.58 | 1 | 34.5 | 34.2 | -88.8 | 18 | 94.7 |
| 2026-01-16T04:20:00 | 35.6501 | 26.2200 | 1045.0 | -5.60 | -2.77 | 1 | 25.3 | 24.2 | -92.4 | 15 | 78.9 |
| 2026-01-16T04:20:00 | 35.6501 | 26.2200 | 1077.0 | -1.56 | -2.85 | 1 | 17.2 | 16.8 | -95.3 | 17 | 89.5 |
| 2026-01-16T04:20:00 | 35.6501 | 26.2200 | 1109.0 | 2.16 | 0.13 | 1 | 11.5 | 10.6 | -98.0 | 18 | 94.7 |
| 2026-01-16T04:20:00 | 35.6501 | 26.2200 | 1141.0 | 1.09 | -4.98 | 1 | 9.0 | 8.2 | -98.8 | 17 | 89.5 |
| 2026-01-16T04:20:00 | 35.6501 | 26.2200 | 1173.0 | 7.08 | -6.54 | 1 | 7.4 | 6.3 | -99.5 | 13 | 68.4 |
| 2026-01-16T04:20:00 | 35.6501 | 26.2200 | 1205.0 | 4.57 | 2.57 | 1 | 7.5 | 6.8 | -98.2 | 12 | 63.2 |
| 2026-01-16T04:20:00 | 35.6501 | 26.2200 | 1237.0 | 1.40 | -9.91 | 4 | 7.2 | 7.5 | -96.7 | 2 | 10.5 |
| 2026-01-16T04:21:00 | 35.6501 | 26.2200 | 53.0 | 9.10 | -1.32 | 1 | 163.8 | 163.8 | -80.8 | 18 | 90.0 |
| 2026-01-16T04:21:00 | 35.6501 | 26.2200 | 85.0 | 7.93 | -6.69 | 1 | 158.7 | 158.4 | -77.3 | 16 | 80.0 |
| 2026-01-16T04:21:00 | 35.6501 | 26.2200 | 117.0 | -5.94 | -9.39 | 1 | 152.0 | 151.7 | -76.4 | 18 | 90.0 |
| 2026-01-16T04:21:00 | 35.6501 | 26.2200 | 149.0 | -0.70 | -1.28 | 1 | 140.2 | 137.6 | -79.5 | 13 | 65.0 |
| 2026-01-16T04:21:00 | 35.6501 | 26.2200 | 181.0 | 7.07 | -10.45 | 1 | 135.1 | 132.0 | -79.4 | 11 | 55.0 |
| 2026-01-16T04:21:00 | 35.6501 | 26.2200 | 213.0 | 3.13 | -8.23 | 1 | 131.1 | 130.1 | -78.0 | 16 | 80.0 |
| 2026-01-16T04:21:00 | 35.6501 | 26.2200 | 245.0 | 6.70 | -7.75 | 1 | 122.6 | 122.4 | -79.3 | 17 | 85.0 |
| 2026-01-16T04:21:00 | 35.6501 | 26.2200 | 277.0 | 1.78 | 2.89 | 1 | 114.8 | 113.9 | -81.2 | 18 | 90.0 |
| 2026-01-16T04:21:00 | 35.6501 | 26.2200 | 309.0 | 0.56 | -5.32 | 1 | 108.0 | 107.3 | -82.4 | 16 | 80.0 |
| 2026-01-16T04:21:00 | 35.6501 | 26.2200 | 341.0 | 1.63 | -0.45 | 1 | 104.4 | 103.8 | -82.3 | 18 | 90.0 |
| 2026-01-16T04:21:00 | 35.6501 | 26.2200 | 373.0 | -4.87 | -2.51 | 1 | 108.0 | 106.8 | -79.5 | 14 | 70.0 |
| 2026-01-16T04:21:00 | 35.6501 | 26.2200 | 405.0 | -0.82 | 5.35 | 1 | 110.4 | 109.4 | -76.9 | 16 | 80.0 |
| 2026-01-16T04:21:00 | 35.6501 | 26.2200 | 437.0 | -4.93 | -4.75 | 1 | 110.5 | 108.8 | -75.8 | 16 | 80.0 |
| 2026-01-16T04:21:00 | 35.6501 | 26.2200 | 469.0 | 0.21 | -1.20 | 1 | 111.3 | 110.0 | -73.9 | 16 | 80.0 |
| 2026-01-16T04:21:00 | 35.6501 | 26.2200 | 501.0 | 2.58 | -3.52 | 1 | 108.8 | 107.9 | -73.5 | 17 | 85.0 |
| 2026-01-16T04:21:00 | 35.6501 | 26.2200 | 533.0 | 0.23 | -4.88 | 1 | 102.6 | 102.0 | -74.8 | 17 | 85.0 |
| 2026-01-16T04:21:00 | 35.6501 | 26.2200 | 565.0 | 4.05 | -6.68 | 1 | 97.0 | 96.5 | -76.0 | 17 | 85.0 |
| 2026-01-16T04:21:00 | 35.6501 | 26.2200 | 597.0 | 4.08 | -1.56 | 1 | 95.0 | 94.5 | -75.8 | 16 | 80.0 |
| 2026-01-16T04:21:00 | 35.6501 | 26.2200 | 629.0 | 2.84 | -2.58 | 1 | 87.2 | 86.3 | -78.2 | 17 | 85.0 |
| 2026-01-16T04:21:00 | 35.6501 | 26.2200 | 661.0 | 3.30 | 1.53 | 1 | 85.8 | 83.8 | -78.1 | 14 | 70.0 |
| 2026-01-16T04:21:00 | 35.6501 | 26.2200 | 693.0 | 2.83 | 3.64 | 1 | 80.4 | 79.1 | -79.1 | 16 | 80.0 |
| 2026-01-16T04:21:00 | 35.6501 | 26.2200 | 725.0 | 7.90 | -3.89 | 1 | 77.1 | 74.3 | -80.1 | 15 | 75.0 |
| 2026-01-16T04:21:00 | 35.6501 | 26.2200 | 757.0 | -3.39 | -7.70 | 1 | 70.3 | 69.0 | -81.4 | 17 | 85.0 |
| 2026-01-16T04:21:00 | 35.6501 | 26.2200 | 789.0 | -0.99 | -1.20 | 1 | 66.5 | 65.1 | -82.0 | 16 | 80.0 |
| 2026-01-16T04:21:00 | 35.6501 | 26.2200 | 821.0 | -5.55 | 9.00 | 1 | 66.6 | 64.4 | -81.3 | 13 | 65.0 |
| 2026-01-16T04:21:00 | 35.6501 | 26.2200 | 853.0 | -3.42 | 3.88 | 1 | 60.8 | 59.9 | -82.2 | 17 | 85.0 |
| 2026-01-16T04:21:00 | 35.6501 | 26.2200 | 885.0 | -3.15 | -5.09 | 1 | 54.9 | 54.9 | -83.4 | 18 | 90.0 |
| 2026-01-16T04:21:00 | 35.6501 | 26.2200 | 917.0 | 1.51 | 0.41 | 1 | 51.1 | 50.4 | -84.4 | 18 | 90.0 |
| 2026-01-16T04:21:00 | 35.6501 | 26.2200 | 949.0 | 5.94 | -3.43 | 1 | 46.3 | 45.2 | -85.7 | 16 | 80.0 |
| 2026-01-16T04:21:00 | 35.6501 | 26.2200 | 981.0 | 1.59 | -4.16 | 1 | 40.3 | 40.2 | -87.0 | 19 | 95.0 |
| 2026-01-16T04:21:00 | 35.6501 | 26.2200 | 1013.0 | 3.89 | -1.39 | 1 | 35.4 | 34.8 | -88.5 | 16 | 80.0 |
| 2026-01-16T04:21:00 | 35.6501 | 26.2200 | 1045.0 | -1.56 | -2.18 | 1 | 25.1 | 23.6 | -92.7 | 17 | 85.0 |
| 2026-01-16T04:21:00 | 35.6501 | 26.2200 | 1077.0 | -3.89 | 1.15 | 1 | 17.3 | 17.0 | -95.2 | 18 | 90.0 |
| 2026-01-16T04:21:00 | 35.6501 | 26.2200 | 1109.0 | -2.81 | -4.35 | 1 | 12.8 | 12.0 | -97.1 | 18 | 90.0 |
| 2026-01-16T04:21:00 | 35.6501 | 26.2200 | 1141.0 | -1.78 | -5.60 | 1 | 9.6 | 8.7 | -98.4 | 19 | 95.0 |
| 2026-01-16T04:21:00 | 35.6501 | 26.2200 | 1173.0 | -1.53 | 0.76 | 1 | 7.2 | 6.9 | -99.0 | 16 | 80.0 |
| 2026-01-16T04:21:00 | 35.6501 | 26.2200 | 1205.0 | -5.85 | -7.78 | 1 | 7.3 | 7.2 | -97.9 | 11 | 55.0 |
| 2026-01-16T04:21:00 | 35.6501 | 26.2200 | 1237.0 | -0.37 | -1.48 | 4 | 6.5 | 7.3 | -96.9 | 3 | 15.0 |
| 2026-01-16T04:22:00 | 35.6501 | 26.2200 | 53.0 | -3.11 | -4.58 | 1 | 165.0 | 164.7 | -80.4 | 14 | 73.7 |
| 2026-01-16T04:22:00 | 35.6501 | 26.2200 | 85.0 | -0.24 | -10.58 | 1 | 159.3 | 158.8 | -77.2 | 17 | 89.5 |
| 2026-01-16T04:22:00 | 35.6501 | 26.2200 | 117.0 | -1.86 | -9.15 | 1 | 152.1 | 151.7 | -76.3 | 17 | 89.5 |
| 2026-01-16T04:22:00 | 35.6501 | 26.2200 | 149.0 | -1.53 | -10.80 | 1 | 139.8 | 137.8 | -79.4 | 15 | 78.9 |
| 2026-01-16T04:22:00 | 35.6501 | 26.2200 | 181.0 | 4.34 | -15.36 | 1 | 131.6 | 130.5 | -80.0 | 15 | 78.9 |
| 2026-01-16T04:22:00 | 35.6501 | 26.2200 | 213.0 | 4.07 | -9.05 | 1 | 130.8 | 129.4 | -78.3 | 15 | 78.9 |
| 2026-01-16T04:22:00 | 35.6501 | 26.2200 | 245.0 | 5.06 | -6.44 | 1 | 123.1 | 123.1 | -79.1 | 18 | 94.7 |
| 2026-01-16T04:22:00 | 35.6501 | 26.2200 | 277.0 | 7.57 | -2.69 | 1 | 115.4 | 115.4 | -80.6 | 18 | 94.7 |
| 2026-01-16T04:22:00 | 35.6501 | 26.2200 | 309.0 | -4.56 | -3.22 | 1 | 110.2 | 108.4 | -81.9 | 12 | 63.2 |
| 2026-01-16T04:22:00 | 35.6501 | 26.2200 | 341.0 | -4.55 | -5.22 | 1 | 102.7 | 102.2 | -83.0 | 17 | 89.5 |
| 2026-01-16T04:22:00 | 35.6501 | 26.2200 | 373.0 | -2.33 | -1.09 | 1 | 107.0 | 104.3 | -80.6 | 13 | 68.4 |
| 2026-01-16T04:22:00 | 35.6501 | 26.2200 | 405.0 | 5.41 | 2.13 | 1 | 109.6 | 108.4 | -77.3 | 14 | 73.7 |
| 2026-01-16T04:22:00 | 35.6501 | 26.2200 | 437.0 | -3.92 | 0.12 | 1 | 110.2 | 109.5 | -75.5 | 14 | 73.7 |
| 2026-01-16T04:22:00 | 35.6501 | 26.2200 | 469.0 | 3.41 | -6.04 | 1 | 109.4 | 108.9 | -74.4 | 14 | 73.7 |
| 2026-01-16T04:22:00 | 35.6501 | 26.2200 | 501.0 | 5.17 | 5.56 | 1 | 107.2 | 106.6 | -74.1 | 15 | 78.9 |
| 2026-01-16T04:22:00 | 35.6501 | 26.2200 | 533.0 | -3.74 | -1.27 | 1 | 102.3 | 101.7 | -75.0 | 17 | 89.5 |
| 2026-01-16T04:22:00 | 35.6501 | 26.2200 | 565.0 | 6.23 | -2.35 | 1 | 98.2 | 97.5 | -75.6 | 16 | 84.2 |
| 2026-01-16T04:22:00 | 35.6501 | 26.2200 | 597.0 | 4.10 | 2.99 | 1 | 92.9 | 91.2 | -77.2 | 15 | 78.9 |
| 2026-01-16T04:22:00 | 35.6501 | 26.2200 | 629.0 | -0.85 | -4.30 | 1 | 88.1 | 86.5 | -78.1 | 14 | 73.7 |
| 2026-01-16T04:22:00 | 35.6501 | 26.2200 | 661.0 | -3.41 | 2.57 | 1 | 83.2 | 82.1 | -78.9 | 16 | 84.2 |
| 2026-01-16T04:22:00 | 35.6501 | 26.2200 | 693.0 | 0.39 | 3.39 | 1 | 80.8 | 79.5 | -78.9 | 15 | 78.9 |
| 2026-01-16T04:22:00 | 35.6501 | 26.2200 | 725.0 | 0.89 | -1.87 | 1 | 77.5 | 74.9 | -79.8 | 13 | 68.4 |
| 2026-01-16T04:22:00 | 35.6501 | 26.2200 | 757.0 | -2.48 | -2.89 | 1 | 69.5 | 67.7 | -81.9 | 14 | 73.7 |
| 2026-01-16T04:22:00 | 35.6501 | 26.2200 | 789.0 | -3.33 | -1.72 | 1 | 62.8 | 61.6 | -83.5 | 14 | 73.7 |
| 2026-01-16T04:22:00 | 35.6501 | 26.2200 | 821.0 | 3.79 | 0.52 | 1 | 63.9 | 63.9 | -81.5 | 18 | 94.7 |
| 2026-01-16T04:22:00 | 35.6501 | 26.2200 | 853.0 | 4.13 | -6.73 | 1 | 59.6 | 58.6 | -82.8 | 16 | 84.2 |
| 2026-01-16T04:22:00 | 35.6501 | 26.2200 | 885.0 | 1.88 | -0.74 | 1 | 56.5 | 55.9 | -83.0 | 17 | 89.5 |
| 2026-01-16T04:22:00 | 35.6501 | 26.2200 | 917.0 | -0.89 | -0.27 | 1 | 53.0 | 51.7 | -83.9 | 16 | 84.2 |
| 2026-01-16T04:22:00 | 35.6501 | 26.2200 | 949.0 | -5.42 | -0.14 | 1 | 46.6 | 45.0 | -85.8 | 15 | 78.9 |
| 2026-01-16T04:22:00 | 35.6501 | 26.2200 | 981.0 | -0.52 | -2.75 | 1 | 39.5 | 38.0 | -88.0 | 16 | 84.2 |
| 2026-01-16T04:22:00 | 35.6501 | 26.2200 | 1013.0 | 2.87 | -2.81 | 1 | 32.9 | 31.5 | -90.0 | 15 | 78.9 |
| 2026-01-16T04:22:00 | 35.6501 | 26.2200 | 1045.0 | -2.31 | 2.09 | 1 | 25.4 | 24.6 | -92.3 | 17 | 89.5 |
| 2026-01-16T04:22:00 | 35.6501 | 26.2200 | 1077.0 | 0.50 | -1.15 | 1 | 16.6 | 15.8 | -95.8 | 16 | 84.2 |
| 2026-01-16T04:22:00 | 35.6501 | 26.2200 | 1109.0 | 2.72 | -3.26 | 1 | 11.8 | 11.1 | -97.7 | 16 | 84.2 |
| 2026-01-16T04:22:00 | 35.6501 | 26.2200 | 1141.0 | -1.95 | 1.23 | 1 | 9.3 | 8.7 | -98.5 | 16 | 84.2 |
| 2026-01-16T04:22:00 | 35.6501 | 26.2200 | 1173.0 | -7.99 | -4.31 | 1 | 8.0 | 7.0 | -98.9 | 12 | 63.2 |
| 2026-01-16T04:22:00 | 35.6501 | 26.2200 | 1205.0 | -1.94 | -3.02 | 1 | 7.6 | 7.2 | -97.9 | 13 | 68.4 |
| 2026-01-16T04:22:00 | 35.6501 | 26.2200 | 1237.0 | 9.77 | -1.31 | 4 | 6.7 | 6.3 | -97.7 | 3 | 15.8 |
| 2026-01-16T04:23:00 | 35.6501 | 26.2200 | 53.0 | -6.21 | -0.21 | 1 | 167.0 | 166.8 | -79.5 | 16 | 84.2 |
| 2026-01-16T04:23:00 | 35.6501 | 26.2200 | 85.0 | -1.35 | -10.60 | 1 | 160.1 | 160.1 | -76.6 | 19 | 100.0 |
| 2026-01-16T04:23:00 | 35.6501 | 26.2200 | 117.0 | 4.39 | -5.05 | 1 | 151.7 | 151.3 | -76.5 | 16 | 84.2 |
| 2026-01-16T04:23:00 | 35.6501 | 26.2200 | 149.0 | -0.91 | -0.70 | 1 | 138.2 | 137.4 | -79.6 | 16 | 84.2 |
| 2026-01-16T04:23:00 | 35.6501 | 26.2200 | 181.0 | 6.04 | 3.22 | 1 | 130.4 | 130.0 | -80.2 | 16 | 84.2 |
| 2026-01-16T04:23:00 | 35.6501 | 26.2200 | 213.0 | 6.98 | -8.40 | 1 | 131.4 | 130.0 | -78.0 | 15 | 78.9 |
| 2026-01-16T04:23:00 | 35.6501 | 26.2200 | 245.0 | 7.14 | -9.68 | 1 | 122.7 | 122.2 | -79.4 | 17 | 89.5 |
| 2026-01-16T04:23:00 | 35.6501 | 26.2200 | 277.0 | 4.47 | -1.09 | 1 | 115.1 | 115.1 | -80.7 | 19 | 100.0 |
| 2026-01-16T04:23:00 | 35.6501 | 26.2200 | 309.0 | 13.65 | -4.32 | 1 | 107.8 | 107.7 | -82.2 | 17 | 89.5 |
| 2026-01-16T04:23:00 | 35.6501 | 26.2200 | 341.0 | -0.62 | -3.33 | 1 | 102.6 | 102.3 | -83.0 | 17 | 89.5 |
| 2026-01-16T04:23:00 | 35.6501 | 26.2200 | 373.0 | -2.00 | 5.19 | 1 | 106.0 | 105.2 | -80.2 | 15 | 78.9 |
| 2026-01-16T04:23:00 | 35.6501 | 26.2200 | 405.0 | -3.51 | -0.89 | 1 | 110.8 | 109.3 | -77.0 | 15 | 78.9 |
| 2026-01-16T04:23:00 | 35.6501 | 26.2200 | 437.0 | -6.80 | -4.53 | 1 | 110.6 | 110.0 | -75.3 | 16 | 84.2 |
| 2026-01-16T04:23:00 | 35.6501 | 26.2200 | 469.0 | 0.62 | -3.20 | 1 | 108.1 | 108.1 | -74.7 | 19 | 100.0 |
| 2026-01-16T04:23:00 | 35.6501 | 26.2200 | 501.0 | -4.10 | -7.12 | 1 | 105.5 | 105.5 | -74.6 | 18 | 94.7 |
| 2026-01-16T04:23:00 | 35.6501 | 26.2200 | 533.0 | -9.11 | 1.48 | 1 | 102.8 | 101.4 | -75.1 | 14 | 73.7 |
| 2026-01-16T04:23:00 | 35.6501 | 26.2200 | 565.0 | 1.39 | 0.51 | 1 | 98.0 | 97.0 | -75.9 | 17 | 89.5 |
| 2026-01-16T04:23:00 | 35.6501 | 26.2200 | 597.0 | 4.62 | -0.27 | 1 | 95.1 | 94.1 | -75.9 | 16 | 84.2 |
| 2026-01-16T04:23:00 | 35.6501 | 26.2200 | 629.0 | 5.44 | 2.11 | 1 | 87.0 | 86.4 | -78.1 | 16 | 84.2 |
| 2026-01-16T04:23:00 | 35.6501 | 26.2200 | 661.0 | -2.29 | 4.06 | 1 | 83.9 | 82.7 | -78.6 | 16 | 84.2 |
| 2026-01-16T04:23:00 | 35.6501 | 26.2200 | 693.0 | -3.30 | 2.72 | 1 | 80.2 | 79.4 | -78.9 | 16 | 84.2 |
| 2026-01-16T04:23:00 | 35.6501 | 26.2200 | 725.0 | 3.32 | 2.69 | 1 | 73.6 | 72.8 | -80.8 | 17 | 89.5 |
| 2026-01-16T04:23:00 | 35.6501 | 26.2200 | 757.0 | -5.48 | 1.52 | 1 | 67.4 | 66.8 | -82.3 | 16 | 84.2 |
| 2026-01-16T04:23:00 | 35.6501 | 26.2200 | 789.0 | -1.45 | -3.06 | 1 | 64.5 | 63.2 | -82.8 | 14 | 73.7 |
| 2026-01-16T04:23:00 | 35.6501 | 26.2200 | 821.0 | 0.46 | -3.77 | 1 | 64.6 | 63.1 | -81.8 | 15 | 78.9 |
| 2026-01-16T04:23:00 | 35.6501 | 26.2200 | 853.0 | 4.41 | 8.53 | 1 | 60.3 | 58.9 | -82.7 | 13 | 68.4 |
| 2026-01-16T04:23:00 | 35.6501 | 26.2200 | 885.0 | 2.60 | 0.13 | 1 | 56.0 | 54.8 | -83.5 | 13 | 68.4 |
| 2026-01-16T04:23:00 | 35.6501 | 26.2200 | 917.0 | -0.13 | -3.65 | 1 | 52.0 | 51.4 | -84.0 | 12 | 63.2 |
| 2026-01-16T04:23:00 | 35.6501 | 26.2200 | 949.0 | -0.30 | -7.43 | 1 | 45.7 | 44.4 | -86.1 | 16 | 84.2 |
| 2026-01-16T04:23:00 | 35.6501 | 26.2200 | 981.0 | 1.76 | -8.16 | 1 | 39.1 | 38.0 | -88.0 | 16 | 84.2 |
| 2026-01-16T04:23:00 | 35.6501 | 26.2200 | 1013.0 | 3.89 | -2.00 | 1 | 36.4 | 33.6 | -89.0 | 12 | 63.2 |
| 2026-01-16T04:23:00 | 35.6501 | 26.2200 | 1045.0 | 1.06 | -6.54 | 1 | 25.1 | 23.9 | -92.6 | 16 | 84.2 |
| 2026-01-16T04:23:00 | 35.6501 | 26.2200 | 1077.0 | -2.29 | -6.68 | 1 | 17.4 | 15.2 | -96.1 | 14 | 73.7 |
| 2026-01-16T04:23:00 | 35.6501 | 26.2200 | 1109.0 | -3.18 | -0.80 | 1 | 12.9 | 11.0 | -97.7 | 16 | 84.2 |
| 2026-01-16T04:23:00 | 35.6501 | 26.2200 | 1141.0 | 2.87 | -5.09 | 1 | 9.6 | 8.4 | -98.7 | 17 | 89.5 |
| 2026-01-16T04:23:00 | 35.6501 | 26.2200 | 1173.0 | 1.29 | -4.05 | 1 | 7.4 | 7.0 | -98.9 | 12 | 63.2 |
| 2026-01-16T04:23:00 | 35.6501 | 26.2200 | 1205.0 | -0.17 | 0.55 | 1 | 7.2 | 7.0 | -98.0 | 14 | 73.7 |
| 2026-01-16T04:23:00 | 35.6501 | 26.2200 | 1237.0 | 7.63 | 12.97 | 4 | 6.4 | 6.9 | -97.2 | 2 | 10.5 |
| 2026-01-16T04:24:00 | 35.6501 | 26.2200 | 53.0 | 2.14 | -9.04 | 1 | 170.7 | 168.3 | -78.8 | 11 | 55.0 |
| 2026-01-16T04:24:00 | 35.6501 | 26.2200 | 85.0 | 5.44 | -16.36 | 1 | 160.1 | 159.0 | -77.0 | 16 | 80.0 |
| 2026-01-16T04:24:00 | 35.6501 | 26.2200 | 117.0 | -2.95 | -9.06 | 1 | 150.0 | 148.8 | -77.6 | 17 | 85.0 |
| 2026-01-16T04:24:00 | 35.6501 | 26.2200 | 149.0 | -6.44 | -8.18 | 1 | 137.8 | 137.1 | -79.7 | 16 | 80.0 |
| 2026-01-16T04:24:00 | 35.6501 | 26.2200 | 181.0 | -0.78 | -1.63 | 1 | 131.3 | 130.5 | -80.0 | 16 | 80.0 |
| 2026-01-16T04:24:00 | 35.6501 | 26.2200 | 213.0 | -2.15 | -9.48 | 1 | 133.5 | 131.0 | -77.6 | 11 | 55.0 |
| 2026-01-16T04:24:00 | 35.6501 | 26.2200 | 245.0 | 5.85 | -1.29 | 1 | 128.3 | 126.8 | -77.4 | 14 | 70.0 |
| 2026-01-16T04:24:00 | 35.6501 | 26.2200 | 277.0 | 1.75 | -0.87 | 1 | 115.6 | 114.9 | -80.8 | 13 | 65.0 |
| 2026-01-16T04:24:00 | 35.6501 | 26.2200 | 309.0 | 7.53 | 0.07 | 1 | 107.9 | 107.9 | -82.1 | 15 | 75.0 |
| 2026-01-16T04:24:00 | 35.6501 | 26.2200 | 341.0 | 0.03 | -2.08 | 1 | 101.8 | 100.7 | -83.7 | 15 | 75.0 |
| 2026-01-16T04:24:00 | 35.6501 | 26.2200 | 373.0 | -1.96 | 5.96 | 1 | 105.6 | 104.6 | -80.4 | 15 | 75.0 |
| 2026-01-16T04:24:00 | 35.6501 | 26.2200 | 405.0 | 3.06 | 7.20 | 1 | 110.4 | 108.8 | -77.2 | 14 | 70.0 |
| 2026-01-16T04:24:00 | 35.6501 | 26.2200 | 437.0 | 7.60 | -0.38 | 1 | 111.2 | 110.1 | -75.2 | 17 | 85.0 |
| 2026-01-16T04:24:00 | 35.6501 | 26.2200 | 469.0 | 1.68 | -2.21 | 1 | 109.4 | 109.3 | -74.2 | 16 | 80.0 |
| 2026-01-16T04:24:00 | 35.6501 | 26.2200 | 501.0 | -6.52 | -1.07 | 1 | 105.8 | 105.1 | -74.8 | 17 | 85.0 |
| 2026-01-16T04:24:00 | 35.6501 | 26.2200 | 533.0 | -7.06 | -8.79 | 1 | 101.6 | 99.8 | -75.8 | 15 | 75.0 |
| 2026-01-16T04:24:00 | 35.6501 | 26.2200 | 565.0 | -2.69 | -5.00 | 1 | 97.5 | 96.4 | -76.1 | 16 | 80.0 |
| 2026-01-16T04:24:00 | 35.6501 | 26.2200 | 597.0 | 1.92 | -5.70 | 1 | 94.0 | 93.2 | -76.3 | 15 | 75.0 |
| 2026-01-16T04:24:00 | 35.6501 | 26.2200 | 629.0 | 3.54 | -6.53 | 1 | 89.1 | 87.9 | -77.5 | 17 | 85.0 |
| 2026-01-16T04:24:00 | 35.6501 | 26.2200 | 661.0 | -3.60 | -1.15 | 1 | 83.4 | 80.9 | -79.4 | 14 | 70.0 |
| 2026-01-16T04:24:00 | 35.6501 | 26.2200 | 693.0 | 3.33 | -10.96 | 1 | 81.2 | 79.0 | -79.1 | 14 | 70.0 |
| 2026-01-16T04:24:00 | 35.6501 | 26.2200 | 725.0 | 2.56 | -9.60 | 1 | 77.3 | 74.0 | -80.2 | 12 | 60.0 |
| 2026-01-16T04:24:00 | 35.6501 | 26.2200 | 757.0 | -4.00 | -0.12 | 1 | 68.4 | 68.1 | -81.7 | 19 | 95.0 |
| 2026-01-16T04:24:00 | 35.6501 | 26.2200 | 789.0 | 1.14 | 2.53 | 1 | 63.9 | 62.4 | -83.2 | 15 | 75.0 |
| 2026-01-16T04:24:00 | 35.6501 | 26.2200 | 821.0 | -0.26 | 4.90 | 1 | 66.3 | 64.9 | -81.0 | 17 | 85.0 |
| 2026-01-16T04:24:00 | 35.6501 | 26.2200 | 853.0 | 0.57 | -3.18 | 1 | 60.2 | 57.5 | -83.3 | 14 | 70.0 |
| 2026-01-16T04:24:00 | 35.6501 | 26.2200 | 885.0 | -2.28 | -2.28 | 1 | 55.5 | 54.4 | -83.6 | 16 | 80.0 |
| 2026-01-16T04:24:00 | 35.6501 | 26.2200 | 917.0 | -6.93 | -3.76 | 1 | 51.4 | 50.5 | -84.4 | 17 | 85.0 |
| 2026-01-16T04:24:00 | 35.6501 | 26.2200 | 949.0 | 7.95 | -3.75 | 1 | 46.1 | 45.4 | -85.6 | 17 | 85.0 |
| 2026-01-16T04:24:00 | 35.6501 | 26.2200 | 981.0 | -0.38 | 1.39 | 1 | 40.2 | 39.5 | -87.3 | 18 | 90.0 |
| 2026-01-16T04:24:00 | 35.6501 | 26.2200 | 1013.0 | -1.77 | 4.13 | 1 | 34.9 | 33.0 | -89.3 | 16 | 80.0 |
| 2026-01-16T04:24:00 | 35.6501 | 26.2200 | 1045.0 | -1.65 | 6.05 | 1 | 26.2 | 25.4 | -91.9 | 18 | 90.0 |
| 2026-01-16T04:24:00 | 35.6501 | 26.2200 | 1077.0 | 2.51 | -1.94 | 1 | 18.9 | 18.2 | -94.5 | 17 | 85.0 |
| 2026-01-16T04:24:00 | 35.6501 | 26.2200 | 1109.0 | -4.25 | -4.06 | 1 | 11.3 | 10.8 | -97.9 | 18 | 90.0 |
| 2026-01-16T04:24:00 | 35.6501 | 26.2200 | 1141.0 | -6.67 | -6.34 | 1 | 9.2 | 8.5 | -98.5 | 18 | 90.0 |
| 2026-01-16T04:24:00 | 35.6501 | 26.2200 | 1173.0 | -3.56 | 0.58 | 1 | 8.4 | 6.9 | -99.0 | 12 | 60.0 |
| 2026-01-16T04:24:00 | 35.6501 | 26.2200 | 1205.0 | -3.69 | -3.46 | 1 | 8.1 | 6.6 | -98.4 | 9 | 45.0 |
| 2026-01-16T04:25:00 | 35.6501 | 26.2200 | 53.0 | -5.41 | 0.04 | 1 | 169.4 | 168.0 | -79.0 | 14 | 73.7 |
| 2026-01-16T04:25:00 | 35.6501 | 26.2200 | 85.0 | -4.48 | 4.39 | 1 | 160.9 | 159.9 | -76.7 | 15 | 78.9 |
| 2026-01-16T04:25:00 | 35.6501 | 26.2200 | 117.0 | -11.45 | -5.85 | 1 | 150.5 | 149.9 | -77.1 | 13 | 68.4 |
| 2026-01-16T04:25:00 | 35.6501 | 26.2200 | 149.0 | -6.04 | -7.20 | 1 | 135.6 | 134.7 | -80.7 | 16 | 84.2 |
| 2026-01-16T04:25:00 | 35.6501 | 26.2200 | 181.0 | 3.36 | -8.73 | 1 | 130.9 | 130.7 | -80.0 | 17 | 89.5 |
| 2026-01-16T04:25:00 | 35.6501 | 26.2200 | 213.0 | -4.60 | -6.92 | 1 | 132.5 | 131.2 | -77.5 | 14 | 73.7 |
| 2026-01-16T04:25:00 | 35.6501 | 26.2200 | 245.0 | -0.56 | -10.61 | 1 | 125.6 | 124.7 | -78.3 | 15 | 78.9 |
| 2026-01-16T04:25:00 | 35.6501 | 26.2200 | 277.0 | 9.39 | -0.88 | 1 | 116.2 | 114.3 | -81.1 | 15 | 78.9 |
| 2026-01-16T04:25:00 | 35.6501 | 26.2200 | 309.0 | 10.21 | 1.40 | 1 | 107.6 | 107.3 | -82.4 | 15 | 78.9 |
| 2026-01-16T04:25:00 | 35.6501 | 26.2200 | 341.0 | 8.10 | 0.74 | 1 | 101.5 | 100.1 | -83.9 | 14 | 73.7 |
| 2026-01-16T04:25:00 | 35.6501 | 26.2200 | 373.0 | -2.47 | 0.14 | 1 | 106.2 | 106.0 | -79.9 | 15 | 78.9 |
| 2026-01-16T04:25:00 | 35.6501 | 26.2200 | 405.0 | -1.86 | 1.17 | 1 | 108.7 | 107.6 | -77.7 | 14 | 73.7 |
| 2026-01-16T04:25:00 | 35.6501 | 26.2200 | 437.0 | 5.60 | -6.55 | 1 | 110.1 | 108.1 | -76.1 | 13 | 68.4 |
| 2026-01-16T04:25:00 | 35.6501 | 26.2200 | 469.0 | -7.11 | 5.44 | 1 | 107.4 | 106.1 | -75.6 | 15 | 78.9 |
| 2026-01-16T04:25:00 | 35.6501 | 26.2200 | 501.0 | 1.69 | 2.47 | 1 | 106.9 | 105.7 | -74.5 | 15 | 78.9 |
| 2026-01-16T04:25:00 | 35.6501 | 26.2200 | 533.0 | -1.14 | -2.97 | 1 | 101.2 | 100.2 | -75.6 | 14 | 73.7 |
| 2026-01-16T04:25:00 | 35.6501 | 26.2200 | 565.0 | 4.36 | -9.97 | 1 | 97.2 | 96.2 | -76.2 | 16 | 84.2 |
| 2026-01-16T04:25:00 | 35.6501 | 26.2200 | 597.0 | 1.07 | -3.59 | 1 | 94.5 | 93.7 | -76.1 | 16 | 84.2 |
| 2026-01-16T04:25:00 | 35.6501 | 26.2200 | 629.0 | -4.94 | -3.58 | 1 | 88.9 | 86.4 | -78.1 | 12 | 63.2 |
| 2026-01-16T04:25:00 | 35.6501 | 26.2200 | 661.0 | -10.68 | -9.57 | 1 | 83.6 | 81.8 | -79.0 | 10 | 52.6 |
| 2026-01-16T04:25:00 | 35.6501 | 26.2200 | 693.0 | 4.66 | -4.41 | 1 | 78.5 | 77.5 | -79.8 | 15 | 78.9 |
| 2026-01-16T04:25:00 | 35.6501 | 26.2200 | 725.0 | 0.38 | 8.51 | 1 | 77.1 | 76.2 | -79.2 | 15 | 78.9 |
| 2026-01-16T04:25:00 | 35.6501 | 26.2200 | 757.0 | -0.89 | -1.28 | 1 | 69.0 | 65.4 | -82.9 | 12 | 63.2 |
| 2026-01-16T04:25:00 | 35.6501 | 26.2200 | 789.0 | -3.28 | -4.36 | 1 | 64.4 | 64.3 | -82.4 | 18 | 94.7 |
| 2026-01-16T04:25:00 | 35.6501 | 26.2200 | 821.0 | -1.68 | -2.16 | 1 | 62.0 | 61.6 | -82.5 | 18 | 94.7 |
| 2026-01-16T04:25:00 | 35.6501 | 26.2200 | 853.0 | -5.30 | 0.85 | 1 | 59.7 | 59.3 | -82.5 | 18 | 94.7 |
| 2026-01-16T04:25:00 | 35.6501 | 26.2200 | 885.0 | 1.08 | -5.93 | 1 | 56.5 | 54.5 | -83.6 | 14 | 73.7 |
| 2026-01-16T04:25:00 | 35.6501 | 26.2200 | 917.0 | -1.10 | 5.77 | 1 | 52.3 | 50.6 | -84.3 | 14 | 73.7 |
| 2026-01-16T04:25:00 | 35.6501 | 26.2200 | 949.0 | -4.47 | 10.24 | 1 | 47.7 | 45.4 | -85.6 | 12 | 63.2 |
| 2026-01-16T04:25:00 | 35.6501 | 26.2200 | 981.0 | -2.33 | 3.10 | 1 | 38.6 | 36.5 | -88.7 | 14 | 73.7 |
| 2026-01-16T04:25:00 | 35.6501 | 26.2200 | 1013.0 | 1.59 | -3.99 | 1 | 34.1 | 33.4 | -89.1 | 16 | 84.2 |
| 2026-01-16T04:25:00 | 35.6501 | 26.2200 | 1045.0 | 1.59 | -3.28 | 1 | 24.7 | 24.5 | -92.3 | 17 | 89.5 |
| 2026-01-16T04:25:00 | 35.6501 | 26.2200 | 1077.0 | 0.56 | -1.86 | 1 | 17.4 | 16.5 | -95.4 | 16 | 84.2 |
| 2026-01-16T04:25:00 | 35.6501 | 26.2200 | 1109.0 | 0.18 | -1.95 | 1 | 11.2 | 11.3 | -97.5 | 17 | 89.5 |
| 2026-01-16T04:25:00 | 35.6501 | 26.2200 | 1141.0 | 2.66 | 1.29 | 1 | 9.1 | 7.7 | -99.2 | 17 | 89.5 |
| 2026-01-16T04:25:00 | 35.6501 | 26.2200 | 1173.0 | -3.42 | 0.53 | 1 | 8.5 | 7.1 | -98.8 | 16 | 84.2 |
| 2026-01-16T04:25:00 | 35.6501 | 26.2200 | 1205.0 | -3.36 | -0.64 | 4 | 8.3 | 7.5 | -97.6 | 4 | 21.1 |
| 2026-01-16T04:25:00 | 35.6501 | 26.2200 | 1237.0 | 9.00 | 0.82 | 4 | 7.9 | 5.9 | -98.1 | 4 | 21.1 |
| 2026-01-16T04:26:00 | 35.6501 | 26.2200 | 53.0 | -7.76 | -3.09 | 1 | 165.9 | 165.2 | -80.2 | 14 | 73.7 |
| 2026-01-16T04:26:00 | 35.6501 | 26.2200 | 85.0 | 9.03 | -0.49 | 1 | 159.4 | 158.9 | -77.1 | 16 | 84.2 |
| 2026-01-16T04:26:00 | 35.6501 | 26.2200 | 117.0 | 0.53 | -7.91 | 1 | 150.0 | 148.4 | -77.8 | 13 | 68.4 |
| 2026-01-16T04:26:00 | 35.6501 | 26.2200 | 149.0 | -8.01 | -6.37 | 1 | 138.6 | 137.5 | -79.5 | 14 | 73.7 |
| 2026-01-16T04:26:00 | 35.6501 | 26.2200 | 181.0 | -2.99 | -7.52 | 1 | 130.8 | 129.7 | -80.4 | 15 | 78.9 |
| 2026-01-16T04:26:00 | 35.6501 | 26.2200 | 213.0 | 1.53 | -7.76 | 1 | 132.0 | 130.0 | -78.0 | 14 | 73.7 |
| 2026-01-16T04:26:00 | 35.6501 | 26.2200 | 245.0 | -1.23 | -8.24 | 1 | 126.8 | 125.1 | -78.2 | 15 | 78.9 |
| 2026-01-16T04:26:00 | 35.6501 | 26.2200 | 277.0 | 17.90 | -7.66 | 1 | 118.3 | 116.6 | -80.0 | 13 | 68.4 |
| 2026-01-16T04:26:00 | 35.6501 | 26.2200 | 309.0 | 11.30 | -7.47 | 1 | 107.0 | 106.9 | -82.6 | 16 | 84.2 |
| 2026-01-16T04:26:00 | 35.6501 | 26.2200 | 341.0 | 4.46 | 3.27 | 1 | 102.7 | 102.2 | -83.0 | 18 | 94.7 |
| 2026-01-16T04:26:00 | 35.6501 | 26.2200 | 373.0 | 9.08 | 2.16 | 1 | 107.4 | 106.9 | -79.5 | 16 | 84.2 |
| 2026-01-16T04:26:00 | 35.6501 | 26.2200 | 405.0 | -2.90 | -6.04 | 1 | 109.0 | 107.8 | -77.6 | 15 | 78.9 |
| 2026-01-16T04:26:00 | 35.6501 | 26.2200 | 437.0 | 3.72 | -6.71 | 1 | 111.1 | 110.6 | -75.0 | 15 | 78.9 |
| 2026-01-16T04:26:00 | 35.6501 | 26.2200 | 469.0 | 2.48 | -4.58 | 1 | 109.4 | 108.3 | -74.7 | 16 | 84.2 |
| 2026-01-16T04:26:00 | 35.6501 | 26.2200 | 501.0 | 4.44 | -2.67 | 1 | 108.0 | 106.6 | -74.1 | 16 | 84.2 |
| 2026-01-16T04:26:00 | 35.6501 | 26.2200 | 533.0 | 5.40 | -3.15 | 1 | 102.2 | 101.1 | -75.3 | 15 | 78.9 |
| 2026-01-16T04:26:00 | 35.6501 | 26.2200 | 565.0 | 3.43 | -9.83 | 1 | 100.3 | 98.6 | -75.1 | 14 | 73.7 |
| 2026-01-16T04:26:00 | 35.6501 | 26.2200 | 597.0 | 7.79 | -2.75 | 1 | 93.6 | 92.9 | -76.4 | 16 | 84.2 |
| 2026-01-16T04:26:00 | 35.6501 | 26.2200 | 629.0 | -4.29 | 1.27 | 1 | 87.6 | 86.2 | -78.2 | 16 | 84.2 |
| 2026-01-16T04:26:00 | 35.6501 | 26.2200 | 661.0 | 7.68 | 0.36 | 1 | 82.2 | 80.6 | -79.5 | 13 | 68.4 |
| 2026-01-16T04:26:00 | 35.6501 | 26.2200 | 693.0 | -1.54 | 5.04 | 1 | 80.4 | 79.5 | -78.9 | 17 | 89.5 |
| 2026-01-16T04:26:00 | 35.6501 | 26.2200 | 725.0 | 7.10 | 0.32 | 1 | 75.9 | 74.3 | -80.1 | 15 | 78.9 |
| 2026-01-16T04:26:00 | 35.6501 | 26.2200 | 757.0 | 5.98 | -4.04 | 1 | 69.5 | 69.2 | -81.3 | 18 | 94.7 |
| 2026-01-16T04:26:00 | 35.6501 | 26.2200 | 789.0 | -1.02 | -7.80 | 1 | 64.3 | 62.7 | -83.0 | 15 | 78.9 |
| 2026-01-16T04:26:00 | 35.6501 | 26.2200 | 821.0 | -0.25 | -1.51 | 1 | 61.4 | 60.6 | -82.9 | 17 | 89.5 |
| 2026-01-16T04:26:00 | 35.6501 | 26.2200 | 853.0 | -3.05 | -8.91 | 1 | 62.1 | 59.8 | -82.3 | 12 | 63.2 |
| 2026-01-16T04:26:00 | 35.6501 | 26.2200 | 885.0 | -7.58 | 2.33 | 1 | 55.7 | 53.5 | -84.0 | 11 | 57.9 |
| 2026-01-16T04:26:00 | 35.6501 | 26.2200 | 917.0 | -2.64 | -2.92 | 1 | 50.1 | 49.7 | -84.7 | 15 | 78.9 |
| 2026-01-16T04:26:00 | 35.6501 | 26.2200 | 949.0 | -1.23 | -6.61 | 1 | 44.9 | 43.6 | -86.4 | 16 | 84.2 |
| 2026-01-16T04:26:00 | 35.6501 | 26.2200 | 981.0 | 6.81 | -4.85 | 1 | 40.3 | 39.1 | -87.5 | 15 | 78.9 |
| 2026-01-16T04:26:00 | 35.6501 | 26.2200 | 1013.0 | 4.94 | -6.47 | 1 | 35.4 | 34.2 | -88.8 | 15 | 78.9 |
| 2026-01-16T04:26:00 | 35.6501 | 26.2200 | 1045.0 | 1.72 | -6.01 | 1 | 25.7 | 24.1 | -92.5 | 16 | 84.2 |
| 2026-01-16T04:26:00 | 35.6501 | 26.2200 | 1077.0 | -5.82 | -3.33 | 1 | 16.9 | 16.2 | -95.6 | 16 | 84.2 |
| 2026-01-16T04:26:00 | 35.6501 | 26.2200 | 1109.0 | -2.62 | -1.67 | 1 | 11.9 | 11.3 | -97.5 | 18 | 94.7 |
| 2026-01-16T04:26:00 | 35.6501 | 26.2200 | 1141.0 | 4.41 | -4.15 | 1 | 9.2 | 8.1 | -98.9 | 17 | 89.5 |
| 2026-01-16T04:26:00 | 35.6501 | 26.2200 | 1173.0 | 3.37 | -2.37 | 1 | 7.0 | 6.3 | -99.5 | 9 | 47.4 |
| 2026-01-16T04:26:00 | 35.6501 | 26.2200 | 1205.0 | 3.77 | -4.53 | 4 | 6.8 | 6.5 | -98.5 | 4 | 21.1 |
| 2026-01-16T04:26:00 | 35.6501 | 26.2200 | 1237.0 | 6.30 | 5.54 | 4 | 6.3 | 6.5 | -97.6 | 3 | 15.8 |
| 2026-01-16T04:27:00 | 35.6501 | 26.2200 | 53.0 | 1.29 | -4.66 | 1 | 165.3 | 164.9 | -80.3 | 19 | 95.0 |
| 2026-01-16T04:27:00 | 35.6501 | 26.2200 | 85.0 | 3.02 | 2.04 | 1 | 155.5 | 155.0 | -78.8 | 17 | 85.0 |
| 2026-01-16T04:27:00 | 35.6501 | 26.2200 | 117.0 | -1.98 | -13.45 | 1 | 148.9 | 147.8 | -78.1 | 16 | 80.0 |
| 2026-01-16T04:27:00 | 35.6501 | 26.2200 | 149.0 | 1.14 | -2.90 | 1 | 137.9 | 136.4 | -80.0 | 14 | 70.0 |
| 2026-01-16T04:27:00 | 35.6501 | 26.2200 | 181.0 | 4.67 | 0.56 | 1 | 132.4 | 131.8 | -79.4 | 17 | 85.0 |
| 2026-01-16T04:27:00 | 35.6501 | 26.2200 | 213.0 | -1.92 | -2.81 | 1 | 130.5 | 129.5 | -78.2 | 17 | 85.0 |
| 2026-01-16T04:27:00 | 35.6501 | 26.2200 | 245.0 | 5.68 | -6.87 | 1 | 126.3 | 126.0 | -77.8 | 18 | 90.0 |
| 2026-01-16T04:27:00 | 35.6501 | 26.2200 | 277.0 | 0.86 | -3.22 | 1 | 116.1 | 115.8 | -80.4 | 18 | 90.0 |
| 2026-01-16T04:27:00 | 35.6501 | 26.2200 | 309.0 | 2.30 | 0.86 | 1 | 109.0 | 107.8 | -82.2 | 15 | 75.0 |
| 2026-01-16T04:27:00 | 35.6501 | 26.2200 | 341.0 | -0.10 | -4.65 | 1 | 102.9 | 102.3 | -83.0 | 17 | 85.0 |
| 2026-01-16T04:27:00 | 35.6501 | 26.2200 | 373.0 | -5.57 | -4.34 | 1 | 106.2 | 104.8 | -80.4 | 15 | 75.0 |
| 2026-01-16T04:27:00 | 35.6501 | 26.2200 | 405.0 | 2.62 | -6.28 | 1 | 108.1 | 107.5 | -77.8 | 18 | 90.0 |
| 2026-01-16T04:27:00 | 35.6501 | 26.2200 | 437.0 | 5.78 | 0.28 | 1 | 110.4 | 109.7 | -75.4 | 16 | 80.0 |
| 2026-01-16T04:27:00 | 35.6501 | 26.2200 | 469.0 | 6.33 | -7.45 | 1 | 108.6 | 108.3 | -74.7 | 18 | 90.0 |
| 2026-01-16T04:27:00 | 35.6501 | 26.2200 | 501.0 | 2.04 | 3.46 | 1 | 107.2 | 105.7 | -74.5 | 15 | 75.0 |
| 2026-01-16T04:27:00 | 35.6501 | 26.2200 | 533.0 | 4.26 | -0.99 | 1 | 103.9 | 101.9 | -74.9 | 14 | 70.0 |
| 2026-01-16T04:27:00 | 35.6501 | 26.2200 | 565.0 | 4.55 | 1.52 | 1 | 97.8 | 97.0 | -75.8 | 15 | 75.0 |
| 2026-01-16T04:27:00 | 35.6501 | 26.2200 | 597.0 | -1.25 | -6.83 | 1 | 93.2 | 91.4 | -77.1 | 15 | 75.0 |
| 2026-01-16T04:27:00 | 35.6501 | 26.2200 | 629.0 | 10.50 | -10.93 | 1 | 85.7 | 83.7 | -79.3 | 14 | 70.0 |
| 2026-01-16T04:27:00 | 35.6501 | 26.2200 | 661.0 | 4.13 | -7.95 | 1 | 82.5 | 79.8 | -79.9 | 15 | 75.0 |
| 2026-01-16T04:27:00 | 35.6501 | 26.2200 | 693.0 | 4.99 | 1.18 | 1 | 79.8 | 78.2 | -79.4 | 13 | 65.0 |
| 2026-01-16T04:27:00 | 35.6501 | 26.2200 | 725.0 | -3.57 | -1.96 | 1 | 76.1 | 74.5 | -80.0 | 17 | 85.0 |
| 2026-01-16T04:27:00 | 35.6501 | 26.2200 | 757.0 | 7.23 | -6.04 | 1 | 68.5 | 68.0 | -81.8 | 18 | 90.0 |
| 2026-01-16T04:27:00 | 35.6501 | 26.2200 | 789.0 | 13.47 | 1.88 | 1 | 63.9 | 62.0 | -83.3 | 15 | 75.0 |
| 2026-01-16T04:27:00 | 35.6501 | 26.2200 | 821.0 | 6.04 | -0.12 | 1 | 63.5 | 61.0 | -82.8 | 14 | 70.0 |
| 2026-01-16T04:27:00 | 35.6501 | 26.2200 | 853.0 | -3.20 | 2.53 | 1 | 59.0 | 57.9 | -83.1 | 17 | 85.0 |
| 2026-01-16T04:27:00 | 35.6501 | 26.2200 | 885.0 | 2.61 | 5.05 | 1 | 55.8 | 54.9 | -83.4 | 18 | 90.0 |
| 2026-01-16T04:27:00 | 35.6501 | 26.2200 | 917.0 | 4.48 | 5.21 | 1 | 50.2 | 49.6 | -84.8 | 18 | 90.0 |
| 2026-01-16T04:27:00 | 35.6501 | 26.2200 | 949.0 | -3.27 | 6.04 | 1 | 45.0 | 44.3 | -86.2 | 17 | 85.0 |
| 2026-01-16T04:27:00 | 35.6501 | 26.2200 | 981.0 | 3.48 | -7.75 | 1 | 40.5 | 39.9 | -87.1 | 17 | 85.0 |
| 2026-01-16T04:27:00 | 35.6501 | 26.2200 | 1013.0 | 0.51 | 0.50 | 1 | 34.9 | 34.1 | -88.8 | 17 | 85.0 |
| 2026-01-16T04:27:00 | 35.6501 | 26.2200 | 1045.0 | 0.11 | -5.73 | 1 | 25.8 | 24.6 | -92.3 | 17 | 85.0 |
| 2026-01-16T04:27:00 | 35.6501 | 26.2200 | 1077.0 | -3.86 | 1.04 | 1 | 17.4 | 17.2 | -95.0 | 19 | 95.0 |
| 2026-01-16T04:27:00 | 35.6501 | 26.2200 | 1109.0 | 0.43 | -3.64 | 1 | 11.9 | 11.1 | -97.6 | 18 | 90.0 |
| 2026-01-16T04:27:00 | 35.6501 | 26.2200 | 1141.0 | -1.78 | -1.84 | 1 | 9.0 | 8.2 | -98.8 | 19 | 95.0 |
| 2026-01-16T04:27:00 | 35.6501 | 26.2200 | 1173.0 | -2.83 | -2.09 | 1 | 7.6 | 6.9 | -99.0 | 11 | 55.0 |
| 2026-01-16T04:27:00 | 35.6501 | 26.2200 | 1205.0 | 1.97 | 2.25 | 4 | 7.9 | 7.4 | -97.6 | 4 | 20.0 |
| 2026-01-16T04:27:00 | 35.6501 | 26.2200 | 1237.0 | 17.82 | -1.26 | 4 | 6.5 | 6.2 | -97.8 | 1 | 5.0 |
| 2026-01-16T04:28:00 | 35.6501 | 26.2200 | 53.0 | 11.41 | -8.98 | 1 | 165.9 | 165.9 | -79.8 | 17 | 89.5 |
| 2026-01-16T04:28:00 | 35.6501 | 26.2200 | 85.0 | 6.15 | -6.72 | 1 | 157.6 | 157.6 | -77.7 | 17 | 89.5 |
| 2026-01-16T04:28:00 | 35.6501 | 26.2200 | 117.0 | -0.95 | -1.34 | 1 | 150.0 | 148.8 | -77.6 | 14 | 73.7 |
| 2026-01-16T04:28:00 | 35.6501 | 26.2200 | 149.0 | -1.17 | -1.21 | 1 | 136.0 | 136.0 | -80.2 | 16 | 84.2 |
| 2026-01-16T04:28:00 | 35.6501 | 26.2200 | 181.0 | 6.77 | -7.79 | 1 | 132.8 | 131.9 | -79.4 | 16 | 84.2 |
| 2026-01-16T04:28:00 | 35.6501 | 26.2200 | 213.0 | -4.99 | -4.21 | 1 | 129.3 | 128.1 | -78.8 | 15 | 78.9 |
| 2026-01-16T04:28:00 | 35.6501 | 26.2200 | 245.0 | 12.49 | -6.04 | 1 | 125.8 | 125.2 | -78.1 | 14 | 73.7 |
| 2026-01-16T04:28:00 | 35.6501 | 26.2200 | 277.0 | 3.52 | 0.94 | 1 | 117.1 | 115.7 | -80.4 | 16 | 84.2 |
| 2026-01-16T04:28:00 | 35.6501 | 26.2200 | 309.0 | 6.43 | -2.36 | 1 | 108.5 | 107.9 | -82.1 | 17 | 89.5 |
| 2026-01-16T04:28:00 | 35.6501 | 26.2200 | 341.0 | -3.32 | -4.17 | 1 | 103.9 | 102.6 | -82.9 | 14 | 73.7 |
| 2026-01-16T04:28:00 | 35.6501 | 26.2200 | 373.0 | 4.81 | -1.53 | 1 | 105.7 | 105.5 | -80.1 | 17 | 89.5 |
| 2026-01-16T04:28:00 | 35.6501 | 26.2200 | 405.0 | 6.56 | -2.44 | 1 | 109.1 | 108.0 | -77.5 | 15 | 78.9 |
| 2026-01-16T04:28:00 | 35.6501 | 26.2200 | 437.0 | -0.45 | -7.55 | 1 | 108.8 | 106.6 | -76.7 | 14 | 73.7 |
| 2026-01-16T04:28:00 | 35.6501 | 26.2200 | 469.0 | -0.82 | -8.13 | 1 | 110.2 | 109.6 | -74.1 | 15 | 78.9 |
| 2026-01-16T04:28:00 | 35.6501 | 26.2200 | 501.0 | -2.98 | 2.53 | 1 | 108.1 | 106.9 | -74.0 | 15 | 78.9 |
| 2026-01-16T04:28:00 | 35.6501 | 26.2200 | 533.0 | -7.03 | 5.15 | 1 | 103.3 | 102.3 | -74.7 | 15 | 78.9 |
| 2026-01-16T04:28:00 | 35.6501 | 26.2200 | 565.0 | -5.77 | 3.14 | 1 | 94.1 | 93.9 | -77.2 | 17 | 89.5 |
| 2026-01-16T04:28:00 | 35.6501 | 26.2200 | 597.0 | -2.36 | -1.53 | 1 | 95.9 | 93.9 | -76.0 | 13 | 68.4 |
| 2026-01-16T04:28:00 | 35.6501 | 26.2200 | 629.0 | 4.36 | 3.69 | 1 | 89.3 | 87.5 | -77.6 | 14 | 73.7 |
| 2026-01-16T04:28:00 | 35.6501 | 26.2200 | 661.0 | -2.20 | 0.14 | 1 | 81.8 | 81.2 | -79.2 | 15 | 78.9 |
| 2026-01-16T04:28:00 | 35.6501 | 26.2200 | 693.0 | 0.79 | -2.55 | 1 | 79.5 | 78.2 | -79.5 | 16 | 84.2 |
| 2026-01-16T04:28:00 | 35.6501 | 26.2200 | 725.0 | -1.56 | -4.69 | 1 | 75.4 | 73.9 | -80.2 | 16 | 84.2 |
| 2026-01-16T04:28:00 | 35.6501 | 26.2200 | 757.0 | -3.03 | -4.77 | 1 | 66.9 | 65.6 | -82.8 | 16 | 84.2 |
| 2026-01-16T04:28:00 | 35.6501 | 26.2200 | 789.0 | 1.67 | -6.09 | 1 | 64.7 | 62.6 | -83.1 | 14 | 73.7 |
| 2026-01-16T04:28:00 | 35.6501 | 26.2200 | 821.0 | -0.92 | -3.17 | 1 | 65.6 | 64.4 | -81.3 | 15 | 78.9 |
| 2026-01-16T04:28:00 | 35.6501 | 26.2200 | 853.0 | -2.98 | -2.56 | 1 | 59.3 | 58.8 | -82.7 | 18 | 94.7 |
| 2026-01-16T04:28:00 | 35.6501 | 26.2200 | 885.0 | -3.39 | -6.96 | 1 | 55.8 | 54.8 | -83.5 | 15 | 78.9 |
| 2026-01-16T04:28:00 | 35.6501 | 26.2200 | 917.0 | -4.10 | -0.50 | 1 | 52.2 | 50.8 | -84.2 | 14 | 73.7 |
| 2026-01-16T04:28:00 | 35.6501 | 26.2200 | 949.0 | 6.26 | -10.25 | 1 | 47.6 | 45.5 | -85.6 | 14 | 73.7 |
| 2026-01-16T04:28:00 | 35.6501 | 26.2200 | 981.0 | -4.88 | -5.31 | 1 | 39.1 | 37.5 | -88.2 | 14 | 73.7 |
| 2026-01-16T04:28:00 | 35.6501 | 26.2200 | 1013.0 | -0.52 | -4.15 | 1 | 35.7 | 34.4 | -88.6 | 16 | 84.2 |
| 2026-01-16T04:28:00 | 35.6501 | 26.2200 | 1045.0 | -1.15 | 6.66 | 1 | 27.1 | 24.4 | -92.3 | 13 | 68.4 |
| 2026-01-16T04:28:00 | 35.6501 | 26.2200 | 1077.0 | 3.90 | 5.32 | 1 | 17.9 | 16.8 | -95.2 | 13 | 68.4 |
| 2026-01-16T04:28:00 | 35.6501 | 26.2200 | 1109.0 | -7.32 | -2.33 | 1 | 11.0 | 9.9 | -98.4 | 15 | 78.9 |
| 2026-01-16T04:28:00 | 35.6501 | 26.2200 | 1141.0 | -2.67 | -0.62 | 1 | 9.0 | 7.9 | -99.0 | 15 | 78.9 |
| 2026-01-16T04:28:00 | 35.6501 | 26.2200 | 1173.0 | -0.10 | 0.01 | 1 | 7.1 | 6.4 | -99.4 | 12 | 63.2 |
| 2026-01-16T04:28:00 | 35.6501 | 26.2200 | 1205.0 | 1.70 | 0.30 | 4 | 7.3 | 6.4 | -98.6 | 4 | 21.1 |
| 2026-01-16T04:28:00 | 35.6501 | 26.2200 | 1237.0 | 2.84 | -0.62 | 4 | 6.7 | 5.0 | -99.1 | 1 | 5.3 |
| 2026-01-16T04:29:00 | 35.6501 | 26.2200 | 53.0 | 0.96 | 2.48 | 1 | 166.1 | 165.4 | -80.1 | 16 | 84.2 |
| 2026-01-16T04:29:00 | 35.6501 | 26.2200 | 85.0 | 2.06 | -0.41 | 1 | 156.0 | 156.0 | -78.4 | 16 | 84.2 |
| 2026-01-16T04:29:00 | 35.6501 | 26.2200 | 117.0 | 8.04 | -10.82 | 1 | 151.2 | 149.4 | -77.4 | 13 | 68.4 |
| 2026-01-16T04:29:00 | 35.6501 | 26.2200 | 149.0 | 2.43 | -2.66 | 1 | 137.8 | 135.6 | -80.3 | 14 | 73.7 |
| 2026-01-16T04:29:00 | 35.6501 | 26.2200 | 181.0 | 5.00 | 2.21 | 1 | 133.8 | 132.6 | -79.1 | 13 | 68.4 |
| 2026-01-16T04:29:00 | 35.6501 | 26.2200 | 213.0 | -10.60 | -1.99 | 1 | 128.2 | 127.4 | -79.2 | 16 | 84.2 |
| 2026-01-16T04:29:00 | 35.6501 | 26.2200 | 245.0 | -0.32 | -2.44 | 1 | 126.7 | 124.7 | -78.4 | 11 | 57.9 |
| 2026-01-16T04:29:00 | 35.6501 | 26.2200 | 277.0 | 2.98 | -9.78 | 1 | 118.0 | 115.6 | -80.5 | 13 | 68.4 |
| 2026-01-16T04:29:00 | 35.6501 | 26.2200 | 309.0 | 5.29 | -7.75 | 1 | 107.5 | 106.9 | -82.6 | 16 | 84.2 |
| 2026-01-16T04:29:00 | 35.6501 | 26.2200 | 341.0 | -3.22 | -1.18 | 1 | 103.4 | 102.9 | -82.7 | 16 | 84.2 |
| 2026-01-16T04:29:00 | 35.6501 | 26.2200 | 373.0 | 9.73 | 8.98 | 1 | 105.8 | 105.0 | -80.3 | 17 | 89.5 |
| 2026-01-16T04:29:00 | 35.6501 | 26.2200 | 405.0 | 0.31 | 0.77 | 1 | 110.4 | 109.5 | -76.9 | 17 | 89.5 |
| 2026-01-16T04:29:00 | 35.6501 | 26.2200 | 437.0 | -3.64 | 3.15 | 1 | 110.0 | 109.7 | -75.4 | 18 | 94.7 |
| 2026-01-16T04:29:00 | 35.6501 | 26.2200 | 469.0 | -6.37 | -6.99 | 1 | 107.6 | 106.9 | -75.3 | 16 | 84.2 |
| 2026-01-16T04:29:00 | 35.6501 | 26.2200 | 501.0 | 3.20 | 5.76 | 1 | 108.4 | 106.4 | -74.2 | 14 | 73.7 |
| 2026-01-16T04:29:00 | 35.6501 | 26.2200 | 533.0 | 15.39 | -0.90 | 1 | 103.1 | 102.1 | -74.8 | 15 | 78.9 |
| 2026-01-16T04:29:00 | 35.6501 | 26.2200 | 565.0 | 8.22 | -4.90 | 1 | 97.2 | 96.6 | -76.0 | 16 | 84.2 |
| 2026-01-16T04:29:00 | 35.6501 | 26.2200 | 597.0 | -4.25 | -0.85 | 1 | 93.0 | 91.0 | -77.3 | 14 | 73.7 |
| 2026-01-16T04:29:00 | 35.6501 | 26.2200 | 629.0 | -13.10 | -0.57 | 1 | 85.3 | 84.2 | -79.1 | 17 | 89.5 |
| 2026-01-16T04:29:00 | 35.6501 | 26.2200 | 661.0 | -9.21 | -3.53 | 1 | 83.5 | 82.4 | -78.7 | 14 | 73.7 |
| 2026-01-16T04:29:00 | 35.6501 | 26.2200 | 693.0 | -4.04 | 8.52 | 1 | 79.8 | 79.5 | -78.9 | 18 | 94.7 |
| 2026-01-16T04:29:00 | 35.6501 | 26.2200 | 725.0 | 2.70 | -0.95 | 1 | 77.4 | 76.1 | -79.3 | 15 | 78.9 |
| 2026-01-16T04:29:00 | 35.6501 | 26.2200 | 757.0 | -5.09 | 0.11 | 1 | 67.4 | 67.4 | -82.0 | 19 | 100.0 |
| 2026-01-16T04:29:00 | 35.6501 | 26.2200 | 789.0 | -1.95 | 7.57 | 1 | 68.0 | 65.4 | -81.9 | 13 | 68.4 |
| 2026-01-16T04:29:00 | 35.6501 | 26.2200 | 821.0 | -2.04 | -4.14 | 1 | 65.1 | 64.5 | -81.2 | 17 | 89.5 |
| 2026-01-16T04:29:00 | 35.6501 | 26.2200 | 853.0 | -3.15 | -1.61 | 1 | 60.7 | 59.4 | -82.4 | 15 | 78.9 |
| 2026-01-16T04:29:00 | 35.6501 | 26.2200 | 885.0 | 4.11 | -4.84 | 1 | 56.7 | 56.3 | -82.8 | 18 | 94.7 |
| 2026-01-16T04:29:00 | 35.6501 | 26.2200 | 917.0 | 2.11 | 2.47 | 1 | 51.9 | 51.2 | -84.1 | 17 | 89.5 |
| 2026-01-16T04:29:00 | 35.6501 | 26.2200 | 949.0 | -1.65 | -9.14 | 1 | 44.7 | 43.8 | -86.4 | 15 | 78.9 |
| 2026-01-16T04:29:00 | 35.6501 | 26.2200 | 981.0 | 3.13 | -4.69 | 1 | 39.3 | 38.0 | -88.0 | 15 | 78.9 |
| 2026-01-16T04:29:00 | 35.6501 | 26.2200 | 1013.0 | -0.88 | 1.35 | 1 | 34.8 | 32.7 | -89.4 | 15 | 78.9 |
| 2026-01-16T04:29:00 | 35.6501 | 26.2200 | 1045.0 | 6.00 | -9.25 | 1 | 27.8 | 25.8 | -91.7 | 14 | 73.7 |
| 2026-01-16T04:29:00 | 35.6501 | 26.2200 | 1077.0 | -0.29 | -1.36 | 1 | 17.3 | 16.1 | -95.6 | 15 | 78.9 |
| 2026-01-16T04:29:00 | 35.6501 | 26.2200 | 1109.0 | -3.92 | -5.51 | 1 | 10.9 | 10.9 | -97.8 | 19 | 100.0 |
| 2026-01-16T04:29:00 | 35.6501 | 26.2200 | 1141.0 | -2.20 | 2.72 | 1 | 9.3 | 8.0 | -99.0 | 17 | 89.5 |
| 2026-01-16T04:29:00 | 35.6501 | 26.2200 | 1173.0 | -5.65 | 1.40 | 1 | 7.2 | 6.6 | -99.3 | 14 | 73.7 |
| 2026-01-16T04:29:00 | 35.6501 | 26.2200 | 1205.0 | 16.97 | 0.79 | 4 | 6.9 | 6.6 | -98.3 | 4 | 21.1 |
| 2026-01-16T04:29:00 | 35.6501 | 26.2200 | 1237.0 | -6.23 | -12.51 | 4 | 6.2 | 5.7 | -98.4 | 4 | 21.1 |
| 2026-01-16T04:30:00 | 35.6501 | 26.2200 | 53.0 | -3.52 | -7.12 | 1 | 161.6 | 161.5 | -81.8 | 17 | 85.0 |
| 2026-01-16T04:30:00 | 35.6501 | 26.2200 | 85.0 | 5.39 | -10.48 | 1 | 157.5 | 156.6 | -78.1 | 16 | 80.0 |
| 2026-01-16T04:30:00 | 35.6501 | 26.2200 | 117.0 | 0.67 | -5.21 | 1 | 151.8 | 148.5 | -77.7 | 10 | 50.0 |
| 2026-01-16T04:30:00 | 35.6501 | 26.2200 | 149.0 | -2.56 | -12.52 | 1 | 136.4 | 136.4 | -80.0 | 16 | 80.0 |
| 2026-01-16T04:30:00 | 35.6501 | 26.2200 | 181.0 | -1.39 | 1.61 | 1 | 132.3 | 131.3 | -79.7 | 14 | 70.0 |
| 2026-01-16T04:30:00 | 35.6501 | 26.2200 | 213.0 | 6.22 | -3.99 | 1 | 130.0 | 128.8 | -78.5 | 14 | 70.0 |
| 2026-01-16T04:30:00 | 35.6501 | 26.2200 | 245.0 | 10.97 | -6.75 | 1 | 127.1 | 125.2 | -78.1 | 15 | 75.0 |
| 2026-01-16T04:30:00 | 35.6501 | 26.2200 | 277.0 | 2.29 | -4.59 | 1 | 118.9 | 116.1 | -80.3 | 12 | 60.0 |
| 2026-01-16T04:30:00 | 35.6501 | 26.2200 | 309.0 | 8.97 | -2.18 | 1 | 109.8 | 108.8 | -81.7 | 17 | 85.0 |
| 2026-01-16T04:30:00 | 35.6501 | 26.2200 | 341.0 | 1.78 | -5.32 | 1 | 102.8 | 102.1 | -83.1 | 16 | 80.0 |
| 2026-01-16T04:30:00 | 35.6501 | 26.2200 | 373.0 | 4.55 | 3.10 | 1 | 106.1 | 105.5 | -80.1 | 14 | 70.0 |
| 2026-01-16T04:30:00 | 35.6501 | 26.2200 | 405.0 | -0.88 | 0.54 | 1 | 107.5 | 106.6 | -78.1 | 15 | 75.0 |
| 2026-01-16T04:30:00 | 35.6501 | 26.2200 | 437.0 | 3.39 | 6.02 | 1 | 109.8 | 108.9 | -75.8 | 14 | 70.0 |
| 2026-01-16T04:30:00 | 35.6501 | 26.2200 | 469.0 | 0.38 | -4.38 | 1 | 107.9 | 107.6 | -75.0 | 17 | 85.0 |
| 2026-01-16T04:30:00 | 35.6501 | 26.2200 | 501.0 | -2.22 | 1.71 | 1 | 106.5 | 105.9 | -74.4 | 16 | 80.0 |
| 2026-01-16T04:30:00 | 35.6501 | 26.2200 | 533.0 | -3.48 | -6.15 | 1 | 100.4 | 100.9 | -75.4 | 17 | 85.0 |
| 2026-01-16T04:30:00 | 35.6501 | 26.2200 | 565.0 | -1.23 | -3.74 | 1 | 98.0 | 97.6 | -75.6 | 17 | 85.0 |
| 2026-01-16T04:30:00 | 35.6501 | 26.2200 | 597.0 | -3.99 | -12.92 | 1 | 93.8 | 92.2 | -76.8 | 15 | 75.0 |
| 2026-01-16T04:30:00 | 35.6501 | 26.2200 | 629.0 | 6.26 | -2.14 | 1 | 88.9 | 86.9 | -77.9 | 14 | 70.0 |
| 2026-01-16T04:30:00 | 35.6501 | 26.2200 | 661.0 | -2.54 | -0.95 | 1 | 81.8 | 81.2 | -79.2 | 17 | 85.0 |
| 2026-01-16T04:30:00 | 35.6501 | 26.2200 | 693.0 | -1.34 | 0.43 | 1 | 79.2 | 77.8 | -79.7 | 11 | 55.0 |
| 2026-01-16T04:30:00 | 35.6501 | 26.2200 | 725.0 | 3.02 | -6.14 | 1 | 74.1 | 72.0 | -81.1 | 14 | 70.0 |
| 2026-01-16T04:30:00 | 35.6501 | 26.2200 | 757.0 | 1.22 | -1.91 | 1 | 65.5 | 63.4 | -83.8 | 13 | 65.0 |
| 2026-01-16T04:30:00 | 35.6501 | 26.2200 | 789.0 | 3.77 | -6.96 | 1 | 64.0 | 63.2 | -82.8 | 14 | 70.0 |
| 2026-01-16T04:30:00 | 35.6501 | 26.2200 | 821.0 | -0.49 | 7.02 | 1 | 64.9 | 62.9 | -81.9 | 13 | 65.0 |
| 2026-01-16T04:30:00 | 35.6501 | 26.2200 | 853.0 | -2.07 | -4.59 | 1 | 61.6 | 59.6 | -82.4 | 14 | 70.0 |
| 2026-01-16T04:30:00 | 35.6501 | 26.2200 | 885.0 | -1.12 | -1.97 | 1 | 55.8 | 55.0 | -83.4 | 16 | 80.0 |
| 2026-01-16T04:30:00 | 35.6501 | 26.2200 | 917.0 | -5.74 | -0.86 | 1 | 52.0 | 50.9 | -84.2 | 16 | 80.0 |
| 2026-01-16T04:30:00 | 35.6501 | 26.2200 | 949.0 | 2.52 | 4.96 | 1 | 45.3 | 44.3 | -86.1 | 13 | 65.0 |
| 2026-01-16T04:30:00 | 35.6501 | 26.2200 | 981.0 | -2.62 | 0.20 | 1 | 40.3 | 39.5 | -87.3 | 14 | 70.0 |
| 2026-01-16T04:30:00 | 35.6501 | 26.2200 | 1013.0 | 3.80 | 0.81 | 1 | 34.1 | 34.1 | -88.8 | 15 | 75.0 |
| 2026-01-16T04:30:00 | 35.6501 | 26.2200 | 1045.0 | 3.44 | -11.86 | 1 | 26.2 | 24.6 | -92.2 | 14 | 70.0 |
| 2026-01-16T04:30:00 | 35.6501 | 26.2200 | 1077.0 | -2.68 | -5.03 | 1 | 17.3 | 15.9 | -95.7 | 14 | 70.0 |
| 2026-01-16T04:30:00 | 35.6501 | 26.2200 | 1109.0 | -2.74 | -2.74 | 1 | 12.7 | 11.0 | -97.7 | 15 | 75.0 |
| 2026-01-16T04:30:00 | 35.6501 | 26.2200 | 1141.0 | 5.36 | -1.28 | 1 | 9.0 | 7.6 | -99.2 | 15 | 75.0 |
| 2026-01-16T04:30:00 | 35.6501 | 26.2200 | 1173.0 | 3.40 | -1.02 | 1 | 7.5 | 6.2 | -99.6 | 14 | 70.0 |
| 2026-01-16T04:30:00 | 35.6501 | 26.2200 | 1205.0 | -1.76 | 4.42 | 4 | 7.8 | 7.5 | -97.6 | 5 | 25.0 |
| 2026-01-16T04:30:00 | 35.6501 | 26.2200 | 1237.0 | 3.22 | -9.39 | 4 | 6.9 | 6.4 | -97.7 | 4 | 20.0 |
| 2026-01-16T04:31:00 | 35.6501 | 26.2200 | 53.0 | 1.30 | -4.92 | 1 | 167.6 | 166.9 | -79.4 | 17 | 89.5 |
| 2026-01-16T04:31:00 | 35.6501 | 26.2200 | 85.0 | 7.88 | -6.54 | 1 | 156.1 | 155.8 | -78.5 | 15 | 78.9 |
| 2026-01-16T04:31:00 | 35.6501 | 26.2200 | 117.0 | -0.62 | -17.15 | 1 | 148.0 | 148.0 | -78.0 | 17 | 89.5 |
| 2026-01-16T04:31:00 | 35.6501 | 26.2200 | 149.0 | -9.02 | -4.48 | 1 | 136.0 | 134.7 | -80.7 | 13 | 68.4 |
| 2026-01-16T04:31:00 | 35.6501 | 26.2200 | 181.0 | 5.68 | 2.91 | 1 | 130.5 | 129.2 | -80.6 | 15 | 78.9 |
| 2026-01-16T04:31:00 | 35.6501 | 26.2200 | 213.0 | 5.29 | -5.79 | 1 | 131.6 | 130.1 | -78.0 | 15 | 78.9 |
| 2026-01-16T04:31:00 | 35.6501 | 26.2200 | 245.0 | 3.18 | 1.87 | 1 | 125.9 | 124.5 | -78.4 | 15 | 78.9 |
| 2026-01-16T04:31:00 | 35.6501 | 26.2200 | 277.0 | 3.70 | 3.33 | 1 | 118.7 | 117.8 | -79.5 | 15 | 78.9 |
| 2026-01-16T04:31:00 | 35.6501 | 26.2200 | 309.0 | 1.76 | 4.91 | 1 | 108.0 | 107.0 | -82.5 | 14 | 73.7 |
| 2026-01-16T04:31:00 | 35.6501 | 26.2200 | 341.0 | 5.40 | -0.12 | 1 | 102.1 | 101.8 | -83.2 | 17 | 89.5 |
| 2026-01-16T04:31:00 | 35.6501 | 26.2200 | 373.0 | 0.87 | 2.48 | 1 | 105.6 | 105.3 | -80.2 | 17 | 89.5 |
| 2026-01-16T04:31:00 | 35.6501 | 26.2200 | 405.0 | -5.27 | 4.70 | 1 | 109.0 | 108.3 | -77.4 | 16 | 84.2 |
| 2026-01-16T04:31:00 | 35.6501 | 26.2200 | 437.0 | -0.93 | 6.96 | 1 | 109.1 | 109.1 | -75.7 | 19 | 100.0 |
| 2026-01-16T04:31:00 | 35.6501 | 26.2200 | 469.0 | 1.37 | 0.45 | 1 | 106.5 | 106.5 | -75.4 | 16 | 84.2 |
| 2026-01-16T04:31:00 | 35.6501 | 26.2200 | 501.0 | 1.59 | 7.63 | 1 | 105.8 | 105.2 | -74.7 | 18 | 94.7 |
| 2026-01-16T04:31:00 | 35.6501 | 26.2200 | 533.0 | -8.29 | -2.36 | 1 | 99.3 | 99.3 | -76.0 | 18 | 94.7 |
| 2026-01-16T04:31:00 | 35.6501 | 26.2200 | 565.0 | -2.00 | -2.86 | 1 | 98.1 | 96.3 | -76.1 | 16 | 84.2 |
| 2026-01-16T04:31:00 | 35.6501 | 26.2200 | 597.0 | -1.61 | -1.20 | 1 | 90.4 | 89.4 | -78.0 | 15 | 78.9 |
| 2026-01-16T04:31:00 | 35.6501 | 26.2200 | 629.0 | 1.98 | -5.29 | 1 | 87.3 | 86.2 | -78.2 | 16 | 84.2 |
| 2026-01-16T04:31:00 | 35.6501 | 26.2200 | 661.0 | 2.91 | -0.25 | 1 | 80.7 | 80.2 | -79.7 | 17 | 89.5 |
| 2026-01-16T04:31:00 | 35.6501 | 26.2200 | 693.0 | 3.38 | -2.39 | 1 | 79.2 | 78.6 | -79.3 | 17 | 89.5 |
| 2026-01-16T04:31:00 | 35.6501 | 26.2200 | 725.0 | 12.52 | -2.65 | 1 | 74.4 | 74.0 | -80.2 | 18 | 94.7 |
| 2026-01-16T04:31:00 | 35.6501 | 26.2200 | 757.0 | -4.54 | 2.64 | 1 | 71.0 | 68.0 | -81.8 | 10 | 52.6 |
| 2026-01-16T04:31:00 | 35.6501 | 26.2200 | 789.0 | -2.60 | 2.66 | 1 | 66.4 | 62.6 | -83.1 | 12 | 63.2 |
| 2026-01-16T04:31:00 | 35.6501 | 26.2200 | 821.0 | 3.88 | 0.43 | 1 | 64.2 | 62.8 | -82.0 | 14 | 73.7 |
| 2026-01-16T04:31:00 | 35.6501 | 26.2200 | 853.0 | -0.26 | -6.05 | 1 | 59.9 | 58.4 | -82.9 | 16 | 84.2 |
| 2026-01-16T04:31:00 | 35.6501 | 26.2200 | 885.0 | 7.18 | -1.32 | 1 | 56.5 | 54.3 | -83.7 | 13 | 68.4 |
| 2026-01-16T04:31:00 | 35.6501 | 26.2200 | 917.0 | 2.76 | -2.06 | 1 | 52.0 | 51.2 | -84.1 | 17 | 89.5 |
| 2026-01-16T04:31:00 | 35.6501 | 26.2200 | 949.0 | 2.54 | -6.23 | 1 | 46.0 | 45.4 | -85.6 | 15 | 78.9 |
| 2026-01-16T04:31:00 | 35.6501 | 26.2200 | 981.0 | 5.04 | 0.68 | 1 | 41.0 | 39.3 | -87.4 | 16 | 84.2 |
| 2026-01-16T04:31:00 | 35.6501 | 26.2200 | 1013.0 | -1.78 | 1.15 | 1 | 35.4 | 34.1 | -88.8 | 14 | 73.7 |
| 2026-01-16T04:31:00 | 35.6501 | 26.2200 | 1045.0 | -6.57 | 2.52 | 1 | 27.1 | 25.4 | -91.9 | 14 | 73.7 |
| 2026-01-16T04:31:00 | 35.6501 | 26.2200 | 1077.0 | -5.96 | -4.34 | 1 | 15.8 | 15.0 | -96.2 | 17 | 89.5 |
| 2026-01-16T04:31:00 | 35.6501 | 26.2200 | 1109.0 | 4.78 | 2.00 | 1 | 11.5 | 11.0 | -97.7 | 17 | 89.5 |
| 2026-01-16T04:31:00 | 35.6501 | 26.2200 | 1141.0 | -4.27 | -2.19 | 1 | 8.8 | 7.6 | -99.3 | 18 | 94.7 |
| 2026-01-16T04:31:00 | 35.6501 | 26.2200 | 1173.0 | -0.79 | -5.27 | 1 | 7.3 | 6.7 | -99.2 | 14 | 73.7 |
| 2026-01-16T04:31:00 | 35.6501 | 26.2200 | 1205.0 | -0.56 | -0.08 | 4 | 7.2 | 7.5 | -97.6 | 4 | 21.1 |
| 2026-01-16T04:31:00 | 35.6501 | 26.2200 | 1237.0 | 12.01 | -5.97 | 4 | 6.0 | 5.2 | -98.8 | 1 | 5.3 |
| 2026-01-16T04:32:00 | 35.6501 | 26.2200 | 53.0 | 3.94 | -4.42 | 1 | 167.4 | 166.7 | -79.5 | 13 | 68.4 |
| 2026-01-16T04:32:00 | 35.6501 | 26.2200 | 85.0 | 2.16 | -3.00 | 1 | 155.1 | 154.7 | -78.9 | 14 | 73.7 |
| 2026-01-16T04:32:00 | 35.6501 | 26.2200 | 117.0 | -5.15 | -6.60 | 1 | 148.4 | 147.1 | -78.3 | 16 | 84.2 |
| 2026-01-16T04:32:00 | 35.6501 | 26.2200 | 149.0 | 0.10 | -3.59 | 1 | 135.9 | 134.8 | -80.7 | 16 | 84.2 |
| 2026-01-16T04:32:00 | 35.6501 | 26.2200 | 181.0 | 8.27 | -4.64 | 1 | 131.9 | 131.5 | -79.6 | 14 | 73.7 |
| 2026-01-16T04:32:00 | 35.6501 | 26.2200 | 213.0 | 2.12 | -0.34 | 1 | 130.4 | 129.3 | -78.3 | 15 | 78.9 |
| 2026-01-16T04:32:00 | 35.6501 | 26.2200 | 245.0 | 6.35 | -11.36 | 1 | 127.9 | 124.8 | -78.3 | 11 | 57.9 |
| 2026-01-16T04:32:00 | 35.6501 | 26.2200 | 277.0 | 6.48 | -10.89 | 1 | 119.0 | 118.3 | -79.3 | 16 | 84.2 |
| 2026-01-16T04:32:00 | 35.6501 | 26.2200 | 309.0 | -0.56 | -3.84 | 1 | 108.7 | 108.7 | -81.8 | 19 | 100.0 |
| 2026-01-16T04:32:00 | 35.6501 | 26.2200 | 341.0 | 6.21 | -6.29 | 1 | 101.0 | 101.0 | -83.5 | 18 | 94.7 |
| 2026-01-16T04:32:00 | 35.6501 | 26.2200 | 373.0 | -7.43 | 7.92 | 1 | 104.3 | 103.9 | -80.8 | 18 | 94.7 |
| 2026-01-16T04:32:00 | 35.6501 | 26.2200 | 405.0 | -1.28 | -6.57 | 1 | 107.4 | 107.1 | -77.9 | 17 | 89.5 |
| 2026-01-16T04:32:00 | 35.6501 | 26.2200 | 437.0 | 1.14 | 7.87 | 1 | 108.2 | 107.3 | -76.4 | 16 | 84.2 |
| 2026-01-16T04:32:00 | 35.6501 | 26.2200 | 469.0 | -0.37 | 1.20 | 1 | 107.9 | 106.3 | -75.5 | 15 | 78.9 |
| 2026-01-16T04:32:00 | 35.6501 | 26.2200 | 501.0 | 4.09 | 0.23 | 1 | 106.1 | 104.4 | -75.1 | 16 | 84.2 |
| 2026-01-16T04:32:00 | 35.6501 | 26.2200 | 533.0 | 9.37 | -2.39 | 1 | 102.1 | 99.1 | -76.1 | 13 | 68.4 |
| 2026-01-16T04:32:00 | 35.6501 | 26.2200 | 565.0 | 5.97 | -10.47 | 1 | 96.5 | 95.9 | -76.3 | 17 | 89.5 |
| 2026-01-16T04:32:00 | 35.6501 | 26.2200 | 597.0 | -4.38 | -6.14 | 1 | 93.0 | 90.8 | -77.4 | 14 | 73.7 |
| 2026-01-16T04:32:00 | 35.6501 | 26.2200 | 629.0 | 1.68 | -0.92 | 1 | 85.9 | 85.0 | -78.7 | 16 | 84.2 |
| 2026-01-16T04:32:00 | 35.6501 | 26.2200 | 661.0 | -0.66 | -0.78 | 1 | 83.5 | 81.5 | -79.1 | 13 | 68.4 |
| 2026-01-16T04:32:00 | 35.6501 | 26.2200 | 693.0 | 7.11 | 0.49 | 1 | 80.7 | 79.3 | -79.0 | 14 | 73.7 |
| 2026-01-16T04:32:00 | 35.6501 | 26.2200 | 725.0 | -0.23 | -5.09 | 1 | 74.2 | 71.4 | -81.4 | 13 | 68.4 |
| 2026-01-16T04:32:00 | 35.6501 | 26.2200 | 757.0 | -4.15 | -4.57 | 1 | 67.9 | 67.4 | -82.0 | 18 | 94.7 |
| 2026-01-16T04:32:00 | 35.6501 | 26.2200 | 789.0 | 7.27 | 0.17 | 1 | 63.7 | 63.3 | -82.8 | 16 | 84.2 |
| 2026-01-16T04:32:00 | 35.6501 | 26.2200 | 821.0 | 7.21 | -5.35 | 1 | 62.8 | 62.4 | -82.2 | 17 | 89.5 |
| 2026-01-16T04:32:00 | 35.6501 | 26.2200 | 853.0 | -0.32 | 0.76 | 1 | 59.6 | 59.6 | -82.4 | 18 | 94.7 |
| 2026-01-16T04:32:00 | 35.6501 | 26.2200 | 885.0 | 5.19 | 0.26 | 1 | 55.6 | 55.1 | -83.3 | 18 | 94.7 |
| 2026-01-16T04:32:00 | 35.6501 | 26.2200 | 917.0 | -0.59 | -6.20 | 1 | 49.6 | 48.5 | -85.2 | 17 | 89.5 |
| 2026-01-16T04:32:00 | 35.6501 | 26.2200 | 949.0 | 2.62 | 5.28 | 1 | 45.2 | 43.5 | -86.5 | 15 | 78.9 |
| 2026-01-16T04:32:00 | 35.6501 | 26.2200 | 981.0 | -0.85 | 0.86 | 1 | 39.7 | 39.0 | -87.5 | 16 | 84.2 |
| 2026-01-16T04:32:00 | 35.6501 | 26.2200 | 1013.0 | 1.04 | -1.89 | 1 | 35.3 | 33.8 | -88.9 | 15 | 78.9 |
| 2026-01-16T04:32:00 | 35.6501 | 26.2200 | 1045.0 | 3.00 | -2.91 | 1 | 24.6 | 23.5 | -92.8 | 17 | 89.5 |
| 2026-01-16T04:32:00 | 35.6501 | 26.2200 | 1077.0 | -3.97 | -0.73 | 1 | 15.6 | 15.1 | -96.2 | 16 | 84.2 |
| 2026-01-16T04:32:00 | 35.6501 | 26.2200 | 1109.0 | 3.77 | -3.69 | 1 | 10.9 | 10.7 | -97.9 | 17 | 89.5 |
| 2026-01-16T04:32:00 | 35.6501 | 26.2200 | 1141.0 | 4.51 | -4.14 | 1 | 8.5 | 8.0 | -98.9 | 15 | 78.9 |
| 2026-01-16T04:32:00 | 35.6501 | 26.2200 | 1173.0 | 1.54 | -0.28 | 1 | 7.5 | 7.1 | -98.8 | 13 | 68.4 |
| 2026-01-16T04:32:00 | 35.6501 | 26.2200 | 1205.0 | 4.69 | 1.96 | 1 | 7.3 | 7.0 | -98.0 | 8 | 42.1 |
| 2026-01-16T04:32:00 | 35.6501 | 26.2200 | 1237.0 | 14.87 | -1.12 | 4 | 6.9 | 4.2 | -100.0 | 1 | 5.3 |
| 2026-01-16T04:33:00 | 35.6501 | 26.2200 | 53.0 | -4.93 | 7.23 | 1 | 164.2 | 163.8 | -80.8 | 9 | 57.9 |
| 2026-01-16T04:33:00 | 35.6501 | 26.2200 | 85.0 | 6.27 | -7.39 | 1 | 156.0 | 155.8 | -78.5 | 8 | 52.6 |
| 2026-01-16T04:33:00 | 35.6501 | 26.2200 | 117.0 | -7.75 | -12.92 | 1 | 148.7 | 147.5 | -78.2 | 9 | 52.6 |
| 2026-01-16T04:33:00 | 35.6501 | 26.2200 | 149.0 | -7.23 | 1.18 | 1 | 137.5 | 134.5 | -80.8 | 7 | 42.1 |
| 2026-01-16T04:33:00 | 35.6501 | 26.2200 | 181.0 | 0.73 | -7.80 | 1 | 132.7 | 131.4 | -79.7 | 9 | 52.6 |
| 2026-01-16T04:33:00 | 35.6501 | 26.2200 | 213.0 | 0.60 | -16.56 | 1 | 130.5 | 129.6 | -78.2 | 7 | 47.4 |
| 2026-01-16T04:33:00 | 35.6501 | 26.2200 | 245.0 | 10.91 | -0.93 | 1 | 125.6 | 125.5 | -78.0 | 9 | 52.6 |
| 2026-01-16T04:33:00 | 35.6501 | 26.2200 | 277.0 | 2.48 | -0.54 | 1 | 118.4 | 117.5 | -79.6 | 10 | 57.9 |
| 2026-01-16T04:33:00 | 35.6501 | 26.2200 | 309.0 | 10.91 | -18.80 | 1 | 108.0 | 107.5 | -82.3 | 8 | 47.4 |
| 2026-01-16T04:33:00 | 35.6501 | 26.2200 | 341.0 | 5.79 | 3.35 | 1 | 106.0 | 104.2 | -82.1 | 7 | 42.1 |
| 2026-01-16T04:33:00 | 35.6501 | 26.2200 | 373.0 | -0.60 | -12.93 | 1 | 104.2 | 101.6 | -81.8 | 8 | 47.4 |
| 2026-01-16T04:33:00 | 35.6501 | 26.2200 | 405.0 | 3.50 | -3.72 | 1 | 108.9 | 107.8 | -77.6 | 8 | 52.6 |
| 2026-01-16T04:33:00 | 35.6501 | 26.2200 | 437.0 | -2.39 | -0.92 | 1 | 109.1 | 107.6 | -76.3 | 9 | 57.9 |
| 2026-01-16T04:33:00 | 35.6501 | 26.2200 | 469.0 | 7.50 | 4.29 | 1 | 107.3 | 106.0 | -75.7 | 6 | 42.1 |
| 2026-01-16T04:33:00 | 35.6501 | 26.2200 | 501.0 | -0.26 | -6.73 | 1 | 106.7 | 105.2 | -74.7 | 8 | 52.6 |
| 2026-01-16T04:33:00 | 35.6501 | 26.2200 | 533.0 | -7.16 | 3.02 | 1 | 102.8 | 101.9 | -74.9 | 9 | 57.9 |
| 2026-01-16T04:33:00 | 35.6501 | 26.2200 | 565.0 | -4.57 | 20.49 | 1 | 96.8 | 96.0 | -76.3 | 9 | 57.9 |
| 2026-01-16T04:33:00 | 35.6501 | 26.2200 | 597.0 | -4.66 | -0.80 | 1 | 92.3 | 91.0 | -77.3 | 9 | 47.4 |
| 2026-01-16T04:33:00 | 35.6501 | 26.2200 | 629.0 | 8.92 | -12.49 | 1 | 87.7 | 84.9 | -78.8 | 7 | 42.1 |
| 2026-01-16T04:33:00 | 35.6501 | 26.2200 | 661.0 | 5.79 | -7.21 | 1 | 80.6 | 79.2 | -80.2 | 9 | 52.6 |
| 2026-01-16T04:33:00 | 35.6501 | 26.2200 | 693.0 | -2.48 | -3.51 | 1 | 79.0 | 77.4 | -79.8 | 8 | 47.4 |
| 2026-01-16T04:33:00 | 35.6501 | 26.2200 | 725.0 | -3.08 | -2.96 | 1 | 76.8 | 74.0 | -80.2 | 5 | 31.6 |
| 2026-01-16T04:33:00 | 35.6501 | 26.2200 | 757.0 | -4.00 | -6.48 | 1 | 66.9 | 66.2 | -82.5 | 9 | 57.9 |
| 2026-01-16T04:33:00 | 35.6501 | 26.2200 | 789.0 | -1.70 | -6.58 | 1 | 62.4 | 60.4 | -84.1 | 5 | 36.8 |
| 2026-01-16T04:33:00 | 35.6501 | 26.2200 | 821.0 | 16.28 | -0.69 | 1 | 64.6 | 61.8 | -82.4 | 7 | 42.1 |
| 2026-01-16T04:33:00 | 35.6501 | 26.2200 | 853.0 | -0.34 | -11.52 | 1 | 60.4 | 57.5 | -83.3 | 5 | 36.8 |
| 2026-01-16T04:33:00 | 35.6501 | 26.2200 | 885.0 | -1.64 | -3.43 | 1 | 57.3 | 55.4 | -83.2 | 8 | 47.4 |
| 2026-01-16T04:33:00 | 35.6501 | 26.2200 | 917.0 | 1.56 | -5.62 | 1 | 50.8 | 49.6 | -84.8 | 9 | 57.9 |
| 2026-01-16T04:33:00 | 35.6501 | 26.2200 | 949.0 | -10.25 | -8.66 | 1 | 44.8 | 44.0 | -86.2 | 9 | 57.9 |
| 2026-01-16T04:33:00 | 35.6501 | 26.2200 | 981.0 | -9.42 | 4.16 | 1 | 39.5 | 38.2 | -87.9 | 9 | 57.9 |
| 2026-01-16T04:33:00 | 35.6501 | 26.2200 | 1013.0 | -1.07 | 1.81 | 1 | 33.7 | 32.4 | -89.6 | 9 | 57.9 |
| 2026-01-16T04:33:00 | 35.6501 | 26.2200 | 1045.0 | -4.37 | 6.68 | 1 | 24.3 | 23.4 | -92.8 | 10 | 63.2 |
| 2026-01-16T04:33:00 | 35.6501 | 26.2200 | 1077.0 | 0.90 | -1.15 | 1 | 17.0 | 15.6 | -95.9 | 9 | 57.9 |
| 2026-01-16T04:33:00 | 35.6501 | 26.2200 | 1109.0 | 1.05 | -6.06 | 1 | 10.2 | 9.8 | -98.5 | 11 | 68.4 |
| 2026-01-16T04:33:00 | 35.6501 | 26.2200 | 1141.0 | -0.79 | -0.43 | 1 | 7.5 | 7.6 | -99.3 | 10 | 63.2 |
| 2026-01-16T04:33:00 | 35.6501 | 26.2200 | 1173.0 | 3.86 | -9.48 | 1 | 6.9 | 7.1 | -98.8 | 8 | 52.6 |
| 2026-01-16T04:33:00 | 35.6501 | 26.2200 | 1205.0 | -0.97 | -19.01 | 4 | 7.2 | 4.5 | -100.5 | 1 | 5.3 |
| 2026-01-16T04:34:00 | 35.6501 | 26.2200 | 53.0 | 9.58 | -7.42 | 1 | 168.1 | 167.3 | -79.2 | 14 | 70.0 |
| 2026-01-16T04:34:00 | 35.6501 | 26.2200 | 85.0 | -3.42 | -7.95 | 1 | 155.3 | 154.5 | -79.0 | 15 | 75.0 |
| 2026-01-16T04:34:00 | 35.6501 | 26.2200 | 117.0 | 7.53 | -7.90 | 1 | 147.6 | 146.9 | -78.4 | 18 | 90.0 |
| 2026-01-16T04:34:00 | 35.6501 | 26.2200 | 149.0 | -5.23 | 5.57 | 1 | 136.0 | 134.6 | -80.8 | 13 | 65.0 |
| 2026-01-16T04:34:00 | 35.6501 | 26.2200 | 181.0 | 3.40 | 6.29 | 1 | 135.2 | 132.7 | -79.1 | 12 | 60.0 |
| 2026-01-16T04:34:00 | 35.6501 | 26.2200 | 213.0 | 0.37 | 0.66 | 1 | 130.4 | 128.8 | -78.5 | 17 | 85.0 |
| 2026-01-16T04:34:00 | 35.6501 | 26.2200 | 245.0 | 10.86 | -5.06 | 1 | 125.3 | 124.1 | -78.6 | 17 | 85.0 |
| 2026-01-16T04:34:00 | 35.6501 | 26.2200 | 277.0 | 16.25 | -3.74 | 1 | 120.4 | 118.2 | -79.3 | 15 | 75.0 |
| 2026-01-16T04:34:00 | 35.6501 | 26.2200 | 309.0 | 6.23 | -5.47 | 1 | 111.0 | 109.4 | -81.5 | 15 | 75.0 |
| 2026-01-16T04:34:00 | 35.6501 | 26.2200 | 341.0 | 0.32 | 2.43 | 1 | 106.1 | 104.4 | -82.1 | 15 | 75.0 |
| 2026-01-16T04:34:00 | 35.6501 | 26.2200 | 373.0 | 6.22 | 4.66 | 1 | 106.4 | 104.8 | -80.4 | 14 | 70.0 |
| 2026-01-16T04:34:00 | 35.6501 | 26.2200 | 405.0 | 3.17 | -4.82 | 1 | 106.9 | 105.9 | -78.4 | 14 | 70.0 |
| 2026-01-16T04:34:00 | 35.6501 | 26.2200 | 437.0 | 2.52 | 0.34 | 1 | 108.0 | 106.6 | -76.7 | 14 | 70.0 |
| 2026-01-16T04:34:00 | 35.6501 | 26.2200 | 469.0 | 5.56 | -6.24 | 1 | 108.6 | 106.4 | -75.5 | 14 | 70.0 |
| 2026-01-16T04:34:00 | 35.6501 | 26.2200 | 501.0 | -1.35 | -4.85 | 1 | 105.2 | 104.4 | -75.1 | 18 | 90.0 |
| 2026-01-16T04:34:00 | 35.6501 | 26.2200 | 533.0 | -0.44 | -4.20 | 1 | 100.9 | 100.5 | -75.5 | 18 | 90.0 |
| 2026-01-16T04:34:00 | 35.6501 | 26.2200 | 565.0 | 3.95 | -5.17 | 1 | 99.6 | 97.4 | -75.6 | 12 | 60.0 |
| 2026-01-16T04:34:00 | 35.6501 | 26.2200 | 597.0 | -6.97 | -3.62 | 1 | 94.6 | 93.1 | -76.3 | 16 | 80.0 |
| 2026-01-16T04:34:00 | 35.6501 | 26.2200 | 629.0 | -3.68 | -7.64 | 1 | 87.7 | 86.6 | -78.0 | 16 | 80.0 |
| 2026-01-16T04:34:00 | 35.6501 | 26.2200 | 661.0 | 5.36 | -10.94 | 1 | 80.5 | 78.8 | -80.3 | 16 | 80.0 |
| 2026-01-16T04:34:00 | 35.6501 | 26.2200 | 693.0 | -3.77 | -1.35 | 1 | 78.9 | 77.7 | -79.7 | 16 | 80.0 |
| 2026-01-16T04:34:00 | 35.6501 | 26.2200 | 725.0 | -5.32 | 2.43 | 1 | 76.2 | 74.7 | -79.9 | 14 | 70.0 |
| 2026-01-16T04:34:00 | 35.6501 | 26.2200 | 757.0 | -3.60 | -6.36 | 1 | 67.3 | 65.4 | -82.9 | 16 | 80.0 |
| 2026-01-16T04:34:00 | 35.6501 | 26.2200 | 789.0 | 4.69 | -2.38 | 1 | 64.4 | 63.9 | -82.5 | 17 | 85.0 |
| 2026-01-16T04:34:00 | 35.6501 | 26.2200 | 821.0 | -0.79 | -1.73 | 1 | 65.2 | 63.3 | -81.8 | 13 | 65.0 |
| 2026-01-16T04:34:00 | 35.6501 | 26.2200 | 853.0 | 7.37 | 0.02 | 1 | 57.1 | 56.2 | -83.8 | 17 | 85.0 |
| 2026-01-16T04:34:00 | 35.6501 | 26.2200 | 885.0 | -0.07 | -2.32 | 1 | 56.1 | 55.1 | -83.4 | 16 | 80.0 |
| 2026-01-16T04:34:00 | 35.6501 | 26.2200 | 917.0 | 3.10 | -3.25 | 1 | 49.8 | 49.4 | -84.9 | 17 | 85.0 |
| 2026-01-16T04:34:00 | 35.6501 | 26.2200 | 949.0 | 0.43 | -6.72 | 1 | 45.1 | 44.4 | -86.1 | 16 | 80.0 |
| 2026-01-16T04:34:00 | 35.6501 | 26.2200 | 981.0 | 2.19 | -1.96 | 1 | 40.1 | 38.2 | -87.9 | 14 | 70.0 |
| 2026-01-16T04:34:00 | 35.6501 | 26.2200 | 1013.0 | 7.21 | -7.40 | 1 | 34.3 | 33.2 | -89.2 | 17 | 85.0 |
| 2026-01-16T04:34:00 | 35.6501 | 26.2200 | 1045.0 | -2.40 | -4.74 | 1 | 25.5 | 25.1 | -92.0 | 18 | 90.0 |
| 2026-01-16T04:34:00 | 35.6501 | 26.2200 | 1077.0 | -1.53 | -0.28 | 1 | 16.4 | 16.4 | -95.4 | 20 | 100.0 |
| 2026-01-16T04:34:00 | 35.6501 | 26.2200 | 1109.0 | -1.32 | -0.43 | 1 | 10.1 | 10.1 | -98.3 | 20 | 100.0 |
| 2026-01-16T04:34:00 | 35.6501 | 26.2200 | 1141.0 | -0.82 | 3.29 | 1 | 6.8 | 6.7 | -100.0 | 18 | 90.0 |
| 2026-01-16T04:34:00 | 35.6501 | 26.2200 | 1173.0 | 6.79 | -0.80 | 1 | 7.1 | 6.5 | -99.4 | 16 | 80.0 |
| 2026-01-16T04:34:00 | 35.6501 | 26.2200 | 1205.0 | -9.16 | -4.86 | 4 | 7.2 | 8.5 | -96.8 | 1 | 5.0 |
| 2026-01-16T04:34:00 | 35.6501 | 26.2200 | 1237.0 | 7.82 | 14.29 | 4 | 7.2 | 5.5 | -98.5 | 1 | 5.0 |
| 2026-01-16T04:35:00 | 35.6501 | 26.2200 | 53.0 | 13.63 | -3.28 | 1 | 164.5 | 163.7 | -80.8 | 17 | 89.5 |
| 2026-01-16T04:35:00 | 35.6501 | 26.2200 | 85.0 | 3.66 | -9.22 | 1 | 155.1 | 154.7 | -79.0 | 17 | 89.5 |
| 2026-01-16T04:35:00 | 35.6501 | 26.2200 | 117.0 | -4.77 | -11.14 | 1 | 147.7 | 146.9 | -78.4 | 15 | 78.9 |
| 2026-01-16T04:35:00 | 35.6501 | 26.2200 | 149.0 | -5.90 | -5.19 | 1 | 132.8 | 132.4 | -81.8 | 16 | 84.2 |
| 2026-01-16T04:35:00 | 35.6501 | 26.2200 | 181.0 | 3.84 | -1.76 | 1 | 130.8 | 129.8 | -80.3 | 15 | 78.9 |
| 2026-01-16T04:35:00 | 35.6501 | 26.2200 | 213.0 | 3.83 | -5.47 | 1 | 130.3 | 129.6 | -78.2 | 16 | 84.2 |
| 2026-01-16T04:35:00 | 35.6501 | 26.2200 | 245.0 | -2.79 | -4.06 | 1 | 125.3 | 123.8 | -78.7 | 16 | 84.2 |
| 2026-01-16T04:35:00 | 35.6501 | 26.2200 | 277.0 | 4.43 | -6.10 | 1 | 119.3 | 119.3 | -78.9 | 16 | 84.2 |
| 2026-01-16T04:35:00 | 35.6501 | 26.2200 | 309.0 | -7.29 | -9.81 | 1 | 107.2 | 106.2 | -82.9 | 13 | 68.4 |
| 2026-01-16T04:35:00 | 35.6501 | 26.2200 | 341.0 | 2.78 | 3.64 | 1 | 103.6 | 102.6 | -82.9 | 16 | 84.2 |
| 2026-01-16T04:35:00 | 35.6501 | 26.2200 | 373.0 | -5.50 | -1.66 | 1 | 102.9 | 102.7 | -81.3 | 17 | 89.5 |
| 2026-01-16T04:35:00 | 35.6501 | 26.2200 | 405.0 | 1.76 | -6.40 | 1 | 107.4 | 106.9 | -78.0 | 15 | 78.9 |
| 2026-01-16T04:35:00 | 35.6501 | 26.2200 | 437.0 | 5.60 | -10.21 | 1 | 108.1 | 106.1 | -77.0 | 13 | 68.4 |
| 2026-01-16T04:35:00 | 35.6501 | 26.2200 | 469.0 | -1.09 | -5.28 | 1 | 107.4 | 105.6 | -75.8 | 14 | 73.7 |
| 2026-01-16T04:35:00 | 35.6501 | 26.2200 | 501.0 | 3.28 | 0.41 | 1 | 105.1 | 104.6 | -75.0 | 16 | 84.2 |
| 2026-01-16T04:35:00 | 35.6501 | 26.2200 | 533.0 | 2.06 | -3.06 | 1 | 101.2 | 99.8 | -75.8 | 16 | 84.2 |
| 2026-01-16T04:35:00 | 35.6501 | 26.2200 | 565.0 | -4.60 | -2.97 | 1 | 97.9 | 95.6 | -76.4 | 13 | 68.4 |
| 2026-01-16T04:35:00 | 35.6501 | 26.2200 | 597.0 | 2.79 | -2.64 | 1 | 93.8 | 92.1 | -76.8 | 14 | 73.7 |
| 2026-01-16T04:35:00 | 35.6501 | 26.2200 | 629.0 | 5.58 | -0.86 | 1 | 87.0 | 85.8 | -78.4 | 15 | 78.9 |
| 2026-01-16T04:35:00 | 35.6501 | 26.2200 | 661.0 | 4.91 | -4.69 | 1 | 77.8 | 77.8 | -80.7 | 19 | 100.0 |
| 2026-01-16T04:35:00 | 35.6501 | 26.2200 | 693.0 | 8.70 | -5.44 | 1 | 76.6 | 76.6 | -80.2 | 18 | 94.7 |
| 2026-01-16T04:35:00 | 35.6501 | 26.2200 | 725.0 | 3.66 | 2.62 | 1 | 72.0 | 71.4 | -81.4 | 15 | 78.9 |
| 2026-01-16T04:35:00 | 35.6501 | 26.2200 | 757.0 | 11.51 | -5.96 | 1 | 67.2 | 65.4 | -82.9 | 14 | 73.7 |
| 2026-01-16T04:35:00 | 35.6501 | 26.2200 | 789.0 | -2.81 | -0.98 | 1 | 64.0 | 62.6 | -83.1 | 15 | 78.9 |
| 2026-01-16T04:35:00 | 35.6501 | 26.2200 | 821.0 | 6.51 | -2.85 | 1 | 61.9 | 61.6 | -82.5 | 18 | 94.7 |
| 2026-01-16T04:35:00 | 35.6501 | 26.2200 | 853.0 | 2.33 | 0.60 | 1 | 58.3 | 56.4 | -83.8 | 15 | 78.9 |
| 2026-01-16T04:35:00 | 35.6501 | 26.2200 | 885.0 | 0.18 | 0.45 | 1 | 56.1 | 54.1 | -83.8 | 14 | 73.7 |
| 2026-01-16T04:35:00 | 35.6501 | 26.2200 | 917.0 | -1.12 | -4.01 | 1 | 48.0 | 47.9 | -85.5 | 16 | 84.2 |
| 2026-01-16T04:35:00 | 35.6501 | 26.2200 | 949.0 | 1.03 | -3.42 | 1 | 45.2 | 43.1 | -86.7 | 13 | 68.4 |
| 2026-01-16T04:35:00 | 35.6501 | 26.2200 | 981.0 | 0.12 | -1.29 | 1 | 39.1 | 38.6 | -87.7 | 18 | 94.7 |
| 2026-01-16T04:35:00 | 35.6501 | 26.2200 | 1013.0 | 4.53 | -8.80 | 1 | 32.1 | 31.4 | -90.0 | 16 | 84.2 |
| 2026-01-16T04:35:00 | 35.6501 | 26.2200 | 1045.0 | 9.66 | -2.99 | 1 | 23.4 | 22.5 | -93.3 | 17 | 89.5 |
| 2026-01-16T04:35:00 | 35.6501 | 26.2200 | 1077.0 | 2.77 | -1.17 | 1 | 14.8 | 13.9 | -96.9 | 16 | 84.2 |
| 2026-01-16T04:35:00 | 35.6501 | 26.2200 | 1109.0 | 0.37 | -6.42 | 1 | 10.8 | 9.8 | -98.5 | 17 | 89.5 |
| 2026-01-16T04:35:00 | 35.6501 | 26.2200 | 1141.0 | -3.09 | -3.48 | 1 | 7.2 | 6.9 | -99.8 | 16 | 84.2 |
| 2026-01-16T04:35:00 | 35.6501 | 26.2200 | 1173.0 | 5.94 | -5.06 | 1 | 7.2 | 7.1 | -98.8 | 15 | 78.9 |
| 2026-01-16T04:35:00 | 35.6501 | 26.2200 | 1205.0 | -4.28 | -3.86 | 4 | 6.5 | 6.2 | -98.7 | 3 | 15.8 |
| 2026-01-16T04:35:00 | 35.6501 | 26.2200 | 1237.0 | -4.52 | 2.35 | 4 | 5.9 | 6.5 | -97.6 | 1 | 5.3 |
| 2026-01-16T04:36:00 | 35.6501 | 26.2200 | 53.0 | 5.05 | -9.55 | 1 | 168.0 | 164.7 | -80.4 | 9 | 47.4 |
| 2026-01-16T04:36:00 | 35.6501 | 26.2200 | 85.0 | 6.64 | -11.41 | 1 | 153.2 | 152.5 | -79.9 | 15 | 78.9 |
| 2026-01-16T04:36:00 | 35.6501 | 26.2200 | 117.0 | 11.29 | -7.84 | 1 | 146.4 | 145.7 | -79.0 | 13 | 68.4 |
| 2026-01-16T04:36:00 | 35.6501 | 26.2200 | 149.0 | -1.31 | -7.56 | 1 | 131.8 | 130.7 | -82.5 | 15 | 78.9 |
| 2026-01-16T04:36:00 | 35.6501 | 26.2200 | 181.0 | 7.50 | -4.79 | 1 | 131.8 | 129.7 | -80.4 | 12 | 63.2 |
| 2026-01-16T04:36:00 | 35.6501 | 26.2200 | 213.0 | -4.70 | 2.59 | 1 | 131.0 | 130.1 | -78.0 | 15 | 78.9 |
| 2026-01-16T04:36:00 | 35.6501 | 26.2200 | 245.0 | -0.91 | -3.05 | 1 | 126.0 | 125.7 | -77.9 | 16 | 84.2 |
| 2026-01-16T04:36:00 | 35.6501 | 26.2200 | 277.0 | 5.57 | -7.70 | 1 | 120.2 | 119.6 | -78.7 | 15 | 78.9 |
| 2026-01-16T04:36:00 | 35.6501 | 26.2200 | 309.0 | -0.90 | -8.80 | 1 | 108.4 | 108.3 | -82.0 | 18 | 94.7 |
| 2026-01-16T04:36:00 | 35.6501 | 26.2200 | 341.0 | -3.58 | -8.45 | 1 | 101.8 | 101.8 | -83.2 | 19 | 100.0 |
| 2026-01-16T04:36:00 | 35.6501 | 26.2200 | 373.0 | 0.42 | 5.31 | 1 | 102.9 | 101.9 | -81.7 | 17 | 89.5 |
| 2026-01-16T04:36:00 | 35.6501 | 26.2200 | 405.0 | 10.55 | -4.96 | 1 | 107.0 | 106.3 | -78.3 | 17 | 89.5 |
| 2026-01-16T04:36:00 | 35.6501 | 26.2200 | 437.0 | 8.40 | 2.78 | 1 | 109.3 | 108.4 | -76.0 | 16 | 84.2 |
| 2026-01-16T04:36:00 | 35.6501 | 26.2200 | 469.0 | 7.80 | -6.10 | 1 | 107.5 | 105.2 | -76.0 | 13 | 68.4 |
| 2026-01-16T04:36:00 | 35.6501 | 26.2200 | 501.0 | -4.64 | -3.81 | 1 | 103.3 | 102.7 | -75.8 | 18 | 94.7 |
| 2026-01-16T04:36:00 | 35.6501 | 26.2200 | 533.0 | 6.99 | 6.12 | 1 | 99.0 | 96.7 | -77.2 | 15 | 78.9 |
| 2026-01-16T04:36:00 | 35.6501 | 26.2200 | 565.0 | -1.96 | 7.06 | 1 | 97.6 | 95.1 | -76.6 | 14 | 73.7 |
| 2026-01-16T04:36:00 | 35.6501 | 26.2200 | 597.0 | 1.47 | -7.17 | 1 | 91.6 | 89.2 | -78.0 | 15 | 78.9 |
| 2026-01-16T04:36:00 | 35.6501 | 26.2200 | 629.0 | -1.97 | 2.39 | 1 | 87.1 | 85.7 | -78.4 | 15 | 78.9 |
| 2026-01-16T04:36:00 | 35.6501 | 26.2200 | 661.0 | -4.41 | 2.26 | 1 | 81.6 | 80.3 | -79.6 | 16 | 84.2 |
| 2026-01-16T04:36:00 | 35.6501 | 26.2200 | 693.0 | 7.07 | 2.04 | 1 | 79.0 | 77.6 | -79.7 | 15 | 78.9 |
| 2026-01-16T04:36:00 | 35.6501 | 26.2200 | 725.0 | 10.91 | -0.66 | 1 | 74.9 | 71.6 | -81.3 | 12 | 63.2 |
| 2026-01-16T04:36:00 | 35.6501 | 26.2200 | 757.0 | 4.12 | -2.37 | 1 | 68.0 | 66.0 | -82.7 | 15 | 78.9 |
| 2026-01-16T04:36:00 | 35.6501 | 26.2200 | 789.0 | -6.36 | 3.67 | 1 | 64.6 | 62.4 | -83.2 | 11 | 57.9 |
| 2026-01-16T04:36:00 | 35.6501 | 26.2200 | 821.0 | 6.80 | -2.50 | 1 | 64.5 | 64.1 | -81.4 | 18 | 94.7 |
| 2026-01-16T04:36:00 | 35.6501 | 26.2200 | 853.0 | 18.44 | -3.72 | 1 | 59.2 | 57.6 | -83.2 | 12 | 63.2 |
| 2026-01-16T04:36:00 | 35.6501 | 26.2200 | 885.0 | -2.11 | -5.98 | 1 | 54.5 | 54.5 | -83.6 | 17 | 89.5 |
| 2026-01-16T04:36:00 | 35.6501 | 26.2200 | 917.0 | -5.75 | 1.40 | 1 | 49.6 | 48.2 | -85.4 | 15 | 78.9 |
| 2026-01-16T04:36:00 | 35.6501 | 26.2200 | 949.0 | 1.09 | -8.62 | 1 | 44.9 | 44.0 | -86.3 | 16 | 84.2 |
| 2026-01-16T04:36:00 | 35.6501 | 26.2200 | 981.0 | 6.25 | -6.82 | 1 | 39.6 | 38.7 | -87.7 | 17 | 89.5 |
| 2026-01-16T04:36:00 | 35.6501 | 26.2200 | 1013.0 | -5.30 | 0.05 | 1 | 31.6 | 31.2 | -90.1 | 18 | 94.7 |
| 2026-01-16T04:36:00 | 35.6501 | 26.2200 | 1045.0 | -7.11 | -3.00 | 1 | 25.3 | 24.5 | -92.3 | 15 | 78.9 |
| 2026-01-16T04:36:00 | 35.6501 | 26.2200 | 1077.0 | -2.75 | -7.06 | 1 | 16.7 | 15.6 | -95.9 | 17 | 89.5 |
| 2026-01-16T04:36:00 | 35.6501 | 26.2200 | 1109.0 | -4.53 | -8.98 | 1 | 11.0 | 10.1 | -98.3 | 17 | 89.5 |
| 2026-01-16T04:36:00 | 35.6501 | 26.2200 | 1141.0 | 2.51 | -8.63 | 1 | 7.5 | 6.7 | -100.0 | 15 | 78.9 |
| 2026-01-16T04:36:00 | 35.6501 | 26.2200 | 1173.0 | -0.11 | -2.52 | 1 | 8.1 | 7.2 | -98.7 | 17 | 89.5 |
| 2026-01-16T04:36:00 | 35.6501 | 26.2200 | 1205.0 | 2.58 | -2.78 | 4 | 6.5 | 6.2 | -98.7 | 4 | 21.1 |
| 2026-01-16T04:37:00 | 35.6501 | 26.2200 | 53.0 | -2.84 | -7.51 | 1 | 165.5 | 165.3 | -80.1 | 18 | 90.0 |
| 2026-01-16T04:37:00 | 35.6501 | 26.2200 | 85.0 | 3.40 | -4.17 | 1 | 154.4 | 154.2 | -79.2 | 16 | 80.0 |
| 2026-01-16T04:37:00 | 35.6501 | 26.2200 | 117.0 | 5.16 | -5.13 | 1 | 147.9 | 147.5 | -78.2 | 15 | 75.0 |
| 2026-01-16T04:37:00 | 35.6501 | 26.2200 | 149.0 | -2.53 | -8.36 | 1 | 134.0 | 132.6 | -81.6 | 12 | 60.0 |
| 2026-01-16T04:37:00 | 35.6501 | 26.2200 | 181.0 | 7.73 | 1.17 | 1 | 130.5 | 129.8 | -80.4 | 17 | 85.0 |
| 2026-01-16T04:37:00 | 35.6501 | 26.2200 | 213.0 | -2.65 | 5.59 | 1 | 128.9 | 128.2 | -78.8 | 16 | 80.0 |
| 2026-01-16T04:37:00 | 35.6501 | 26.2200 | 245.0 | 4.39 | -3.28 | 1 | 126.1 | 124.1 | -78.6 | 15 | 75.0 |
| 2026-01-16T04:37:00 | 35.6501 | 26.2200 | 277.0 | 4.82 | -16.56 | 1 | 118.8 | 116.4 | -80.1 | 14 | 70.0 |
| 2026-01-16T04:37:00 | 35.6501 | 26.2200 | 309.0 | 3.17 | -9.70 | 1 | 109.1 | 108.7 | -81.8 | 16 | 80.0 |
| 2026-01-16T04:37:00 | 35.6501 | 26.2200 | 341.0 | -0.68 | -1.09 | 1 | 102.4 | 101.8 | -83.2 | 16 | 80.0 |
| 2026-01-16T04:37:00 | 35.6501 | 26.2200 | 373.0 | 7.37 | 2.34 | 1 | 102.5 | 102.3 | -81.5 | 18 | 90.0 |
| 2026-01-16T04:37:00 | 35.6501 | 26.2200 | 405.0 | 12.82 | -1.72 | 1 | 106.5 | 105.7 | -78.5 | 15 | 75.0 |
| 2026-01-16T04:37:00 | 35.6501 | 26.2200 | 437.0 | 0.46 | -5.90 | 1 | 108.6 | 107.3 | -76.4 | 14 | 70.0 |
| 2026-01-16T04:37:00 | 35.6501 | 26.2200 | 469.0 | -2.86 | -4.09 | 1 | 105.8 | 104.6 | -76.3 | 16 | 80.0 |
| 2026-01-16T04:37:00 | 35.6501 | 26.2200 | 501.0 | -8.48 | 1.14 | 1 | 106.0 | 105.5 | -74.6 | 18 | 90.0 |
| 2026-01-16T04:37:00 | 35.6501 | 26.2200 | 533.0 | 6.05 | 0.14 | 1 | 99.8 | 99.0 | -76.2 | 17 | 85.0 |
| 2026-01-16T04:37:00 | 35.6501 | 26.2200 | 565.0 | 2.04 | -11.61 | 1 | 95.5 | 95.1 | -76.7 | 17 | 85.0 |
| 2026-01-16T04:37:00 | 35.6501 | 26.2200 | 597.0 | 4.22 | -2.94 | 1 | 91.4 | 91.1 | -77.2 | 19 | 95.0 |
| 2026-01-16T04:37:00 | 35.6501 | 26.2200 | 629.0 | -1.51 | -0.85 | 1 | 86.0 | 84.3 | -79.0 | 16 | 80.0 |
| 2026-01-16T04:37:00 | 35.6501 | 26.2200 | 661.0 | -3.28 | -3.07 | 1 | 78.7 | 77.5 | -80.9 | 16 | 80.0 |
| 2026-01-16T04:37:00 | 35.6501 | 26.2200 | 693.0 | 2.43 | -3.79 | 1 | 77.3 | 75.3 | -80.7 | 16 | 80.0 |
| 2026-01-16T04:37:00 | 35.6501 | 26.2200 | 725.0 | -3.92 | -7.53 | 1 | 75.8 | 73.1 | -80.6 | 12 | 60.0 |
| 2026-01-16T04:37:00 | 35.6501 | 26.2200 | 757.0 | 6.00 | -8.18 | 1 | 65.4 | 63.5 | -83.7 | 14 | 70.0 |
| 2026-01-16T04:37:00 | 35.6501 | 26.2200 | 789.0 | -3.58 | -0.99 | 1 | 63.2 | 62.3 | -83.2 | 17 | 85.0 |
| 2026-01-16T04:37:00 | 35.6501 | 26.2200 | 821.0 | -7.20 | 2.95 | 1 | 64.1 | 62.7 | -82.0 | 17 | 85.0 |
| 2026-01-16T04:37:00 | 35.6501 | 26.2200 | 853.0 | 4.94 | -0.93 | 1 | 59.1 | 57.9 | -83.1 | 17 | 85.0 |
| 2026-01-16T04:37:00 | 35.6501 | 26.2200 | 885.0 | 4.06 | -4.90 | 1 | 55.1 | 54.2 | -83.7 | 17 | 85.0 |
| 2026-01-16T04:37:00 | 35.6501 | 26.2200 | 917.0 | 6.26 | 3.19 | 1 | 50.0 | 48.6 | -85.2 | 16 | 80.0 |
| 2026-01-16T04:37:00 | 35.6501 | 26.2200 | 949.0 | 1.81 | 0.15 | 1 | 44.6 | 44.1 | -86.2 | 19 | 95.0 |
| 2026-01-16T04:37:00 | 35.6501 | 26.2200 | 981.0 | 3.06 | 1.34 | 1 | 35.3 | 35.3 | -89.2 | 18 | 90.0 |
| 2026-01-16T04:37:00 | 35.6501 | 26.2200 | 1013.0 | -0.07 | -8.45 | 1 | 31.7 | 30.2 | -90.5 | 17 | 85.0 |
| 2026-01-16T04:37:00 | 35.6501 | 26.2200 | 1045.0 | 2.14 | -5.66 | 1 | 25.9 | 23.6 | -92.7 | 15 | 75.0 |
| 2026-01-16T04:37:00 | 35.6501 | 26.2200 | 1077.0 | 0.84 | -0.38 | 1 | 15.6 | 14.9 | -96.3 | 17 | 85.0 |
| 2026-01-16T04:37:00 | 35.6501 | 26.2200 | 1109.0 | -5.82 | 0.01 | 1 | 10.6 | 9.2 | -99.0 | 18 | 90.0 |
| 2026-01-16T04:37:00 | 35.6501 | 26.2200 | 1141.0 | -2.29 | -0.89 | 1 | 8.3 | 7.2 | -99.6 | 15 | 75.0 |
| 2026-01-16T04:37:00 | 35.6501 | 26.2200 | 1173.0 | -3.69 | -5.65 | 1 | 8.0 | 7.4 | -98.6 | 18 | 90.0 |
| 2026-01-16T04:37:00 | 35.6501 | 26.2200 | 1205.0 | 15.45 | 6.29 | 4 | 8.0 | 7.5 | -97.6 | 2 | 10.0 |
| 2026-01-16T04:38:00 | 35.6501 | 26.2200 | 53.0 | 10.59 | -1.10 | 1 | 165.4 | 164.2 | -80.6 | 15 | 78.9 |
| 2026-01-16T04:38:00 | 35.6501 | 26.2200 | 85.0 | -0.20 | 9.17 | 1 | 156.8 | 155.5 | -78.6 | 13 | 68.4 |
| 2026-01-16T04:38:00 | 35.6501 | 26.2200 | 117.0 | 3.50 | -21.87 | 1 | 147.9 | 147.1 | -78.3 | 16 | 84.2 |
| 2026-01-16T04:38:00 | 35.6501 | 26.2200 | 149.0 | 1.14 | -5.85 | 1 | 132.2 | 131.2 | -82.3 | 16 | 84.2 |
| 2026-01-16T04:38:00 | 35.6501 | 26.2200 | 181.0 | 1.28 | 1.40 | 1 | 130.9 | 130.2 | -80.2 | 17 | 89.5 |
| 2026-01-16T04:38:00 | 35.6501 | 26.2200 | 213.0 | 0.46 | -3.97 | 1 | 129.1 | 127.7 | -79.0 | 14 | 73.7 |
| 2026-01-16T04:38:00 | 35.6501 | 26.2200 | 245.0 | 7.26 | 2.37 | 1 | 126.0 | 125.1 | -78.1 | 17 | 89.5 |
| 2026-01-16T04:38:00 | 35.6501 | 26.2200 | 277.0 | 3.78 | -8.63 | 1 | 119.7 | 119.7 | -78.7 | 19 | 100.0 |
| 2026-01-16T04:38:00 | 35.6501 | 26.2200 | 309.0 | 1.76 | -6.15 | 1 | 110.3 | 110.0 | -81.2 | 18 | 94.7 |
| 2026-01-16T04:38:00 | 35.6501 | 26.2200 | 341.0 | -9.58 | 6.02 | 1 | 103.2 | 103.2 | -82.6 | 18 | 94.7 |
| 2026-01-16T04:38:00 | 35.6501 | 26.2200 | 373.0 | -8.18 | 3.77 | 1 | 105.6 | 105.0 | -80.3 | 17 | 89.5 |
| 2026-01-16T04:38:00 | 35.6501 | 26.2200 | 405.0 | -1.18 | 3.14 | 1 | 106.8 | 106.0 | -78.4 | 17 | 89.5 |
| 2026-01-16T04:38:00 | 35.6501 | 26.2200 | 437.0 | 5.33 | -1.97 | 1 | 108.1 | 106.6 | -76.8 | 16 | 84.2 |
| 2026-01-16T04:38:00 | 35.6501 | 26.2200 | 469.0 | -0.89 | -11.65 | 1 | 106.2 | 104.4 | -76.4 | 14 | 73.7 |
| 2026-01-16T04:38:00 | 35.6501 | 26.2200 | 501.0 | -4.44 | -5.70 | 1 | 106.1 | 104.9 | -74.8 | 15 | 78.9 |
| 2026-01-16T04:38:00 | 35.6501 | 26.2200 | 533.0 | 2.06 | 2.53 | 1 | 99.1 | 98.2 | -76.5 | 16 | 84.2 |
| 2026-01-16T04:38:00 | 35.6501 | 26.2200 | 565.0 | 5.41 | -1.80 | 1 | 92.8 | 92.4 | -77.8 | 16 | 84.2 |
| 2026-01-16T04:38:00 | 35.6501 | 26.2200 | 597.0 | 2.96 | -1.64 | 1 | 91.2 | 89.3 | -78.0 | 14 | 73.7 |
| 2026-01-16T04:38:00 | 35.6501 | 26.2200 | 629.0 | -0.78 | -3.52 | 1 | 83.7 | 83.3 | -79.5 | 18 | 94.7 |
| 2026-01-16T04:38:00 | 35.6501 | 26.2200 | 661.0 | 2.76 | -8.12 | 1 | 78.2 | 76.5 | -81.3 | 13 | 68.4 |
| 2026-01-16T04:38:00 | 35.6501 | 26.2200 | 693.0 | -1.34 | -8.23 | 1 | 78.1 | 77.2 | -79.9 | 15 | 78.9 |
| 2026-01-16T04:38:00 | 35.6501 | 26.2200 | 725.0 | 4.66 | -8.98 | 1 | 72.9 | 72.2 | -81.0 | 17 | 89.5 |
| 2026-01-16T04:38:00 | 35.6501 | 26.2200 | 757.0 | -2.31 | -0.04 | 1 | 66.5 | 64.1 | -83.5 | 13 | 68.4 |
| 2026-01-16T04:38:00 | 35.6501 | 26.2200 | 789.0 | 0.65 | 8.83 | 1 | 63.0 | 62.2 | -83.3 | 16 | 84.2 |
| 2026-01-16T04:38:00 | 35.6501 | 26.2200 | 821.0 | -2.37 | -0.76 | 1 | 62.8 | 62.5 | -82.1 | 17 | 89.5 |
| 2026-01-16T04:38:00 | 35.6501 | 26.2200 | 853.0 | -2.58 | 2.17 | 1 | 59.8 | 59.0 | -82.6 | 14 | 73.7 |
| 2026-01-16T04:38:00 | 35.6501 | 26.2200 | 885.0 | 3.42 | -0.33 | 1 | 54.2 | 53.5 | -84.0 | 17 | 89.5 |
| 2026-01-16T04:38:00 | 35.6501 | 26.2200 | 917.0 | -2.23 | 0.27 | 1 | 48.7 | 47.7 | -85.6 | 14 | 73.7 |
| 2026-01-16T04:38:00 | 35.6501 | 26.2200 | 949.0 | 1.31 | -2.73 | 1 | 44.2 | 43.9 | -86.3 | 18 | 94.7 |
| 2026-01-16T04:38:00 | 35.6501 | 26.2200 | 981.0 | 7.08 | -2.93 | 1 | 40.2 | 38.1 | -87.9 | 13 | 68.4 |
| 2026-01-16T04:38:00 | 35.6501 | 26.2200 | 1013.0 | -3.23 | -2.40 | 1 | 32.9 | 32.1 | -89.7 | 17 | 89.5 |
| 2026-01-16T04:38:00 | 35.6501 | 26.2200 | 1045.0 | 1.47 | -3.99 | 1 | 23.3 | 23.3 | -92.9 | 18 | 94.7 |
| 2026-01-16T04:38:00 | 35.6501 | 26.2200 | 1077.0 | -4.24 | -1.17 | 1 | 14.4 | 14.4 | -96.6 | 19 | 100.0 |
| 2026-01-16T04:38:00 | 35.6501 | 26.2200 | 1109.0 | -10.06 | 0.70 | 1 | 10.7 | 10.7 | -97.9 | 19 | 100.0 |
| 2026-01-16T04:38:00 | 35.6501 | 26.2200 | 1141.0 | 6.81 | -3.44 | 1 | 6.8 | 6.8 | -100.0 | 19 | 100.0 |
| 2026-01-16T04:38:00 | 35.6501 | 26.2200 | 1173.0 | 3.64 | 2.00 | 1 | 7.8 | 7.5 | -98.5 | 17 | 89.5 |
| 2026-01-16T04:38:00 | 35.6501 | 26.2200 | 1205.0 | -10.17 | 2.45 | 4 | 8.8 | 7.4 | -97.7 | 3 | 15.8 |
| 2026-01-16T04:39:00 | 35.6501 | 26.2200 | 53.0 | 2.13 | 1.97 | 1 | 164.8 | 162.9 | -81.2 | 15 | 78.9 |
| 2026-01-16T04:39:00 | 35.6501 | 26.2200 | 85.0 | -1.42 | -1.68 | 1 | 156.3 | 155.6 | -78.6 | 15 | 78.9 |
| 2026-01-16T04:39:00 | 35.6501 | 26.2200 | 117.0 | 4.54 | -15.17 | 1 | 146.9 | 145.2 | -79.2 | 14 | 73.7 |
| 2026-01-16T04:39:00 | 35.6501 | 26.2200 | 149.0 | -6.93 | -4.56 | 1 | 133.1 | 131.2 | -82.3 | 14 | 73.7 |
| 2026-01-16T04:39:00 | 35.6501 | 26.2200 | 181.0 | 2.87 | 3.07 | 1 | 129.9 | 129.6 | -80.4 | 17 | 89.5 |
| 2026-01-16T04:39:00 | 35.6501 | 26.2200 | 213.0 | -1.10 | 2.55 | 1 | 128.6 | 127.4 | -79.2 | 15 | 78.9 |
| 2026-01-16T04:39:00 | 35.6501 | 26.2200 | 245.0 | 3.83 | -4.36 | 1 | 125.9 | 124.9 | -78.3 | 16 | 84.2 |
| 2026-01-16T04:39:00 | 35.6501 | 26.2200 | 277.0 | 1.64 | 3.41 | 1 | 120.8 | 119.1 | -78.9 | 13 | 68.4 |
| 2026-01-16T04:39:00 | 35.6501 | 26.2200 | 309.0 | -1.24 | -1.91 | 1 | 110.8 | 109.9 | -81.3 | 14 | 73.7 |
| 2026-01-16T04:39:00 | 35.6501 | 26.2200 | 341.0 | -5.37 | 4.53 | 1 | 103.2 | 103.3 | -82.5 | 17 | 89.5 |
| 2026-01-16T04:39:00 | 35.6501 | 26.2200 | 373.0 | -2.22 | -3.68 | 1 | 103.6 | 102.3 | -81.5 | 15 | 78.9 |
| 2026-01-16T04:39:00 | 35.6501 | 26.2200 | 405.0 | 4.82 | -1.07 | 1 | 105.9 | 105.0 | -78.9 | 16 | 84.2 |
| 2026-01-16T04:39:00 | 35.6501 | 26.2200 | 437.0 | -0.63 | 4.75 | 1 | 106.3 | 105.1 | -77.4 | 15 | 78.9 |
| 2026-01-16T04:39:00 | 35.6501 | 26.2200 | 469.0 | -2.99 | -3.03 | 1 | 105.4 | 103.9 | -76.6 | 14 | 73.7 |
| 2026-01-16T04:39:00 | 35.6501 | 26.2200 | 501.0 | 2.97 | -1.03 | 1 | 105.4 | 104.9 | -74.9 | 18 | 94.7 |
| 2026-01-16T04:39:00 | 35.6501 | 26.2200 | 533.0 | 1.32 | -0.08 | 1 | 99.8 | 99.9 | -75.8 | 16 | 84.2 |
| 2026-01-16T04:39:00 | 35.6501 | 26.2200 | 565.0 | -11.33 | -2.01 | 1 | 93.6 | 92.8 | -77.6 | 14 | 73.7 |
| 2026-01-16T04:39:00 | 35.6501 | 26.2200 | 597.0 | 2.61 | -1.15 | 1 | 90.5 | 89.9 | -77.8 | 15 | 78.9 |
| 2026-01-16T04:39:00 | 35.6501 | 26.2200 | 629.0 | 6.38 | -4.80 | 1 | 85.9 | 83.5 | -79.4 | 12 | 63.2 |
| 2026-01-16T04:39:00 | 35.6501 | 26.2200 | 661.0 | -5.46 | -6.82 | 1 | 79.2 | 78.1 | -80.6 | 14 | 73.7 |
| 2026-01-16T04:39:00 | 35.6501 | 26.2200 | 693.0 | 4.47 | 4.30 | 1 | 77.4 | 76.3 | -80.3 | 15 | 78.9 |
| 2026-01-16T04:39:00 | 35.6501 | 26.2200 | 725.0 | 4.71 | 0.22 | 1 | 74.4 | 72.3 | -81.0 | 14 | 73.7 |
| 2026-01-16T04:39:00 | 35.6501 | 26.2200 | 757.0 | 0.59 | -4.23 | 1 | 66.2 | 65.1 | -83.0 | 16 | 84.2 |
| 2026-01-16T04:39:00 | 35.6501 | 26.2200 | 789.0 | -3.34 | -0.98 | 1 | 63.3 | 62.8 | -83.0 | 16 | 84.2 |
| 2026-01-16T04:39:00 | 35.6501 | 26.2200 | 821.0 | -2.23 | -4.69 | 1 | 63.7 | 62.9 | -81.9 | 16 | 84.2 |
| 2026-01-16T04:39:00 | 35.6501 | 26.2200 | 853.0 | 1.56 | -5.06 | 1 | 57.6 | 56.5 | -83.7 | 15 | 78.9 |
| 2026-01-16T04:39:00 | 35.6501 | 26.2200 | 885.0 | -0.09 | -1.40 | 1 | 54.2 | 52.6 | -84.5 | 16 | 84.2 |
| 2026-01-16T04:39:00 | 35.6501 | 26.2200 | 917.0 | 5.94 | 1.80 | 1 | 48.3 | 47.6 | -85.7 | 16 | 84.2 |
| 2026-01-16T04:39:00 | 35.6501 | 26.2200 | 949.0 | 0.16 | -9.25 | 1 | 43.1 | 41.2 | -87.5 | 15 | 78.9 |
| 2026-01-16T04:39:00 | 35.6501 | 26.2200 | 981.0 | 0.81 | 0.12 | 1 | 36.3 | 35.1 | -89.3 | 15 | 78.9 |
| 2026-01-16T04:39:00 | 35.6501 | 26.2200 | 1013.0 | -6.41 | 0.74 | 1 | 30.6 | 29.9 | -90.7 | 15 | 78.9 |
| 2026-01-16T04:39:00 | 35.6501 | 26.2200 | 1045.0 | 2.63 | -5.26 | 1 | 25.1 | 23.6 | -92.7 | 15 | 78.9 |
| 2026-01-16T04:39:00 | 35.6501 | 26.2200 | 1077.0 | 1.10 | -6.85 | 1 | 15.3 | 14.1 | -96.7 | 14 | 73.7 |
| 2026-01-16T04:39:00 | 35.6501 | 26.2200 | 1109.0 | -7.26 | -4.49 | 1 | 10.7 | 10.7 | -97.9 | 18 | 94.7 |
| 2026-01-16T04:39:00 | 35.6501 | 26.2200 | 1141.0 | -4.68 | -0.78 | 1 | 6.9 | 6.8 | -99.9 | 18 | 94.7 |
| 2026-01-16T04:39:00 | 35.6501 | 26.2200 | 1173.0 | -4.55 | -2.36 | 1 | 6.3 | 6.3 | -99.5 | 19 | 100.0 |
| 2026-01-16T04:39:00 | 35.6501 | 26.2200 | 1205.0 | 2.53 | -6.68 | 4 | 6.4 | 6.6 | -98.3 | 2 | 10.5 |
| 2026-01-16T04:40:00 | 35.6501 | 26.2200 | 53.0 | 0.50 | -7.47 | 1 | 163.9 | 163.5 | -80.9 | 17 | 85.0 |
| 2026-01-16T04:40:00 | 35.6501 | 26.2200 | 85.0 | -1.83 | -0.60 | 1 | 153.8 | 153.8 | -79.3 | 18 | 90.0 |
| 2026-01-16T04:40:00 | 35.6501 | 26.2200 | 117.0 | -1.70 | -2.30 | 1 | 148.9 | 147.9 | -78.0 | 16 | 80.0 |
| 2026-01-16T04:40:00 | 35.6501 | 26.2200 | 149.0 | 0.84 | -9.49 | 1 | 132.9 | 132.3 | -81.8 | 17 | 85.0 |
| 2026-01-16T04:40:00 | 35.6501 | 26.2200 | 181.0 | 11.38 | -11.04 | 1 | 129.6 | 128.1 | -81.1 | 16 | 80.0 |
| 2026-01-16T04:40:00 | 35.6501 | 26.2200 | 213.0 | 2.28 | -3.64 | 1 | 127.2 | 126.8 | -79.4 | 16 | 80.0 |
| 2026-01-16T04:40:00 | 35.6501 | 26.2200 | 245.0 | 5.59 | -0.92 | 1 | 126.4 | 126.2 | -77.7 | 17 | 85.0 |
| 2026-01-16T04:40:00 | 35.6501 | 26.2200 | 277.0 | 12.87 | -0.30 | 1 | 118.9 | 118.5 | -79.2 | 15 | 75.0 |
| 2026-01-16T04:40:00 | 35.6501 | 26.2200 | 309.0 | 3.03 | -6.94 | 1 | 110.8 | 109.6 | -81.4 | 17 | 85.0 |
| 2026-01-16T04:40:00 | 35.6501 | 26.2200 | 341.0 | -1.70 | -0.33 | 1 | 105.6 | 105.2 | -81.7 | 18 | 90.0 |
| 2026-01-16T04:40:00 | 35.6501 | 26.2200 | 373.0 | -3.49 | -1.84 | 1 | 104.0 | 104.4 | -80.6 | 18 | 90.0 |
| 2026-01-16T04:40:00 | 35.6501 | 26.2200 | 405.0 | 4.35 | -3.16 | 1 | 105.9 | 103.8 | -79.4 | 14 | 70.0 |
| 2026-01-16T04:40:00 | 35.6501 | 26.2200 | 437.0 | 3.47 | -8.27 | 1 | 109.0 | 107.9 | -76.2 | 15 | 75.0 |
| 2026-01-16T04:40:00 | 35.6501 | 26.2200 | 469.0 | 5.67 | 1.66 | 1 | 105.0 | 104.4 | -76.4 | 18 | 90.0 |
| 2026-01-16T04:40:00 | 35.6501 | 26.2200 | 501.0 | -3.48 | 1.78 | 1 | 105.8 | 105.2 | -74.7 | 18 | 90.0 |
| 2026-01-16T04:40:00 | 35.6501 | 26.2200 | 533.0 | -4.63 | 0.93 | 1 | 97.1 | 96.6 | -77.2 | 19 | 95.0 |
| 2026-01-16T04:40:00 | 35.6501 | 26.2200 | 565.0 | 6.24 | -9.69 | 1 | 95.2 | 93.7 | -77.3 | 13 | 65.0 |
| 2026-01-16T04:40:00 | 35.6501 | 26.2200 | 597.0 | -3.33 | -10.50 | 1 | 89.7 | 88.2 | -78.5 | 15 | 75.0 |
| 2026-01-16T04:40:00 | 35.6501 | 26.2200 | 629.0 | 1.77 | -6.70 | 1 | 84.8 | 83.8 | -79.3 | 16 | 80.0 |
| 2026-01-16T04:40:00 | 35.6501 | 26.2200 | 661.0 | -0.89 | -5.78 | 1 | 78.7 | 78.5 | -80.5 | 19 | 95.0 |
| 2026-01-16T04:40:00 | 35.6501 | 26.2200 | 693.0 | -0.84 | -3.87 | 1 | 79.9 | 77.1 | -80.0 | 13 | 65.0 |
| 2026-01-16T04:40:00 | 35.6501 | 26.2200 | 725.0 | -0.79 | 3.36 | 1 | 76.0 | 74.9 | -79.8 | 17 | 85.0 |
| 2026-01-16T04:40:00 | 35.6501 | 26.2200 | 757.0 | 0.90 | -6.36 | 1 | 66.0 | 65.0 | -83.1 | 18 | 90.0 |
| 2026-01-16T04:40:00 | 35.6501 | 26.2200 | 789.0 | 9.65 | -4.72 | 1 | 63.6 | 62.7 | -83.0 | 18 | 90.0 |
| 2026-01-16T04:40:00 | 35.6501 | 26.2200 | 821.0 | 2.89 | -0.88 | 1 | 62.6 | 62.1 | -82.3 | 19 | 95.0 |
| 2026-01-16T04:40:00 | 35.6501 | 26.2200 | 853.0 | -4.96 | 2.86 | 1 | 58.4 | 56.7 | -83.6 | 16 | 80.0 |
| 2026-01-16T04:40:00 | 35.6501 | 26.2200 | 885.0 | -1.17 | -5.00 | 1 | 54.0 | 52.4 | -84.5 | 15 | 75.0 |
| 2026-01-16T04:40:00 | 35.6501 | 26.2200 | 917.0 | 2.58 | 2.22 | 1 | 49.7 | 48.7 | -85.1 | 15 | 75.0 |
| 2026-01-16T04:40:00 | 35.6501 | 26.2200 | 949.0 | 3.14 | 3.27 | 1 | 43.6 | 43.4 | -86.5 | 19 | 95.0 |
| 2026-01-16T04:40:00 | 35.6501 | 26.2200 | 981.0 | 3.83 | -3.78 | 1 | 39.0 | 38.5 | -87.7 | 18 | 90.0 |
| 2026-01-16T04:40:00 | 35.6501 | 26.2200 | 1013.0 | -3.04 | 1.45 | 1 | 31.0 | 30.5 | -90.4 | 17 | 85.0 |
| 2026-01-16T04:40:00 | 35.6501 | 26.2200 | 1045.0 | 5.62 | -4.06 | 1 | 23.6 | 22.4 | -93.3 | 14 | 70.0 |
| 2026-01-16T04:40:00 | 35.6501 | 26.2200 | 1077.0 | 5.32 | -1.87 | 1 | 16.1 | 15.2 | -96.1 | 18 | 90.0 |
| 2026-01-16T04:40:00 | 35.6501 | 26.2200 | 1109.0 | 4.14 | 1.28 | 1 | 11.3 | 10.1 | -98.3 | 19 | 95.0 |
| 2026-01-16T04:40:00 | 35.6501 | 26.2200 | 1141.0 | -3.76 | -4.46 | 1 | 7.5 | 7.2 | -99.6 | 17 | 85.0 |
| 2026-01-16T04:40:00 | 35.6501 | 26.2200 | 1173.0 | -5.60 | -3.22 | 1 | 6.6 | 6.7 | -99.2 | 18 | 90.0 |
| 2026-01-16T04:40:00 | 35.6501 | 26.2200 | 1205.0 | -0.21 | -6.04 | 4 | 6.0 | 6.5 | -98.4 | 5 | 25.0 |
| 2026-01-16T04:41:00 | 35.6501 | 26.2200 | 53.0 | 5.47 | -1.08 | 1 | 166.9 | 165.1 | -80.2 | 13 | 68.4 |
| 2026-01-16T04:41:00 | 35.6501 | 26.2200 | 85.0 | -5.63 | -6.60 | 1 | 153.7 | 153.0 | -79.7 | 16 | 84.2 |
| 2026-01-16T04:41:00 | 35.6501 | 26.2200 | 117.0 | 5.36 | -10.07 | 1 | 147.0 | 146.5 | -78.6 | 16 | 84.2 |
| 2026-01-16T04:41:00 | 35.6501 | 26.2200 | 149.0 | 0.95 | 1.21 | 1 | 130.1 | 129.9 | -82.8 | 14 | 73.7 |
| 2026-01-16T04:41:00 | 35.6501 | 26.2200 | 181.0 | 9.41 | -0.01 | 1 | 127.9 | 126.4 | -81.8 | 15 | 78.9 |
| 2026-01-16T04:41:00 | 35.6501 | 26.2200 | 213.0 | 4.82 | -0.19 | 1 | 128.5 | 127.5 | -79.1 | 13 | 68.4 |
| 2026-01-16T04:41:00 | 35.6501 | 26.2200 | 245.0 | 1.82 | -6.43 | 1 | 126.4 | 125.2 | -78.1 | 16 | 84.2 |
| 2026-01-16T04:41:00 | 35.6501 | 26.2200 | 277.0 | 8.78 | 1.31 | 1 | 118.3 | 117.7 | -79.6 | 15 | 78.9 |
| 2026-01-16T04:41:00 | 35.6501 | 26.2200 | 309.0 | -5.62 | -1.70 | 1 | 112.4 | 109.4 | -81.5 | 11 | 57.9 |
| 2026-01-16T04:41:00 | 35.6501 | 26.2200 | 341.0 | -4.00 | 1.57 | 1 | 105.2 | 104.0 | -82.2 | 12 | 63.2 |
| 2026-01-16T04:41:00 | 35.6501 | 26.2200 | 373.0 | 3.02 | 4.33 | 1 | 105.3 | 103.7 | -80.9 | 15 | 78.9 |
| 2026-01-16T04:41:00 | 35.6501 | 26.2200 | 405.0 | 5.53 | -2.35 | 1 | 105.8 | 104.8 | -78.9 | 15 | 78.9 |
| 2026-01-16T04:41:00 | 35.6501 | 26.2200 | 437.0 | 12.04 | -1.03 | 1 | 107.5 | 106.8 | -76.6 | 16 | 84.2 |
| 2026-01-16T04:41:00 | 35.6501 | 26.2200 | 469.0 | -4.11 | -5.28 | 1 | 105.0 | 104.1 | -76.5 | 14 | 73.7 |
| 2026-01-16T04:41:00 | 35.6501 | 26.2200 | 501.0 | 0.89 | -1.99 | 1 | 103.0 | 102.6 | -75.9 | 16 | 84.2 |
| 2026-01-16T04:41:00 | 35.6501 | 26.2200 | 533.0 | 4.00 | -7.55 | 1 | 100.0 | 97.9 | -76.7 | 14 | 73.7 |
| 2026-01-16T04:41:00 | 35.6501 | 26.2200 | 565.0 | 1.54 | -1.76 | 1 | 95.1 | 94.6 | -76.9 | 15 | 78.9 |
| 2026-01-16T04:41:00 | 35.6501 | 26.2200 | 597.0 | -4.18 | -3.11 | 1 | 91.7 | 89.2 | -78.0 | 14 | 73.7 |
| 2026-01-16T04:41:00 | 35.6501 | 26.2200 | 629.0 | -6.43 | -7.78 | 1 | 84.4 | 83.4 | -79.4 | 17 | 89.5 |
| 2026-01-16T04:41:00 | 35.6501 | 26.2200 | 661.0 | -7.00 | -7.32 | 1 | 78.9 | 78.3 | -80.5 | 16 | 84.2 |
| 2026-01-16T04:41:00 | 35.6501 | 26.2200 | 693.0 | -3.27 | -6.21 | 1 | 79.6 | 78.2 | -79.5 | 14 | 73.7 |
| 2026-01-16T04:41:00 | 35.6501 | 26.2200 | 725.0 | 1.08 | -1.12 | 1 | 73.8 | 72.5 | -80.9 | 16 | 84.2 |
| 2026-01-16T04:41:00 | 35.6501 | 26.2200 | 757.0 | -4.46 | -8.93 | 1 | 67.3 | 65.2 | -83.0 | 13 | 68.4 |
| 2026-01-16T04:41:00 | 35.6501 | 26.2200 | 789.0 | -5.83 | -4.52 | 1 | 64.0 | 63.8 | -82.6 | 17 | 89.5 |
| 2026-01-16T04:41:00 | 35.6501 | 26.2200 | 821.0 | 2.07 | -9.88 | 1 | 64.4 | 61.0 | -82.8 | 13 | 68.4 |
| 2026-01-16T04:41:00 | 35.6501 | 26.2200 | 853.0 | -2.12 | 0.82 | 1 | 57.6 | 56.7 | -83.6 | 16 | 84.2 |
| 2026-01-16T04:41:00 | 35.6501 | 26.2200 | 885.0 | -1.83 | -5.57 | 1 | 53.6 | 53.0 | -84.3 | 16 | 84.2 |
| 2026-01-16T04:41:00 | 35.6501 | 26.2200 | 917.0 | 6.05 | -7.37 | 1 | 49.5 | 46.9 | -86.0 | 12 | 63.2 |
| 2026-01-16T04:41:00 | 35.6501 | 26.2200 | 949.0 | 9.69 | -6.44 | 1 | 43.3 | 42.8 | -86.8 | 16 | 84.2 |
| 2026-01-16T04:41:00 | 35.6501 | 26.2200 | 981.0 | -1.64 | -4.73 | 1 | 38.2 | 37.5 | -88.2 | 17 | 89.5 |
| 2026-01-16T04:41:00 | 35.6501 | 26.2200 | 1013.0 | -6.14 | -2.65 | 1 | 31.9 | 30.5 | -90.4 | 15 | 78.9 |
| 2026-01-16T04:41:00 | 35.6501 | 26.2200 | 1045.0 | 2.20 | -5.22 | 1 | 24.4 | 23.1 | -93.0 | 12 | 63.2 |
| 2026-01-16T04:41:00 | 35.6501 | 26.2200 | 1077.0 | 3.91 | 1.00 | 1 | 14.5 | 14.2 | -96.7 | 18 | 94.7 |
| 2026-01-16T04:41:00 | 35.6501 | 26.2200 | 1109.0 | 2.54 | -5.76 | 1 | 10.3 | 10.3 | -98.2 | 19 | 100.0 |
| 2026-01-16T04:41:00 | 35.6501 | 26.2200 | 1141.0 | 1.53 | -2.26 | 1 | 6.9 | 6.9 | -99.9 | 18 | 94.7 |
| 2026-01-16T04:41:00 | 35.6501 | 26.2200 | 1173.0 | 5.56 | -7.45 | 1 | 6.0 | 6.0 | -99.9 | 17 | 89.5 |
| 2026-01-16T04:41:00 | 35.6501 | 26.2200 | 1205.0 | 11.76 | 5.22 | 1 | 5.6 | 5.6 | -99.3 | 6 | 31.6 |
| 2026-01-16T04:42:00 | 35.6501 | 26.2200 | 53.0 | 0.09 | 5.44 | 1 | 165.0 | 164.2 | -80.6 | 15 | 78.9 |
| 2026-01-16T04:42:00 | 35.6501 | 26.2200 | 85.0 | 3.31 | -9.04 | 1 | 155.6 | 155.0 | -78.8 | 15 | 78.9 |
| 2026-01-16T04:42:00 | 35.6501 | 26.2200 | 117.0 | -1.42 | -9.04 | 1 | 146.2 | 145.8 | -78.9 | 18 | 94.7 |
| 2026-01-16T04:42:00 | 35.6501 | 26.2200 | 149.0 | -3.09 | -4.64 | 1 | 129.4 | 128.5 | -83.5 | 16 | 84.2 |
| 2026-01-16T04:42:00 | 35.6501 | 26.2200 | 181.0 | 2.31 | 0.59 | 1 | 130.8 | 130.0 | -80.2 | 14 | 73.7 |
| 2026-01-16T04:42:00 | 35.6501 | 26.2200 | 213.0 | 3.52 | -3.52 | 1 | 131.3 | 129.6 | -78.2 | 14 | 73.7 |
| 2026-01-16T04:42:00 | 35.6501 | 26.2200 | 245.0 | 5.18 | -2.80 | 1 | 127.6 | 126.1 | -77.7 | 15 | 78.9 |
| 2026-01-16T04:42:00 | 35.6501 | 26.2200 | 277.0 | 11.04 | -6.91 | 1 | 119.0 | 117.5 | -79.6 | 13 | 68.4 |
| 2026-01-16T04:42:00 | 35.6501 | 26.2200 | 309.0 | 2.64 | -11.39 | 1 | 110.7 | 109.9 | -81.3 | 14 | 73.7 |
| 2026-01-16T04:42:00 | 35.6501 | 26.2200 | 341.0 | 8.98 | -3.90 | 1 | 105.0 | 104.4 | -82.1 | 17 | 89.5 |
| 2026-01-16T04:42:00 | 35.6501 | 26.2200 | 373.0 | 2.14 | 4.90 | 1 | 103.7 | 103.0 | -81.2 | 17 | 89.5 |
| 2026-01-16T04:42:00 | 35.6501 | 26.2200 | 405.0 | 6.52 | 2.14 | 1 | 105.1 | 103.7 | -79.4 | 14 | 73.7 |
| 2026-01-16T04:42:00 | 35.6501 | 26.2200 | 437.0 | 0.16 | -0.03 | 1 | 107.7 | 105.9 | -77.0 | 16 | 84.2 |
| 2026-01-16T04:42:00 | 35.6501 | 26.2200 | 469.0 | -6.63 | -5.19 | 1 | 108.7 | 107.1 | -75.2 | 14 | 73.7 |
| 2026-01-16T04:42:00 | 35.6501 | 26.2200 | 501.0 | 2.20 | -0.12 | 1 | 104.4 | 104.4 | -75.0 | 19 | 100.0 |
| 2026-01-16T04:42:00 | 35.6501 | 26.2200 | 533.0 | -6.93 | -6.01 | 1 | 97.3 | 96.8 | -77.2 | 16 | 84.2 |
| 2026-01-16T04:42:00 | 35.6501 | 26.2200 | 565.0 | -4.28 | 4.74 | 1 | 98.1 | 95.5 | -76.5 | 12 | 63.2 |
| 2026-01-16T04:42:00 | 35.6501 | 26.2200 | 597.0 | 5.39 | -6.11 | 1 | 91.7 | 90.0 | -77.7 | 15 | 78.9 |
| 2026-01-16T04:42:00 | 35.6501 | 26.2200 | 629.0 | 11.59 | 1.33 | 1 | 85.5 | 84.6 | -78.9 | 16 | 84.2 |
| 2026-01-16T04:42:00 | 35.6501 | 26.2200 | 661.0 | 2.04 | -0.25 | 1 | 82.1 | 80.3 | -79.6 | 12 | 63.2 |
| 2026-01-16T04:42:00 | 35.6501 | 26.2200 | 693.0 | 5.95 | 4.47 | 1 | 79.2 | 77.7 | -79.7 | 14 | 73.7 |
| 2026-01-16T04:42:00 | 35.6501 | 26.2200 | 725.0 | -0.49 | -5.31 | 1 | 73.8 | 72.1 | -81.0 | 15 | 78.9 |
| 2026-01-16T04:42:00 | 35.6501 | 26.2200 | 757.0 | -12.54 | -5.32 | 1 | 68.5 | 67.1 | -82.2 | 15 | 78.9 |
| 2026-01-16T04:42:00 | 35.6501 | 26.2200 | 789.0 | -8.56 | -1.37 | 1 | 61.7 | 60.9 | -83.8 | 17 | 89.5 |
| 2026-01-16T04:42:00 | 35.6501 | 26.2200 | 821.0 | 0.49 | 2.61 | 1 | 62.9 | 62.6 | -82.1 | 17 | 89.5 |
| 2026-01-16T04:42:00 | 35.6501 | 26.2200 | 853.0 | 1.28 | -5.47 | 1 | 59.0 | 58.7 | -82.8 | 17 | 89.5 |
| 2026-01-16T04:42:00 | 35.6501 | 26.2200 | 885.0 | -0.92 | -8.15 | 1 | 54.8 | 53.1 | -84.2 | 14 | 73.7 |
| 2026-01-16T04:42:00 | 35.6501 | 26.2200 | 917.0 | 1.99 | -6.07 | 1 | 48.4 | 47.5 | -85.7 | 17 | 89.5 |
| 2026-01-16T04:42:00 | 35.6501 | 26.2200 | 949.0 | 3.87 | -2.81 | 1 | 44.5 | 43.9 | -86.3 | 17 | 89.5 |
| 2026-01-16T04:42:00 | 35.6501 | 26.2200 | 981.0 | -2.99 | -2.79 | 1 | 37.8 | 35.9 | -88.9 | 14 | 73.7 |
| 2026-01-16T04:42:00 | 35.6501 | 26.2200 | 1013.0 | 2.22 | 2.07 | 1 | 30.7 | 29.7 | -90.8 | 16 | 84.2 |
| 2026-01-16T04:42:00 | 35.6501 | 26.2200 | 1045.0 | 1.11 | -0.80 | 1 | 23.8 | 22.4 | -93.3 | 15 | 78.9 |
| 2026-01-16T04:42:00 | 35.6501 | 26.2200 | 1077.0 | 9.11 | -0.12 | 1 | 15.6 | 15.2 | -96.1 | 17 | 89.5 |
| 2026-01-16T04:42:00 | 35.6501 | 26.2200 | 1109.0 | -2.86 | -3.42 | 1 | 10.8 | 10.8 | -97.8 | 19 | 100.0 |
| 2026-01-16T04:42:00 | 35.6501 | 26.2200 | 1141.0 | 5.56 | -3.50 | 1 | 7.6 | 7.6 | -99.3 | 18 | 94.7 |
| 2026-01-16T04:42:00 | 35.6501 | 26.2200 | 1173.0 | 4.77 | -0.42 | 1 | 6.6 | 6.6 | -99.3 | 17 | 89.5 |
| 2026-01-16T04:42:00 | 35.6501 | 26.2200 | 1205.0 | 10.32 | 14.21 | 4 | 6.2 | 5.9 | -99.0 | 2 | 10.5 |
| 2026-01-16T04:43:00 | 35.6501 | 26.2200 | 53.0 | 16.76 | -2.83 | 1 | 165.2 | 163.4 | -81.0 | 14 | 70.0 |
| 2026-01-16T04:43:00 | 35.6501 | 26.2200 | 85.0 | 13.73 | 1.34 | 1 | 153.9 | 153.1 | -79.6 | 17 | 85.0 |
| 2026-01-16T04:43:00 | 35.6501 | 26.2200 | 117.0 | 6.02 | -10.08 | 1 | 146.8 | 146.0 | -78.8 | 18 | 90.0 |
| 2026-01-16T04:43:00 | 35.6501 | 26.2200 | 149.0 | 3.23 | -4.60 | 1 | 131.6 | 130.8 | -82.4 | 17 | 85.0 |
| 2026-01-16T04:43:00 | 35.6501 | 26.2200 | 181.0 | 6.59 | -3.99 | 1 | 128.0 | 127.1 | -81.5 | 13 | 65.0 |
| 2026-01-16T04:43:00 | 35.6501 | 26.2200 | 213.0 | 1.07 | 5.52 | 1 | 131.6 | 129.7 | -78.2 | 15 | 75.0 |
| 2026-01-16T04:43:00 | 35.6501 | 26.2200 | 245.0 | -0.35 | -9.61 | 1 | 126.0 | 125.6 | -78.0 | 19 | 95.0 |
| 2026-01-16T04:43:00 | 35.6501 | 26.2200 | 277.0 | 4.70 | -2.37 | 1 | 120.7 | 120.0 | -78.6 | 18 | 90.0 |
| 2026-01-16T04:43:00 | 35.6501 | 26.2200 | 309.0 | -4.72 | 1.49 | 1 | 112.7 | 111.9 | -80.4 | 16 | 80.0 |
| 2026-01-16T04:43:00 | 35.6501 | 26.2200 | 341.0 | 4.32 | -4.26 | 1 | 105.4 | 104.7 | -81.9 | 18 | 90.0 |
| 2026-01-16T04:43:00 | 35.6501 | 26.2200 | 373.0 | 1.92 | 1.02 | 1 | 102.9 | 102.0 | -81.6 | 17 | 85.0 |
| 2026-01-16T04:43:00 | 35.6501 | 26.2200 | 405.0 | 1.16 | -0.46 | 1 | 106.7 | 105.8 | -78.5 | 16 | 80.0 |
| 2026-01-16T04:43:00 | 35.6501 | 26.2200 | 437.0 | 8.07 | -1.29 | 1 | 108.6 | 108.0 | -76.1 | 17 | 85.0 |
| 2026-01-16T04:43:00 | 35.6501 | 26.2200 | 469.0 | 3.56 | -3.23 | 1 | 106.3 | 104.6 | -76.3 | 15 | 75.0 |
| 2026-01-16T04:43:00 | 35.6501 | 26.2200 | 501.0 | -0.87 | 2.78 | 1 | 102.4 | 101.9 | -76.1 | 18 | 90.0 |
| 2026-01-16T04:43:00 | 35.6501 | 26.2200 | 533.0 | -0.91 | 6.52 | 1 | 99.0 | 98.3 | -76.5 | 17 | 85.0 |
| 2026-01-16T04:43:00 | 35.6501 | 26.2200 | 565.0 | 2.03 | -8.88 | 1 | 95.3 | 94.9 | -76.7 | 18 | 90.0 |
| 2026-01-16T04:43:00 | 35.6501 | 26.2200 | 597.0 | -1.71 | -1.01 | 1 | 87.2 | 87.2 | -78.9 | 16 | 80.0 |
| 2026-01-16T04:43:00 | 35.6501 | 26.2200 | 629.0 | -10.67 | 2.70 | 1 | 85.8 | 84.8 | -78.8 | 15 | 75.0 |
| 2026-01-16T04:43:00 | 35.6501 | 26.2200 | 661.0 | 8.62 | 0.40 | 1 | 76.6 | 75.9 | -81.6 | 16 | 80.0 |
| 2026-01-16T04:43:00 | 35.6501 | 26.2200 | 693.0 | 0.23 | 2.64 | 1 | 78.5 | 77.1 | -79.9 | 14 | 70.0 |
| 2026-01-16T04:43:00 | 35.6501 | 26.2200 | 725.0 | 3.57 | -12.68 | 1 | 76.3 | 73.4 | -80.5 | 14 | 70.0 |
| 2026-01-16T04:43:00 | 35.6501 | 26.2200 | 757.0 | -7.90 | -10.89 | 1 | 66.4 | 65.8 | -82.7 | 16 | 80.0 |
| 2026-01-16T04:43:00 | 35.6501 | 26.2200 | 789.0 | 4.78 | -5.66 | 1 | 64.0 | 63.4 | -82.7 | 17 | 85.0 |
| 2026-01-16T04:43:00 | 35.6501 | 26.2200 | 821.0 | -2.83 | 0.93 | 1 | 62.7 | 61.6 | -82.5 | 16 | 80.0 |
| 2026-01-16T04:43:00 | 35.6501 | 26.2200 | 853.0 | 3.27 | -2.71 | 1 | 60.9 | 58.6 | -82.8 | 15 | 75.0 |
| 2026-01-16T04:43:00 | 35.6501 | 26.2200 | 885.0 | -3.80 | -13.23 | 1 | 53.9 | 53.0 | -84.3 | 15 | 75.0 |
| 2026-01-16T04:43:00 | 35.6501 | 26.2200 | 917.0 | 3.59 | -6.77 | 1 | 48.7 | 47.2 | -85.8 | 13 | 65.0 |
| 2026-01-16T04:43:00 | 35.6501 | 26.2200 | 949.0 | -2.29 | 0.20 | 1 | 42.0 | 41.2 | -87.5 | 18 | 90.0 |
| 2026-01-16T04:43:00 | 35.6501 | 26.2200 | 981.0 | 2.94 | 1.34 | 1 | 36.4 | 35.8 | -89.0 | 18 | 90.0 |
| 2026-01-16T04:43:00 | 35.6501 | 26.2200 | 1013.0 | -0.86 | 1.47 | 1 | 31.3 | 31.1 | -90.1 | 16 | 80.0 |
| 2026-01-16T04:43:00 | 35.6501 | 26.2200 | 1045.0 | 4.37 | -1.29 | 1 | 23.4 | 22.5 | -93.2 | 17 | 85.0 |
| 2026-01-16T04:43:00 | 35.6501 | 26.2200 | 1077.0 | 11.31 | 1.48 | 1 | 13.5 | 13.3 | -97.2 | 18 | 90.0 |
| 2026-01-16T04:43:00 | 35.6501 | 26.2200 | 1109.0 | 2.22 | -0.33 | 1 | 10.3 | 10.3 | -98.2 | 20 | 100.0 |
| 2026-01-16T04:43:00 | 35.6501 | 26.2200 | 1141.0 | 0.28 | -5.71 | 1 | 7.2 | 7.2 | -99.6 | 19 | 95.0 |
| 2026-01-16T04:43:00 | 35.6501 | 26.2200 | 1173.0 | -0.17 | -2.78 | 1 | 7.6 | 7.6 | -98.4 | 19 | 95.0 |
| 2026-01-16T04:43:00 | 35.6501 | 26.2200 | 1205.0 | -4.55 | -0.56 | 4 | 6.4 | 7.1 | -97.9 | 3 | 15.0 |
| 2026-01-16T04:43:00 | 35.6501 | 26.2200 | 1237.0 | -17.59 | -4.25 | 4 | 5.2 | 5.0 | -99.1 | 1 | 5.0 |
| 2026-01-16T04:44:00 | 35.6501 | 26.2200 | 53.0 | 6.15 | -2.40 | 1 | 165.5 | 164.1 | -80.6 | 15 | 78.9 |
| 2026-01-16T04:44:00 | 35.6501 | 26.2200 | 85.0 | 6.88 | -7.97 | 1 | 154.5 | 153.2 | -79.6 | 14 | 73.7 |
| 2026-01-16T04:44:00 | 35.6501 | 26.2200 | 117.0 | -1.01 | -7.69 | 1 | 145.1 | 144.3 | -79.6 | 17 | 89.5 |
| 2026-01-16T04:44:00 | 35.6501 | 26.2200 | 149.0 | -3.14 | -7.10 | 1 | 130.8 | 128.6 | -83.4 | 15 | 78.9 |
| 2026-01-16T04:44:00 | 35.6501 | 26.2200 | 181.0 | -4.59 | -2.87 | 1 | 128.3 | 126.7 | -81.7 | 14 | 73.7 |
| 2026-01-16T04:44:00 | 35.6501 | 26.2200 | 213.0 | -1.28 | -5.38 | 1 | 131.0 | 129.2 | -78.4 | 12 | 63.2 |
| 2026-01-16T04:44:00 | 35.6501 | 26.2200 | 245.0 | 3.58 | -7.06 | 1 | 125.7 | 125.6 | -77.9 | 16 | 84.2 |
| 2026-01-16T04:44:00 | 35.6501 | 26.2200 | 277.0 | 10.08 | -2.59 | 1 | 120.1 | 119.2 | -78.9 | 17 | 89.5 |
| 2026-01-16T04:44:00 | 35.6501 | 26.2200 | 309.0 | 5.04 | -9.97 | 1 | 113.4 | 113.0 | -79.9 | 16 | 84.2 |
| 2026-01-16T04:44:00 | 35.6501 | 26.2200 | 341.0 | 2.85 | -6.20 | 1 | 107.2 | 106.8 | -81.0 | 18 | 94.7 |
| 2026-01-16T04:44:00 | 35.6501 | 26.2200 | 373.0 | 0.42 | -1.26 | 1 | 104.9 | 104.2 | -80.6 | 17 | 89.5 |
| 2026-01-16T04:44:00 | 35.6501 | 26.2200 | 405.0 | 0.27 | -5.07 | 1 | 106.0 | 105.3 | -78.7 | 16 | 84.2 |
| 2026-01-16T04:44:00 | 35.6501 | 26.2200 | 437.0 | 3.14 | -0.70 | 1 | 106.7 | 106.2 | -76.9 | 17 | 89.5 |
| 2026-01-16T04:44:00 | 35.6501 | 26.2200 | 469.0 | 2.92 | -2.32 | 1 | 104.6 | 104.1 | -76.5 | 15 | 78.9 |
| 2026-01-16T04:44:00 | 35.6501 | 26.2200 | 501.0 | -2.75 | 0.25 | 1 | 105.1 | 103.4 | -75.5 | 13 | 68.4 |
| 2026-01-16T04:44:00 | 35.6501 | 26.2200 | 533.0 | -5.57 | 3.31 | 1 | 100.5 | 98.8 | -76.2 | 13 | 68.4 |
| 2026-01-16T04:44:00 | 35.6501 | 26.2200 | 565.0 | 3.47 | -3.84 | 1 | 97.0 | 95.6 | -76.4 | 15 | 78.9 |
| 2026-01-16T04:44:00 | 35.6501 | 26.2200 | 597.0 | -0.48 | -8.00 | 1 | 91.1 | 90.2 | -77.6 | 16 | 84.2 |
| 2026-01-16T04:44:00 | 35.6501 | 26.2200 | 629.0 | 2.34 | -2.77 | 1 | 86.6 | 85.2 | -78.7 | 14 | 73.7 |
| 2026-01-16T04:44:00 | 35.6501 | 26.2200 | 661.0 | 0.90 | -1.84 | 1 | 79.4 | 78.3 | -80.5 | 15 | 78.9 |
| 2026-01-16T04:44:00 | 35.6501 | 26.2200 | 693.0 | 4.50 | 1.07 | 1 | 77.6 | 75.2 | -80.8 | 13 | 68.4 |
| 2026-01-16T04:44:00 | 35.6501 | 26.2200 | 725.0 | 4.86 | -1.61 | 1 | 74.8 | 73.2 | -80.6 | 13 | 68.4 |
| 2026-01-16T04:44:00 | 35.6501 | 26.2200 | 757.0 | 0.87 | 4.31 | 1 | 66.4 | 66.5 | -82.4 | 17 | 89.5 |
| 2026-01-16T04:44:00 | 35.6501 | 26.2200 | 789.0 | 4.23 | -2.64 | 1 | 64.7 | 64.1 | -82.4 | 16 | 84.2 |
| 2026-01-16T04:44:00 | 35.6501 | 26.2200 | 821.0 | 1.96 | -4.36 | 1 | 60.6 | 60.0 | -83.2 | 18 | 94.7 |
| 2026-01-16T04:44:00 | 35.6501 | 26.2200 | 853.0 | 5.52 | -5.07 | 1 | 60.0 | 59.0 | -82.6 | 17 | 89.5 |
| 2026-01-16T04:44:00 | 35.6501 | 26.2200 | 885.0 | 1.54 | 1.10 | 1 | 53.4 | 53.4 | -84.1 | 18 | 94.7 |
| 2026-01-16T04:44:00 | 35.6501 | 26.2200 | 917.0 | 4.05 | 7.77 | 1 | 48.1 | 47.2 | -85.8 | 16 | 84.2 |
| 2026-01-16T04:44:00 | 35.6501 | 26.2200 | 949.0 | -0.01 | -1.61 | 1 | 43.1 | 42.4 | -87.0 | 16 | 84.2 |
| 2026-01-16T04:44:00 | 35.6501 | 26.2200 | 981.0 | 4.94 | -6.20 | 1 | 37.7 | 37.2 | -88.3 | 18 | 94.7 |
| 2026-01-16T04:44:00 | 35.6501 | 26.2200 | 1013.0 | 0.05 | -7.65 | 1 | 32.5 | 31.4 | -90.0 | 16 | 84.2 |
| 2026-01-16T04:44:00 | 35.6501 | 26.2200 | 1045.0 | 7.61 | -6.88 | 1 | 27.6 | 25.6 | -91.8 | 10 | 52.6 |
| 2026-01-16T04:44:00 | 35.6501 | 26.2200 | 1077.0 | -2.29 | -6.26 | 1 | 16.4 | 14.9 | -96.3 | 16 | 84.2 |
| 2026-01-16T04:44:00 | 35.6501 | 26.2200 | 1109.0 | -0.95 | -10.52 | 1 | 10.7 | 9.9 | -98.4 | 17 | 89.5 |
| 2026-01-16T04:44:00 | 35.6501 | 26.2200 | 1141.0 | 0.56 | -2.68 | 1 | 8.0 | 7.1 | -99.7 | 18 | 94.7 |
| 2026-01-16T04:44:00 | 35.6501 | 26.2200 | 1173.0 | -0.40 | -1.93 | 1 | 7.9 | 6.5 | -99.3 | 17 | 89.5 |
| 2026-01-16T04:44:00 | 35.6501 | 26.2200 | 1205.0 | 2.79 | -4.64 | 1 | 8.1 | 5.4 | -99.6 | 5 | 26.3 |
| 2026-01-16T04:45:00 | 35.6501 | 26.2200 | 53.0 | 9.48 | -2.23 | 1 | 165.1 | 163.4 | -81.0 | 14 | 73.7 |
| 2026-01-16T04:45:00 | 35.6501 | 26.2200 | 85.0 | -1.63 | -3.50 | 1 | 152.9 | 151.9 | -80.1 | 13 | 68.4 |
| 2026-01-16T04:45:00 | 35.6501 | 26.2200 | 117.0 | 5.02 | -6.96 | 1 | 145.4 | 145.3 | -79.1 | 16 | 84.2 |
| 2026-01-16T04:45:00 | 35.6501 | 26.2200 | 149.0 | -4.71 | -5.57 | 1 | 129.2 | 128.8 | -83.3 | 17 | 89.5 |
| 2026-01-16T04:45:00 | 35.6501 | 26.2200 | 181.0 | -0.54 | 3.30 | 1 | 122.7 | 122.7 | -83.4 | 17 | 89.5 |
| 2026-01-16T04:45:00 | 35.6501 | 26.2200 | 213.0 | 5.07 | -7.25 | 1 | 131.8 | 130.8 | -77.7 | 16 | 84.2 |
| 2026-01-16T04:45:00 | 35.6501 | 26.2200 | 245.0 | 2.11 | 1.67 | 1 | 127.9 | 125.9 | -77.8 | 14 | 73.7 |
| 2026-01-16T04:45:00 | 35.6501 | 26.2200 | 277.0 | 9.28 | -7.87 | 1 | 121.4 | 120.0 | -78.6 | 15 | 78.9 |
| 2026-01-16T04:45:00 | 35.6501 | 26.2200 | 309.0 | -2.38 | -10.02 | 1 | 113.8 | 113.2 | -79.8 | 16 | 84.2 |
| 2026-01-16T04:45:00 | 35.6501 | 26.2200 | 341.0 | 2.31 | -2.17 | 1 | 106.6 | 105.9 | -81.4 | 16 | 84.2 |
| 2026-01-16T04:45:00 | 35.6501 | 26.2200 | 373.0 | -6.37 | 6.05 | 1 | 104.7 | 103.2 | -81.1 | 14 | 73.7 |
| 2026-01-16T04:45:00 | 35.6501 | 26.2200 | 405.0 | 5.37 | 2.01 | 1 | 105.7 | 103.4 | -79.5 | 14 | 73.7 |
| 2026-01-16T04:45:00 | 35.6501 | 26.2200 | 437.0 | 4.80 | -1.40 | 1 | 107.4 | 106.3 | -76.9 | 15 | 78.9 |
| 2026-01-16T04:45:00 | 35.6501 | 26.2200 | 469.0 | 6.18 | -2.63 | 1 | 105.6 | 103.7 | -76.7 | 12 | 63.2 |
| 2026-01-16T04:45:00 | 35.6501 | 26.2200 | 501.0 | -5.49 | 6.92 | 1 | 104.6 | 104.0 | -75.2 | 15 | 78.9 |
| 2026-01-16T04:45:00 | 35.6501 | 26.2200 | 533.0 | 0.74 | -2.29 | 1 | 102.9 | 101.8 | -74.9 | 13 | 68.4 |
| 2026-01-16T04:45:00 | 35.6501 | 26.2200 | 565.0 | 1.78 | 3.85 | 1 | 94.6 | 93.6 | -77.3 | 16 | 84.2 |
| 2026-01-16T04:45:00 | 35.6501 | 26.2200 | 597.0 | 2.14 | -4.78 | 1 | 90.8 | 90.1 | -77.6 | 15 | 78.9 |
| 2026-01-16T04:45:00 | 35.6501 | 26.2200 | 629.0 | 3.37 | -10.10 | 1 | 84.5 | 83.3 | -79.5 | 16 | 84.2 |
| 2026-01-16T04:45:00 | 35.6501 | 26.2200 | 661.0 | 4.33 | -9.85 | 1 | 80.4 | 79.1 | -80.2 | 16 | 84.2 |
| 2026-01-16T04:45:00 | 35.6501 | 26.2200 | 693.0 | 7.32 | -0.18 | 1 | 75.2 | 74.6 | -81.0 | 17 | 89.5 |
| 2026-01-16T04:45:00 | 35.6501 | 26.2200 | 725.0 | 0.99 | -4.01 | 1 | 74.9 | 73.0 | -80.6 | 12 | 63.2 |
| 2026-01-16T04:45:00 | 35.6501 | 26.2200 | 757.0 | -5.49 | -11.40 | 1 | 64.6 | 64.0 | -83.5 | 17 | 89.5 |
| 2026-01-16T04:45:00 | 35.6501 | 26.2200 | 789.0 | 2.27 | -9.50 | 1 | 63.7 | 61.9 | -83.4 | 15 | 78.9 |
| 2026-01-16T04:45:00 | 35.6501 | 26.2200 | 821.0 | -1.79 | -9.72 | 1 | 63.4 | 62.3 | -82.2 | 16 | 84.2 |
| 2026-01-16T04:45:00 | 35.6501 | 26.2200 | 853.0 | -2.45 | 1.22 | 1 | 60.6 | 59.0 | -82.6 | 15 | 78.9 |
| 2026-01-16T04:45:00 | 35.6501 | 26.2200 | 885.0 | 2.29 | -8.18 | 1 | 52.6 | 52.2 | -84.6 | 18 | 94.7 |
| 2026-01-16T04:45:00 | 35.6501 | 26.2200 | 917.0 | -1.80 | -5.83 | 1 | 49.3 | 48.4 | -85.3 | 16 | 84.2 |
| 2026-01-16T04:45:00 | 35.6501 | 26.2200 | 949.0 | -4.55 | -2.96 | 1 | 42.3 | 41.9 | -87.2 | 18 | 94.7 |
| 2026-01-16T04:45:00 | 35.6501 | 26.2200 | 981.0 | 4.50 | -2.90 | 1 | 36.5 | 36.1 | -88.9 | 13 | 68.4 |
| 2026-01-16T04:45:00 | 35.6501 | 26.2200 | 1013.0 | 0.29 | -0.52 | 1 | 29.7 | 29.8 | -90.7 | 16 | 84.2 |
| 2026-01-16T04:45:00 | 35.6501 | 26.2200 | 1045.0 | 5.15 | -2.44 | 1 | 22.1 | 22.0 | -93.5 | 16 | 84.2 |
| 2026-01-16T04:45:00 | 35.6501 | 26.2200 | 1077.0 | 2.31 | -4.30 | 1 | 14.9 | 14.4 | -96.6 | 18 | 94.7 |
| 2026-01-16T04:45:00 | 35.6501 | 26.2200 | 1109.0 | -1.08 | -7.81 | 1 | 10.7 | 10.7 | -97.9 | 19 | 100.0 |
| 2026-01-16T04:45:00 | 35.6501 | 26.2200 | 1141.0 | -2.71 | -3.63 | 1 | 7.6 | 7.6 | -99.3 | 19 | 100.0 |
| 2026-01-16T04:45:00 | 35.6501 | 26.2200 | 1173.0 | -3.74 | -4.61 | 1 | 6.7 | 6.7 | -99.1 | 19 | 100.0 |
| 2026-01-16T04:45:00 | 35.6501 | 26.2200 | 1205.0 | 0.98 | 3.41 | 1 | 6.0 | 5.8 | -99.1 | 6 | 31.6 |
| 2026-01-16T04:46:00 | 35.6501 | 26.2200 | 53.0 | 0.79 | -4.12 | 1 | 157.8 | 157.8 | -83.4 | 17 | 89.5 |
| 2026-01-16T04:46:00 | 35.6501 | 26.2200 | 85.0 | -0.11 | -10.50 | 1 | 153.6 | 152.5 | -79.9 | 16 | 84.2 |
| 2026-01-16T04:46:00 | 35.6501 | 26.2200 | 117.0 | 0.19 | -19.32 | 1 | 145.9 | 145.0 | -79.2 | 12 | 63.2 |
| 2026-01-16T04:46:00 | 35.6501 | 26.2200 | 149.0 | -10.35 | -8.80 | 1 | 129.5 | 128.4 | -83.5 | 14 | 73.7 |
| 2026-01-16T04:46:00 | 35.6501 | 26.2200 | 181.0 | -0.76 | -6.87 | 1 | 127.4 | 125.5 | -82.2 | 15 | 78.9 |
| 2026-01-16T04:46:00 | 35.6501 | 26.2200 | 213.0 | -1.34 | -2.02 | 1 | 130.1 | 128.5 | -78.7 | 13 | 68.4 |
| 2026-01-16T04:46:00 | 35.6501 | 26.2200 | 245.0 | 8.93 | 6.07 | 1 | 127.8 | 126.5 | -77.5 | 14 | 73.7 |
| 2026-01-16T04:46:00 | 35.6501 | 26.2200 | 277.0 | 5.76 | -1.78 | 1 | 121.0 | 120.4 | -78.4 | 17 | 89.5 |
| 2026-01-16T04:46:00 | 35.6501 | 26.2200 | 309.0 | -3.52 | -4.53 | 1 | 112.9 | 112.1 | -80.3 | 14 | 73.7 |
| 2026-01-16T04:46:00 | 35.6501 | 26.2200 | 341.0 | -0.62 | -5.87 | 1 | 108.2 | 107.2 | -80.8 | 16 | 84.2 |
| 2026-01-16T04:46:00 | 35.6501 | 26.2200 | 373.0 | -1.43 | -9.62 | 1 | 103.7 | 102.5 | -81.4 | 16 | 84.2 |
| 2026-01-16T04:46:00 | 35.6501 | 26.2200 | 405.0 | 0.12 | 2.72 | 1 | 105.1 | 104.8 | -78.9 | 16 | 84.2 |
| 2026-01-16T04:46:00 | 35.6501 | 26.2200 | 437.0 | 1.75 | 0.07 | 1 | 107.9 | 106.6 | -76.8 | 16 | 84.2 |
| 2026-01-16T04:46:00 | 35.6501 | 26.2200 | 469.0 | 9.58 | 5.39 | 1 | 105.7 | 104.3 | -76.4 | 14 | 73.7 |
| 2026-01-16T04:46:00 | 35.6501 | 26.2200 | 501.0 | 2.83 | 0.13 | 1 | 104.3 | 103.7 | -75.4 | 17 | 89.5 |
| 2026-01-16T04:46:00 | 35.6501 | 26.2200 | 533.0 | -0.81 | -4.91 | 1 | 99.0 | 98.5 | -76.4 | 16 | 84.2 |
| 2026-01-16T04:46:00 | 35.6501 | 26.2200 | 565.0 | -0.65 | -9.01 | 1 | 96.1 | 94.8 | -76.8 | 16 | 84.2 |
| 2026-01-16T04:46:00 | 35.6501 | 26.2200 | 597.0 | 4.99 | -7.23 | 1 | 91.4 | 89.3 | -78.0 | 14 | 73.7 |
| 2026-01-16T04:46:00 | 35.6501 | 26.2200 | 629.0 | 3.79 | 6.94 | 1 | 86.0 | 84.8 | -78.8 | 15 | 78.9 |
| 2026-01-16T04:46:00 | 35.6501 | 26.2200 | 661.0 | -4.70 | -0.45 | 1 | 78.8 | 77.3 | -80.9 | 15 | 78.9 |
| 2026-01-16T04:46:00 | 35.6501 | 26.2200 | 693.0 | -1.39 | 0.50 | 1 | 78.2 | 77.4 | -79.8 | 15 | 78.9 |
| 2026-01-16T04:46:00 | 35.6501 | 26.2200 | 725.0 | 8.17 | 7.68 | 1 | 75.0 | 73.3 | -80.5 | 14 | 73.7 |
| 2026-01-16T04:46:00 | 35.6501 | 26.2200 | 757.0 | 4.04 | 1.67 | 1 | 67.7 | 66.9 | -82.2 | 14 | 73.7 |
| 2026-01-16T04:46:00 | 35.6501 | 26.2200 | 789.0 | 9.02 | -4.46 | 1 | 62.1 | 61.2 | -83.7 | 16 | 84.2 |
| 2026-01-16T04:46:00 | 35.6501 | 26.2200 | 821.0 | 5.75 | -6.66 | 1 | 59.9 | 59.5 | -83.4 | 17 | 89.5 |
| 2026-01-16T04:46:00 | 35.6501 | 26.2200 | 853.0 | 1.76 | -3.76 | 1 | 58.3 | 57.5 | -83.3 | 14 | 73.7 |
| 2026-01-16T04:46:00 | 35.6501 | 26.2200 | 885.0 | -2.28 | -9.99 | 1 | 54.8 | 52.8 | -84.3 | 14 | 73.7 |
| 2026-01-16T04:46:00 | 35.6501 | 26.2200 | 917.0 | 5.65 | -2.44 | 1 | 49.5 | 47.9 | -85.5 | 16 | 84.2 |
| 2026-01-16T04:46:00 | 35.6501 | 26.2200 | 949.0 | 11.74 | -5.59 | 1 | 44.0 | 42.9 | -86.7 | 16 | 84.2 |
| 2026-01-16T04:46:00 | 35.6501 | 26.2200 | 981.0 | 4.94 | -3.09 | 1 | 35.3 | 35.3 | -89.2 | 18 | 94.7 |
| 2026-01-16T04:46:00 | 35.6501 | 26.2200 | 1013.0 | -4.56 | -2.97 | 1 | 32.1 | 31.1 | -90.2 | 14 | 73.7 |
| 2026-01-16T04:46:00 | 35.6501 | 26.2200 | 1045.0 | -6.68 | -3.27 | 1 | 24.3 | 24.3 | -92.4 | 19 | 100.0 |
| 2026-01-16T04:46:00 | 35.6501 | 26.2200 | 1077.0 | 4.33 | -4.88 | 1 | 15.5 | 15.5 | -96.0 | 18 | 94.7 |
| 2026-01-16T04:46:00 | 35.6501 | 26.2200 | 1109.0 | 1.15 | 3.03 | 1 | 10.2 | 10.2 | -98.3 | 19 | 100.0 |
| 2026-01-16T04:46:00 | 35.6501 | 26.2200 | 1141.0 | 2.87 | 0.71 | 1 | 7.7 | 7.4 | -99.5 | 18 | 94.7 |
| 2026-01-16T04:46:00 | 35.6501 | 26.2200 | 1173.0 | -1.07 | 0.42 | 1 | 7.3 | 7.3 | -98.7 | 19 | 100.0 |
| 2026-01-16T04:46:00 | 35.6501 | 26.2200 | 1205.0 | -0.57 | -6.38 | 1 | 6.2 | 6.2 | -98.7 | 5 | 26.3 |
| 2026-01-16T04:47:00 | 35.6501 | 26.2200 | 53.0 | 1.01 | -5.22 | 1 | 162.6 | 159.9 | -82.5 | 13 | 65.0 |
| 2026-01-16T04:47:00 | 35.6501 | 26.2200 | 85.0 | -6.90 | -6.22 | 1 | 150.9 | 150.8 | -80.6 | 16 | 80.0 |
| 2026-01-16T04:47:00 | 35.6501 | 26.2200 | 117.0 | -2.98 | -5.17 | 1 | 143.2 | 141.3 | -80.9 | 13 | 65.0 |
| 2026-01-16T04:47:00 | 35.6501 | 26.2200 | 149.0 | 2.08 | -4.68 | 1 | 129.6 | 128.1 | -83.6 | 15 | 75.0 |
| 2026-01-16T04:47:00 | 35.6501 | 26.2200 | 181.0 | 5.21 | 5.07 | 1 | 127.0 | 125.8 | -82.1 | 14 | 70.0 |
| 2026-01-16T04:47:00 | 35.6501 | 26.2200 | 213.0 | -2.52 | 3.80 | 1 | 130.6 | 128.5 | -78.7 | 14 | 70.0 |
| 2026-01-16T04:47:00 | 35.6501 | 26.2200 | 245.0 | 0.70 | 4.61 | 1 | 127.4 | 126.2 | -77.7 | 15 | 75.0 |
| 2026-01-16T04:47:00 | 35.6501 | 26.2200 | 277.0 | 4.53 | 0.99 | 1 | 122.1 | 121.3 | -78.0 | 16 | 80.0 |
| 2026-01-16T04:47:00 | 35.6501 | 26.2200 | 309.0 | 3.45 | -1.20 | 1 | 114.1 | 113.5 | -79.7 | 15 | 75.0 |
| 2026-01-16T04:47:00 | 35.6501 | 26.2200 | 341.0 | 0.99 | 0.95 | 1 | 107.5 | 107.3 | -80.8 | 17 | 85.0 |
| 2026-01-16T04:47:00 | 35.6501 | 26.2200 | 373.0 | 2.03 | 3.09 | 1 | 105.6 | 104.3 | -80.6 | 15 | 75.0 |
| 2026-01-16T04:47:00 | 35.6501 | 26.2200 | 405.0 | -5.11 | -3.80 | 1 | 107.2 | 105.8 | -78.5 | 15 | 75.0 |
| 2026-01-16T04:47:00 | 35.6501 | 26.2200 | 437.0 | 2.24 | -5.27 | 1 | 107.3 | 106.4 | -76.8 | 15 | 75.0 |
| 2026-01-16T04:47:00 | 35.6501 | 26.2200 | 469.0 | 1.44 | -9.04 | 1 | 105.2 | 104.4 | -76.4 | 17 | 85.0 |
| 2026-01-16T04:47:00 | 35.6501 | 26.2200 | 501.0 | -1.65 | 3.93 | 1 | 103.4 | 102.8 | -75.8 | 15 | 75.0 |
| 2026-01-16T04:47:00 | 35.6501 | 26.2200 | 533.0 | 4.53 | -6.91 | 1 | 97.5 | 97.4 | -76.9 | 15 | 75.0 |
| 2026-01-16T04:47:00 | 35.6501 | 26.2200 | 565.0 | -2.13 | -0.57 | 1 | 96.0 | 95.1 | -76.7 | 15 | 75.0 |
| 2026-01-16T04:47:00 | 35.6501 | 26.2200 | 597.0 | -9.54 | 0.49 | 1 | 92.1 | 90.7 | -77.4 | 16 | 80.0 |
| 2026-01-16T04:47:00 | 35.6501 | 26.2200 | 629.0 | -0.30 | 1.33 | 1 | 85.5 | 82.9 | -79.7 | 14 | 70.0 |
| 2026-01-16T04:47:00 | 35.6501 | 26.2200 | 661.0 | 0.23 | 2.86 | 1 | 79.1 | 78.4 | -80.5 | 16 | 80.0 |
| 2026-01-16T04:47:00 | 35.6501 | 26.2200 | 693.0 | 2.71 | -4.28 | 1 | 79.5 | 79.2 | -79.0 | 16 | 80.0 |
| 2026-01-16T04:47:00 | 35.6501 | 26.2200 | 725.0 | 4.57 | -5.32 | 1 | 75.4 | 73.4 | -80.5 | 12 | 60.0 |
| 2026-01-16T04:47:00 | 35.6501 | 26.2200 | 757.0 | -1.16 | -2.84 | 1 | 67.3 | 66.1 | -82.6 | 14 | 70.0 |
| 2026-01-16T04:47:00 | 35.6501 | 26.2200 | 789.0 | 6.15 | -5.54 | 1 | 60.9 | 60.4 | -84.1 | 16 | 80.0 |
| 2026-01-16T04:47:00 | 35.6501 | 26.2200 | 821.0 | 0.45 | 6.20 | 1 | 61.5 | 60.8 | -82.9 | 16 | 80.0 |
| 2026-01-16T04:47:00 | 35.6501 | 26.2200 | 853.0 | -5.80 | -0.05 | 1 | 58.6 | 57.5 | -83.3 | 15 | 75.0 |
| 2026-01-16T04:47:00 | 35.6501 | 26.2200 | 885.0 | -2.11 | -1.33 | 1 | 53.8 | 53.6 | -84.0 | 19 | 95.0 |
| 2026-01-16T04:47:00 | 35.6501 | 26.2200 | 917.0 | 7.66 | -1.72 | 1 | 49.8 | 48.6 | -85.2 | 17 | 85.0 |
| 2026-01-16T04:47:00 | 35.6501 | 26.2200 | 949.0 | 1.18 | 4.86 | 1 | 41.6 | 40.1 | -88.0 | 14 | 70.0 |
| 2026-01-16T04:47:00 | 35.6501 | 26.2200 | 981.0 | 3.20 | -9.23 | 1 | 35.9 | 34.4 | -89.6 | 15 | 75.0 |
| 2026-01-16T04:47:00 | 35.6501 | 26.2200 | 1013.0 | 4.71 | -8.72 | 1 | 30.8 | 30.2 | -90.5 | 15 | 75.0 |
| 2026-01-16T04:47:00 | 35.6501 | 26.2200 | 1045.0 | 3.89 | -8.67 | 1 | 23.4 | 22.9 | -93.1 | 17 | 85.0 |
| 2026-01-16T04:47:00 | 35.6501 | 26.2200 | 1077.0 | 5.61 | -4.31 | 1 | 15.7 | 15.4 | -96.0 | 18 | 90.0 |
| 2026-01-16T04:47:00 | 35.6501 | 26.2200 | 1109.0 | 0.82 | -3.96 | 1 | 11.5 | 11.1 | -97.6 | 18 | 90.0 |
| 2026-01-16T04:47:00 | 35.6501 | 26.2200 | 1141.0 | 3.55 | 1.54 | 1 | 7.7 | 6.9 | -99.9 | 17 | 85.0 |
| 2026-01-16T04:47:00 | 35.6501 | 26.2200 | 1173.0 | 1.96 | -0.04 | 1 | 7.3 | 6.7 | -99.1 | 17 | 85.0 |
| 2026-01-16T04:47:00 | 35.6501 | 26.2200 | 1205.0 | -0.42 | -0.21 | 4 | 6.0 | 6.8 | -98.2 | 3 | 15.0 |
| 2026-01-16T04:48:00 | 35.6501 | 26.2200 | 53.0 | 14.32 | -6.75 | 1 | 161.0 | 161.0 | -82.0 | 17 | 89.5 |
| 2026-01-16T04:48:00 | 35.6501 | 26.2200 | 85.0 | 2.59 | -9.95 | 1 | 149.8 | 149.8 | -81.1 | 18 | 94.7 |
| 2026-01-16T04:48:00 | 35.6501 | 26.2200 | 117.0 | -4.70 | -19.12 | 1 | 142.4 | 141.3 | -80.9 | 16 | 84.2 |
| 2026-01-16T04:48:00 | 35.6501 | 26.2200 | 149.0 | 3.66 | -6.89 | 1 | 128.6 | 128.6 | -83.4 | 14 | 73.7 |
| 2026-01-16T04:48:00 | 35.6501 | 26.2200 | 181.0 | 6.29 | 2.61 | 1 | 127.3 | 125.5 | -82.2 | 13 | 68.4 |
| 2026-01-16T04:48:00 | 35.6501 | 26.2200 | 213.0 | 6.02 | -6.68 | 1 | 127.8 | 126.6 | -79.5 | 16 | 84.2 |
| 2026-01-16T04:48:00 | 35.6501 | 26.2200 | 245.0 | -1.15 | -3.81 | 1 | 125.8 | 124.2 | -78.6 | 15 | 78.9 |
| 2026-01-16T04:48:00 | 35.6501 | 26.2200 | 277.0 | 1.73 | 2.04 | 1 | 117.9 | 116.9 | -79.9 | 17 | 89.5 |
| 2026-01-16T04:48:00 | 35.6501 | 26.2200 | 309.0 | 1.74 | 4.21 | 1 | 115.3 | 114.3 | -79.3 | 16 | 84.2 |
| 2026-01-16T04:48:00 | 35.6501 | 26.2200 | 341.0 | 8.19 | -5.79 | 1 | 109.2 | 108.2 | -80.4 | 15 | 78.9 |
| 2026-01-16T04:48:00 | 35.6501 | 26.2200 | 373.0 | 8.57 | -3.94 | 1 | 103.6 | 102.5 | -81.4 | 17 | 89.5 |
| 2026-01-16T04:48:00 | 35.6501 | 26.2200 | 405.0 | 2.16 | -0.12 | 1 | 104.8 | 103.8 | -79.4 | 17 | 89.5 |
| 2026-01-16T04:48:00 | 35.6501 | 26.2200 | 437.0 | 3.05 | -8.86 | 1 | 107.8 | 107.0 | -76.6 | 17 | 89.5 |
| 2026-01-16T04:48:00 | 35.6501 | 26.2200 | 469.0 | -2.76 | -1.11 | 1 | 107.7 | 107.1 | -75.2 | 17 | 89.5 |
| 2026-01-16T04:48:00 | 35.6501 | 26.2200 | 501.0 | 2.48 | 3.20 | 1 | 104.8 | 101.8 | -76.2 | 13 | 68.4 |
| 2026-01-16T04:48:00 | 35.6501 | 26.2200 | 533.0 | 1.50 | 0.05 | 1 | 98.3 | 98.0 | -76.6 | 17 | 89.5 |
| 2026-01-16T04:48:00 | 35.6501 | 26.2200 | 565.0 | -0.94 | -3.21 | 1 | 95.0 | 94.6 | -76.9 | 18 | 94.7 |
| 2026-01-16T04:48:00 | 35.6501 | 26.2200 | 597.0 | 1.03 | -11.45 | 1 | 90.0 | 88.2 | -78.5 | 16 | 84.2 |
| 2026-01-16T04:48:00 | 35.6501 | 26.2200 | 629.0 | 6.05 | 0.18 | 1 | 85.9 | 85.6 | -78.5 | 16 | 84.2 |
| 2026-01-16T04:48:00 | 35.6501 | 26.2200 | 661.0 | -0.53 | 2.02 | 1 | 77.8 | 77.1 | -81.1 | 17 | 89.5 |
| 2026-01-16T04:48:00 | 35.6501 | 26.2200 | 693.0 | -0.25 | -1.36 | 1 | 74.3 | 73.3 | -81.6 | 16 | 84.2 |
| 2026-01-16T04:48:00 | 35.6501 | 26.2200 | 725.0 | 2.06 | 1.67 | 1 | 72.2 | 71.0 | -81.5 | 14 | 73.7 |
| 2026-01-16T04:48:00 | 35.6501 | 26.2200 | 757.0 | 0.71 | -4.91 | 1 | 67.3 | 66.0 | -82.6 | 15 | 78.9 |
| 2026-01-16T04:48:00 | 35.6501 | 26.2200 | 789.0 | 3.57 | 3.94 | 1 | 62.7 | 61.4 | -83.6 | 13 | 68.4 |
| 2026-01-16T04:48:00 | 35.6501 | 26.2200 | 821.0 | -2.73 | -2.40 | 1 | 60.9 | 60.3 | -83.1 | 15 | 78.9 |
| 2026-01-16T04:48:00 | 35.6501 | 26.2200 | 853.0 | -10.59 | 5.66 | 1 | 57.1 | 56.3 | -83.8 | 15 | 78.9 |
| 2026-01-16T04:48:00 | 35.6501 | 26.2200 | 885.0 | -3.32 | -5.41 | 1 | 52.9 | 52.5 | -84.5 | 18 | 94.7 |
| 2026-01-16T04:48:00 | 35.6501 | 26.2200 | 917.0 | -0.04 | -1.03 | 1 | 49.9 | 48.1 | -85.4 | 14 | 73.7 |
| 2026-01-16T04:48:00 | 35.6501 | 26.2200 | 949.0 | 6.70 | 2.26 | 1 | 43.2 | 42.8 | -86.8 | 17 | 89.5 |
| 2026-01-16T04:48:00 | 35.6501 | 26.2200 | 981.0 | 3.75 | -3.97 | 1 | 37.5 | 36.7 | -88.6 | 15 | 78.9 |
| 2026-01-16T04:48:00 | 35.6501 | 26.2200 | 1013.0 | -4.91 | -3.56 | 1 | 32.3 | 31.5 | -90.0 | 17 | 89.5 |
| 2026-01-16T04:48:00 | 35.6501 | 26.2200 | 1045.0 | 2.28 | 5.36 | 1 | 24.6 | 23.6 | -92.7 | 15 | 78.9 |
| 2026-01-16T04:48:00 | 35.6501 | 26.2200 | 1077.0 | 1.97 | 1.03 | 1 | 15.0 | 15.0 | -96.2 | 19 | 100.0 |
| 2026-01-16T04:48:00 | 35.6501 | 26.2200 | 1109.0 | -2.43 | 0.30 | 1 | 10.6 | 10.6 | -98.0 | 18 | 94.7 |
| 2026-01-16T04:48:00 | 35.6501 | 26.2200 | 1141.0 | -2.92 | -4.76 | 1 | 8.1 | 6.6 | -100.1 | 17 | 89.5 |
| 2026-01-16T04:48:00 | 35.6501 | 26.2200 | 1173.0 | -6.65 | -2.70 | 1 | 7.4 | 6.2 | -99.6 | 16 | 84.2 |
| 2026-01-16T04:48:00 | 35.6501 | 26.2200 | 1205.0 | 2.26 | -3.47 | 4 | 7.4 | 6.3 | -98.6 | 3 | 15.8 |
| 2026-01-16T04:49:00 | 35.6501 | 26.2200 | 53.0 | 0.98 | -4.69 | 1 | 161.6 | 160.4 | -82.3 | 15 | 78.9 |
| 2026-01-16T04:49:00 | 35.6501 | 26.2200 | 85.0 | 4.76 | -13.29 | 1 | 149.3 | 148.0 | -81.9 | 15 | 78.9 |
| 2026-01-16T04:49:00 | 35.6501 | 26.2200 | 117.0 | 3.34 | -23.84 | 1 | 144.3 | 140.9 | -81.1 | 11 | 57.9 |
| 2026-01-16T04:49:00 | 35.6501 | 26.2200 | 149.0 | 1.03 | -12.20 | 1 | 128.7 | 126.6 | -84.3 | 11 | 57.9 |
| 2026-01-16T04:49:00 | 35.6501 | 26.2200 | 181.0 | 0.68 | -6.58 | 1 | 125.8 | 125.6 | -82.2 | 17 | 89.5 |
| 2026-01-16T04:49:00 | 35.6501 | 26.2200 | 213.0 | 3.20 | -5.32 | 1 | 128.9 | 128.3 | -78.8 | 14 | 73.7 |
| 2026-01-16T04:49:00 | 35.6501 | 26.2200 | 245.0 | 0.84 | -4.99 | 1 | 126.8 | 124.1 | -78.6 | 13 | 68.4 |
| 2026-01-16T04:49:00 | 35.6501 | 26.2200 | 277.0 | 3.75 | -2.53 | 1 | 120.5 | 120.2 | -78.5 | 17 | 89.5 |
| 2026-01-16T04:49:00 | 35.6501 | 26.2200 | 309.0 | -1.17 | -1.14 | 1 | 116.1 | 116.1 | -78.6 | 19 | 100.0 |
| 2026-01-16T04:49:00 | 35.6501 | 26.2200 | 341.0 | 2.50 | 0.98 | 1 | 109.7 | 109.0 | -80.1 | 15 | 78.9 |
| 2026-01-16T04:49:00 | 35.6501 | 26.2200 | 373.0 | 2.14 | -3.96 | 1 | 105.0 | 104.2 | -80.7 | 14 | 73.7 |
| 2026-01-16T04:49:00 | 35.6501 | 26.2200 | 405.0 | 0.37 | 2.72 | 1 | 105.9 | 104.2 | -79.2 | 13 | 68.4 |
| 2026-01-16T04:49:00 | 35.6501 | 26.2200 | 437.0 | 2.51 | 4.13 | 1 | 107.0 | 106.8 | -76.7 | 16 | 84.2 |
| 2026-01-16T04:49:00 | 35.6501 | 26.2200 | 469.0 | 2.25 | 0.95 | 1 | 107.6 | 105.9 | -75.7 | 13 | 68.4 |
| 2026-01-16T04:49:00 | 35.6501 | 26.2200 | 501.0 | -10.00 | 2.78 | 1 | 104.3 | 103.1 | -75.7 | 13 | 68.4 |
| 2026-01-16T04:49:00 | 35.6501 | 26.2200 | 533.0 | -0.51 | -2.31 | 1 | 100.4 | 99.5 | -76.0 | 14 | 73.7 |
| 2026-01-16T04:49:00 | 35.6501 | 26.2200 | 565.0 | 5.65 | -5.47 | 1 | 96.4 | 96.1 | -76.2 | 15 | 78.9 |
| 2026-01-16T04:49:00 | 35.6501 | 26.2200 | 597.0 | 5.21 | -1.07 | 1 | 91.3 | 89.8 | -77.8 | 15 | 78.9 |
| 2026-01-16T04:49:00 | 35.6501 | 26.2200 | 629.0 | 0.25 | -5.35 | 1 | 86.5 | 86.2 | -78.2 | 17 | 89.5 |
| 2026-01-16T04:49:00 | 35.6501 | 26.2200 | 661.0 | 0.16 | -0.89 | 1 | 79.7 | 79.2 | -80.1 | 16 | 84.2 |
| 2026-01-16T04:49:00 | 35.6501 | 26.2200 | 693.0 | -1.62 | 1.23 | 1 | 75.8 | 74.7 | -81.0 | 14 | 73.7 |
| 2026-01-16T04:49:00 | 35.6501 | 26.2200 | 725.0 | 1.10 | -1.96 | 1 | 75.1 | 73.1 | -80.6 | 15 | 78.9 |
| 2026-01-16T04:49:00 | 35.6501 | 26.2200 | 757.0 | 3.21 | -5.99 | 1 | 66.5 | 65.5 | -82.9 | 17 | 89.5 |
| 2026-01-16T04:49:00 | 35.6501 | 26.2200 | 789.0 | -3.99 | 3.61 | 1 | 62.7 | 60.9 | -83.8 | 15 | 78.9 |
| 2026-01-16T04:49:00 | 35.6501 | 26.2200 | 821.0 | 5.74 | 1.56 | 1 | 61.4 | 60.4 | -83.0 | 16 | 84.2 |
| 2026-01-16T04:49:00 | 35.6501 | 26.2200 | 853.0 | 2.40 | -3.30 | 1 | 57.5 | 56.5 | -83.8 | 17 | 89.5 |
| 2026-01-16T04:49:00 | 35.6501 | 26.2200 | 885.0 | -3.38 | -4.03 | 1 | 52.3 | 52.1 | -84.7 | 18 | 94.7 |
| 2026-01-16T04:49:00 | 35.6501 | 26.2200 | 917.0 | -4.27 | 0.66 | 1 | 47.8 | 47.3 | -85.8 | 16 | 84.2 |
| 2026-01-16T04:49:00 | 35.6501 | 26.2200 | 949.0 | 5.13 | -3.95 | 1 | 41.7 | 40.6 | -87.8 | 12 | 63.2 |
| 2026-01-16T04:49:00 | 35.6501 | 26.2200 | 981.0 | 2.82 | -9.00 | 1 | 36.0 | 35.6 | -89.1 | 17 | 89.5 |
| 2026-01-16T04:49:00 | 35.6501 | 26.2200 | 1013.0 | -4.92 | -8.52 | 1 | 30.4 | 29.4 | -90.9 | 16 | 84.2 |
| 2026-01-16T04:49:00 | 35.6501 | 26.2200 | 1045.0 | 0.01 | -1.14 | 1 | 24.2 | 22.2 | -93.4 | 14 | 73.7 |
| 2026-01-16T04:49:00 | 35.6501 | 26.2200 | 1077.0 | 13.20 | 1.92 | 1 | 16.4 | 15.2 | -96.1 | 14 | 73.7 |
| 2026-01-16T04:49:00 | 35.6501 | 26.2200 | 1109.0 | 7.59 | -1.01 | 1 | 10.6 | 10.3 | -98.2 | 17 | 89.5 |
| 2026-01-16T04:49:00 | 35.6501 | 26.2200 | 1141.0 | -0.02 | 0.05 | 1 | 7.6 | 6.6 | -100.1 | 18 | 94.7 |
| 2026-01-16T04:49:00 | 35.6501 | 26.2200 | 1173.0 | -0.76 | -2.93 | 1 | 6.9 | 6.3 | -99.5 | 16 | 84.2 |
| 2026-01-16T04:49:00 | 35.6501 | 26.2200 | 1205.0 | 2.54 | 2.51 | 4 | 6.5 | 5.2 | -99.7 | 2 | 10.5 |
| 2026-01-16T04:50:00 | 35.6501 | 26.2200 | 53.0 | 5.09 | -6.48 | 1 | 159.1 | 159.1 | -82.8 | 19 | 95.0 |
| 2026-01-16T04:50:00 | 35.6501 | 26.2200 | 85.0 | 2.57 | -8.39 | 1 | 147.8 | 147.8 | -82.0 | 19 | 95.0 |
| 2026-01-16T04:50:00 | 35.6501 | 26.2200 | 117.0 | 2.84 | -8.77 | 1 | 142.4 | 141.2 | -81.0 | 14 | 70.0 |
| 2026-01-16T04:50:00 | 35.6501 | 26.2200 | 149.0 | -0.39 | -5.01 | 1 | 129.4 | 128.7 | -83.4 | 16 | 80.0 |
| 2026-01-16T04:50:00 | 35.6501 | 26.2200 | 181.0 | -2.24 | -5.11 | 1 | 123.7 | 123.3 | -83.2 | 17 | 85.0 |
| 2026-01-16T04:50:00 | 35.6501 | 26.2200 | 213.0 | -1.59 | 4.40 | 1 | 127.2 | 125.4 | -80.0 | 14 | 70.0 |
| 2026-01-16T04:50:00 | 35.6501 | 26.2200 | 245.0 | -2.36 | -6.53 | 1 | 126.8 | 125.8 | -77.9 | 15 | 75.0 |
| 2026-01-16T04:50:00 | 35.6501 | 26.2200 | 277.0 | 1.84 | 1.47 | 1 | 119.9 | 118.1 | -79.4 | 17 | 85.0 |
| 2026-01-16T04:50:00 | 35.6501 | 26.2200 | 309.0 | 7.10 | -1.71 | 1 | 113.8 | 113.3 | -79.8 | 17 | 85.0 |
| 2026-01-16T04:50:00 | 35.6501 | 26.2200 | 341.0 | 2.40 | -3.53 | 1 | 109.4 | 109.0 | -80.1 | 19 | 95.0 |
| 2026-01-16T04:50:00 | 35.6501 | 26.2200 | 373.0 | -0.28 | 0.96 | 1 | 105.5 | 105.1 | -80.2 | 19 | 95.0 |
| 2026-01-16T04:50:00 | 35.6501 | 26.2200 | 405.0 | 4.87 | 5.39 | 1 | 106.1 | 105.4 | -78.7 | 16 | 80.0 |
| 2026-01-16T04:50:00 | 35.6501 | 26.2200 | 437.0 | 0.85 | -0.41 | 1 | 107.4 | 106.9 | -76.6 | 16 | 80.0 |
| 2026-01-16T04:50:00 | 35.6501 | 26.2200 | 469.0 | 4.52 | 0.74 | 1 | 105.6 | 105.1 | -76.1 | 17 | 85.0 |
| 2026-01-16T04:50:00 | 35.6501 | 26.2200 | 501.0 | 1.57 | 0.85 | 1 | 102.1 | 101.5 | -76.4 | 18 | 90.0 |
| 2026-01-16T04:50:00 | 35.6501 | 26.2200 | 533.0 | -10.33 | -1.10 | 1 | 98.9 | 98.7 | -76.3 | 19 | 95.0 |
| 2026-01-16T04:50:00 | 35.6501 | 26.2200 | 565.0 | 1.93 | -4.46 | 1 | 95.6 | 95.2 | -76.6 | 15 | 75.0 |
| 2026-01-16T04:50:00 | 35.6501 | 26.2200 | 597.0 | -3.82 | -6.26 | 1 | 90.2 | 90.0 | -77.7 | 17 | 85.0 |
| 2026-01-16T04:50:00 | 35.6501 | 26.2200 | 629.0 | -4.84 | -6.49 | 1 | 86.9 | 85.0 | -78.7 | 15 | 75.0 |
| 2026-01-16T04:50:00 | 35.6501 | 26.2200 | 661.0 | -6.74 | -8.86 | 1 | 80.7 | 78.8 | -80.3 | 15 | 75.0 |
| 2026-01-16T04:50:00 | 35.6501 | 26.2200 | 693.0 | -6.99 | 3.22 | 1 | 78.2 | 76.9 | -80.1 | 15 | 75.0 |
| 2026-01-16T04:50:00 | 35.6501 | 26.2200 | 725.0 | 2.48 | -7.98 | 1 | 73.5 | 72.0 | -81.1 | 14 | 70.0 |
| 2026-01-16T04:50:00 | 35.6501 | 26.2200 | 757.0 | 2.28 | -8.66 | 1 | 68.2 | 67.1 | -82.2 | 17 | 85.0 |
| 2026-01-16T04:50:00 | 35.6501 | 26.2200 | 789.0 | 5.79 | -0.86 | 1 | 63.1 | 62.3 | -83.2 | 17 | 85.0 |
| 2026-01-16T04:50:00 | 35.6501 | 26.2200 | 821.0 | 6.09 | -3.30 | 1 | 59.7 | 59.2 | -83.6 | 19 | 95.0 |
| 2026-01-16T04:50:00 | 35.6501 | 26.2200 | 853.0 | 3.46 | -2.71 | 1 | 58.8 | 58.3 | -83.0 | 18 | 90.0 |
| 2026-01-16T04:50:00 | 35.6501 | 26.2200 | 885.0 | 4.69 | -5.62 | 1 | 54.0 | 53.2 | -84.2 | 15 | 75.0 |
| 2026-01-16T04:50:00 | 35.6501 | 26.2200 | 917.0 | 3.97 | -7.33 | 1 | 48.8 | 48.4 | -85.3 | 19 | 95.0 |
| 2026-01-16T04:50:00 | 35.6501 | 26.2200 | 949.0 | 0.11 | -4.83 | 1 | 43.6 | 43.4 | -86.6 | 18 | 90.0 |
| 2026-01-16T04:50:00 | 35.6501 | 26.2200 | 981.0 | 2.25 | 4.14 | 1 | 38.3 | 37.0 | -88.4 | 16 | 80.0 |
| 2026-01-16T04:50:00 | 35.6501 | 26.2200 | 1013.0 | -4.10 | 1.08 | 1 | 31.6 | 29.5 | -90.9 | 13 | 65.0 |
| 2026-01-16T04:50:00 | 35.6501 | 26.2200 | 1045.0 | -7.61 | 1.99 | 1 | 23.5 | 22.2 | -93.4 | 16 | 80.0 |
| 2026-01-16T04:50:00 | 35.6501 | 26.2200 | 1077.0 | -7.21 | -6.30 | 1 | 16.6 | 15.9 | -95.7 | 18 | 90.0 |
| 2026-01-16T04:50:00 | 35.6501 | 26.2200 | 1109.0 | -4.02 | -0.39 | 1 | 10.1 | 10.1 | -98.3 | 19 | 95.0 |
| 2026-01-16T04:50:00 | 35.6501 | 26.2200 | 1141.0 | -1.89 | -7.05 | 1 | 7.5 | 7.5 | -99.4 | 20 | 100.0 |
| 2026-01-16T04:50:00 | 35.6501 | 26.2200 | 1173.0 | 0.51 | -2.45 | 1 | 6.5 | 6.5 | -99.4 | 19 | 95.0 |
| 2026-01-16T04:50:00 | 35.6501 | 26.2200 | 1205.0 | -2.58 | -10.85 | 4 | 6.1 | 5.0 | -100.0 | 2 | 10.0 |
| 2026-01-16T04:51:00 | 35.6501 | 26.2200 | 53.0 | 6.92 | -4.51 | 1 | 159.9 | 159.9 | -82.5 | 18 | 94.7 |
| 2026-01-16T04:51:00 | 35.6501 | 26.2200 | 85.0 | 4.06 | -15.33 | 1 | 150.0 | 148.1 | -81.8 | 13 | 68.4 |
| 2026-01-16T04:51:00 | 35.6501 | 26.2200 | 117.0 | -0.17 | -15.10 | 1 | 139.1 | 138.3 | -82.2 | 17 | 89.5 |
| 2026-01-16T04:51:00 | 35.6501 | 26.2200 | 149.0 | -4.50 | -15.79 | 1 | 128.5 | 127.0 | -84.1 | 13 | 68.4 |
| 2026-01-16T04:51:00 | 35.6501 | 26.2200 | 181.0 | 2.72 | -3.55 | 1 | 122.7 | 122.3 | -83.6 | 17 | 89.5 |
| 2026-01-16T04:51:00 | 35.6501 | 26.2200 | 213.0 | 3.85 | -2.31 | 1 | 125.8 | 123.9 | -80.7 | 14 | 73.7 |
| 2026-01-16T04:51:00 | 35.6501 | 26.2200 | 245.0 | 1.15 | -3.45 | 1 | 126.3 | 124.8 | -78.3 | 14 | 73.7 |
| 2026-01-16T04:51:00 | 35.6501 | 26.2200 | 277.0 | 7.17 | 4.15 | 1 | 119.9 | 118.7 | -79.1 | 16 | 84.2 |
| 2026-01-16T04:51:00 | 35.6501 | 26.2200 | 309.0 | -2.75 | 2.95 | 1 | 114.3 | 113.2 | -79.8 | 15 | 78.9 |
| 2026-01-16T04:51:00 | 35.6501 | 26.2200 | 341.0 | 2.83 | 9.10 | 1 | 109.8 | 107.7 | -80.6 | 14 | 73.7 |
| 2026-01-16T04:51:00 | 35.6501 | 26.2200 | 373.0 | 1.52 | 9.06 | 1 | 105.6 | 104.3 | -80.6 | 11 | 57.9 |
| 2026-01-16T04:51:00 | 35.6501 | 26.2200 | 405.0 | -0.43 | 0.51 | 1 | 108.7 | 108.1 | -77.5 | 15 | 78.9 |
| 2026-01-16T04:51:00 | 35.6501 | 26.2200 | 437.0 | 3.69 | 0.38 | 1 | 108.1 | 107.0 | -76.6 | 13 | 68.4 |
| 2026-01-16T04:51:00 | 35.6501 | 26.2200 | 469.0 | -0.09 | -2.88 | 1 | 105.5 | 104.8 | -76.2 | 16 | 84.2 |
| 2026-01-16T04:51:00 | 35.6501 | 26.2200 | 501.0 | 3.19 | -2.34 | 1 | 106.6 | 103.0 | -75.7 | 9 | 47.4 |
| 2026-01-16T04:51:00 | 35.6501 | 26.2200 | 533.0 | 4.36 | -9.23 | 1 | 98.1 | 97.8 | -76.7 | 17 | 89.5 |
| 2026-01-16T04:51:00 | 35.6501 | 26.2200 | 565.0 | -3.58 | -4.43 | 1 | 94.7 | 94.3 | -77.0 | 17 | 89.5 |
| 2026-01-16T04:51:00 | 35.6501 | 26.2200 | 597.0 | 4.07 | -2.80 | 1 | 91.2 | 89.7 | -77.8 | 15 | 78.9 |
| 2026-01-16T04:51:00 | 35.6501 | 26.2200 | 629.0 | -2.76 | -0.07 | 1 | 84.0 | 82.4 | -79.9 | 14 | 73.7 |
| 2026-01-16T04:51:00 | 35.6501 | 26.2200 | 661.0 | 0.82 | -4.79 | 1 | 80.5 | 79.2 | -80.2 | 15 | 78.9 |
| 2026-01-16T04:51:00 | 35.6501 | 26.2200 | 693.0 | 3.05 | -8.35 | 1 | 79.0 | 77.0 | -80.0 | 14 | 73.7 |
| 2026-01-16T04:51:00 | 35.6501 | 26.2200 | 725.0 | 3.92 | -5.10 | 1 | 74.1 | 72.4 | -80.9 | 15 | 78.9 |
| 2026-01-16T04:51:00 | 35.6501 | 26.2200 | 757.0 | -3.29 | -10.18 | 1 | 67.1 | 66.3 | -82.5 | 14 | 73.7 |
| 2026-01-16T04:51:00 | 35.6501 | 26.2200 | 789.0 | 4.30 | -5.94 | 1 | 63.0 | 62.2 | -83.3 | 15 | 78.9 |
| 2026-01-16T04:51:00 | 35.6501 | 26.2200 | 821.0 | -2.77 | -3.21 | 1 | 60.5 | 59.7 | -83.3 | 15 | 78.9 |
| 2026-01-16T04:51:00 | 35.6501 | 26.2200 | 853.0 | -1.89 | -4.32 | 1 | 57.9 | 57.0 | -83.5 | 17 | 89.5 |
| 2026-01-16T04:51:00 | 35.6501 | 26.2200 | 885.0 | 0.82 | -2.19 | 1 | 54.5 | 52.9 | -84.3 | 15 | 78.9 |
| 2026-01-16T04:51:00 | 35.6501 | 26.2200 | 917.0 | 1.89 | -3.16 | 1 | 51.2 | 50.7 | -84.3 | 16 | 84.2 |
| 2026-01-16T04:51:00 | 35.6501 | 26.2200 | 949.0 | -0.18 | -3.80 | 1 | 43.5 | 42.5 | -87.0 | 15 | 78.9 |
| 2026-01-16T04:51:00 | 35.6501 | 26.2200 | 981.0 | 7.49 | -7.02 | 1 | 38.0 | 36.1 | -88.9 | 14 | 73.7 |
| 2026-01-16T04:51:00 | 35.6501 | 26.2200 | 1013.0 | -4.38 | -5.47 | 1 | 32.4 | 31.2 | -90.1 | 15 | 78.9 |
| 2026-01-16T04:51:00 | 35.6501 | 26.2200 | 1045.0 | 3.45 | 1.26 | 1 | 24.8 | 24.2 | -92.4 | 17 | 89.5 |
| 2026-01-16T04:51:00 | 35.6501 | 26.2200 | 1077.0 | -3.42 | -2.10 | 1 | 18.1 | 17.8 | -94.7 | 18 | 94.7 |
| 2026-01-16T04:51:00 | 35.6501 | 26.2200 | 1109.0 | -0.03 | -4.63 | 1 | 12.9 | 11.8 | -97.2 | 17 | 89.5 |
| 2026-01-16T04:51:00 | 35.6501 | 26.2200 | 1141.0 | -0.75 | -5.52 | 1 | 8.4 | 7.6 | -99.3 | 17 | 89.5 |
| 2026-01-16T04:51:00 | 35.6501 | 26.2200 | 1173.0 | 0.15 | -7.09 | 1 | 7.2 | 6.4 | -99.5 | 18 | 94.7 |
| 2026-01-16T04:51:00 | 35.6501 | 26.2200 | 1205.0 | 16.69 | 13.82 | 4 | 6.6 | 5.9 | -99.1 | 2 | 10.5 |
| 2026-01-16T04:52:00 | 35.6501 | 26.2200 | 53.0 | 3.78 | 4.82 | 1 | 161.7 | 161.7 | -81.7 | 17 | 89.5 |
| 2026-01-16T04:52:00 | 35.6501 | 26.2200 | 85.0 | 11.08 | -13.68 | 1 | 148.2 | 148.2 | -81.8 | 16 | 84.2 |
| 2026-01-16T04:52:00 | 35.6501 | 26.2200 | 117.0 | 0.07 | -19.17 | 1 | 136.7 | 136.6 | -83.0 | 14 | 73.7 |
| 2026-01-16T04:52:00 | 35.6501 | 26.2200 | 149.0 | -1.16 | -19.42 | 1 | 129.7 | 128.1 | -83.6 | 14 | 73.7 |
| 2026-01-16T04:52:00 | 35.6501 | 26.2200 | 181.0 | 7.97 | -4.32 | 1 | 124.4 | 123.8 | -83.0 | 16 | 84.2 |
| 2026-01-16T04:52:00 | 35.6501 | 26.2200 | 213.0 | 5.90 | -0.12 | 1 | 125.2 | 123.7 | -80.8 | 13 | 68.4 |
| 2026-01-16T04:52:00 | 35.6501 | 26.2200 | 245.0 | 3.10 | -0.76 | 1 | 126.2 | 124.8 | -78.3 | 15 | 78.9 |
| 2026-01-16T04:52:00 | 35.6501 | 26.2200 | 277.0 | 4.27 | 2.36 | 1 | 120.0 | 119.7 | -78.7 | 17 | 89.5 |
| 2026-01-16T04:52:00 | 35.6501 | 26.2200 | 309.0 | 5.96 | -10.84 | 1 | 115.9 | 115.2 | -79.0 | 16 | 84.2 |
| 2026-01-16T04:52:00 | 35.6501 | 26.2200 | 341.0 | -1.29 | -2.44 | 1 | 109.7 | 108.9 | -80.1 | 16 | 84.2 |
| 2026-01-16T04:52:00 | 35.6501 | 26.2200 | 373.0 | -0.24 | -5.22 | 1 | 107.1 | 106.1 | -79.8 | 16 | 84.2 |
| 2026-01-16T04:52:00 | 35.6501 | 26.2200 | 405.0 | 8.06 | -7.07 | 1 | 105.6 | 105.2 | -78.7 | 15 | 78.9 |
| 2026-01-16T04:52:00 | 35.6501 | 26.2200 | 437.0 | 2.48 | -3.50 | 1 | 106.0 | 105.4 | -77.3 | 15 | 78.9 |
| 2026-01-16T04:52:00 | 35.6501 | 26.2200 | 469.0 | -0.07 | -7.87 | 1 | 105.3 | 105.3 | -76.0 | 19 | 100.0 |
| 2026-01-16T04:52:00 | 35.6501 | 26.2200 | 501.0 | -1.98 | -3.19 | 1 | 103.9 | 103.2 | -75.6 | 17 | 89.5 |
| 2026-01-16T04:52:00 | 35.6501 | 26.2200 | 533.0 | 3.52 | 2.93 | 1 | 98.5 | 96.2 | -77.4 | 12 | 63.2 |
| 2026-01-16T04:52:00 | 35.6501 | 26.2200 | 565.0 | -10.79 | 4.13 | 1 | 93.4 | 92.7 | -77.7 | 13 | 68.4 |
| 2026-01-16T04:52:00 | 35.6501 | 26.2200 | 597.0 | 4.64 | 13.13 | 1 | 92.4 | 90.1 | -77.7 | 12 | 63.2 |
| 2026-01-16T04:52:00 | 35.6501 | 26.2200 | 629.0 | 2.77 | -2.64 | 1 | 85.2 | 84.0 | -79.2 | 16 | 84.2 |
| 2026-01-16T04:52:00 | 35.6501 | 26.2200 | 661.0 | 4.46 | 5.64 | 1 | 81.0 | 78.0 | -80.7 | 12 | 63.2 |
| 2026-01-16T04:52:00 | 35.6501 | 26.2200 | 693.0 | 8.59 | -2.21 | 1 | 79.3 | 77.1 | -79.9 | 12 | 63.2 |
| 2026-01-16T04:52:00 | 35.6501 | 26.2200 | 725.0 | -0.54 | -3.22 | 1 | 73.9 | 72.8 | -80.7 | 13 | 68.4 |
| 2026-01-16T04:52:00 | 35.6501 | 26.2200 | 757.0 | -4.82 | -1.57 | 1 | 68.3 | 67.1 | -82.2 | 14 | 73.7 |
| 2026-01-16T04:52:00 | 35.6501 | 26.2200 | 789.0 | 8.94 | 1.71 | 1 | 62.8 | 61.2 | -83.7 | 15 | 78.9 |
| 2026-01-16T04:52:00 | 35.6501 | 26.2200 | 821.0 | 4.46 | 2.14 | 1 | 61.9 | 61.8 | -82.4 | 16 | 84.2 |
| 2026-01-16T04:52:00 | 35.6501 | 26.2200 | 853.0 | 8.42 | -2.27 | 1 | 57.6 | 56.0 | -84.0 | 16 | 84.2 |
| 2026-01-16T04:52:00 | 35.6501 | 26.2200 | 885.0 | 3.54 | -6.15 | 1 | 53.2 | 50.9 | -85.2 | 13 | 68.4 |
| 2026-01-16T04:52:00 | 35.6501 | 26.2200 | 917.0 | -6.23 | 0.98 | 1 | 49.5 | 48.2 | -85.4 | 16 | 84.2 |
| 2026-01-16T04:52:00 | 35.6501 | 26.2200 | 949.0 | -6.30 | 0.59 | 1 | 44.2 | 42.9 | -86.8 | 15 | 78.9 |
| 2026-01-16T04:52:00 | 35.6501 | 26.2200 | 981.0 | -3.43 | -4.38 | 1 | 36.7 | 36.7 | -88.6 | 19 | 100.0 |
| 2026-01-16T04:52:00 | 35.6501 | 26.2200 | 1013.0 | 1.37 | -3.76 | 1 | 30.3 | 28.9 | -91.2 | 16 | 84.2 |
| 2026-01-16T04:52:00 | 35.6501 | 26.2200 | 1045.0 | 5.22 | -4.28 | 1 | 24.0 | 23.2 | -92.9 | 17 | 89.5 |
| 2026-01-16T04:52:00 | 35.6501 | 26.2200 | 1077.0 | 5.51 | -5.31 | 1 | 16.6 | 16.6 | -95.3 | 17 | 89.5 |
| 2026-01-16T04:52:00 | 35.6501 | 26.2200 | 1109.0 | -7.09 | -4.82 | 1 | 10.8 | 10.3 | -98.2 | 17 | 89.5 |
| 2026-01-16T04:52:00 | 35.6501 | 26.2200 | 1141.0 | -5.31 | -1.46 | 1 | 7.5 | 6.8 | -100.0 | 17 | 89.5 |
| 2026-01-16T04:52:00 | 35.6501 | 26.2200 | 1173.0 | -3.97 | -4.52 | 1 | 6.7 | 6.3 | -99.5 | 18 | 94.7 |
| 2026-01-16T04:52:00 | 35.6501 | 26.2200 | 1205.0 | 3.89 | -3.42 | 4 | 5.9 | 5.9 | -99.0 | 4 | 21.1 |
| 2026-01-16T04:53:00 | 35.6501 | 26.2200 | 53.0 | -3.82 | -0.91 | 1 | 162.2 | 161.5 | -81.8 | 17 | 85.0 |
| 2026-01-16T04:53:00 | 35.6501 | 26.2200 | 85.0 | -0.66 | -6.23 | 1 | 147.2 | 147.2 | -82.2 | 19 | 95.0 |
| 2026-01-16T04:53:00 | 35.6501 | 26.2200 | 117.0 | 0.82 | -11.94 | 1 | 136.0 | 136.0 | -83.2 | 20 | 100.0 |
| 2026-01-16T04:53:00 | 35.6501 | 26.2200 | 149.0 | -2.91 | -10.55 | 1 | 124.9 | 124.4 | -85.2 | 15 | 75.0 |
| 2026-01-16T04:53:00 | 35.6501 | 26.2200 | 181.0 | -1.84 | -3.46 | 1 | 123.5 | 122.0 | -83.8 | 16 | 80.0 |
| 2026-01-16T04:53:00 | 35.6501 | 26.2200 | 213.0 | -1.81 | 3.14 | 1 | 122.0 | 122.0 | -81.5 | 18 | 90.0 |
| 2026-01-16T04:53:00 | 35.6501 | 26.2200 | 245.0 | 5.82 | 10.66 | 1 | 125.6 | 124.6 | -78.4 | 15 | 75.0 |
| 2026-01-16T04:53:00 | 35.6501 | 26.2200 | 277.0 | 0.27 | 0.04 | 1 | 120.4 | 120.3 | -78.5 | 17 | 85.0 |
| 2026-01-16T04:53:00 | 35.6501 | 26.2200 | 309.0 | 6.00 | -0.21 | 1 | 114.6 | 114.3 | -79.3 | 16 | 80.0 |
| 2026-01-16T04:53:00 | 35.6501 | 26.2200 | 341.0 | -1.37 | -1.21 | 1 | 110.9 | 109.1 | -80.0 | 13 | 65.0 |
| 2026-01-16T04:53:00 | 35.6501 | 26.2200 | 373.0 | 3.32 | 4.88 | 1 | 105.5 | 104.8 | -80.4 | 18 | 90.0 |
| 2026-01-16T04:53:00 | 35.6501 | 26.2200 | 405.0 | -3.99 | 4.09 | 1 | 104.4 | 104.3 | -79.1 | 18 | 90.0 |
| 2026-01-16T04:53:00 | 35.6501 | 26.2200 | 437.0 | -1.42 | 0.78 | 1 | 107.4 | 107.0 | -76.6 | 18 | 90.0 |
| 2026-01-16T04:53:00 | 35.6501 | 26.2200 | 469.0 | -0.34 | 3.97 | 1 | 106.8 | 105.8 | -75.8 | 16 | 80.0 |
| 2026-01-16T04:53:00 | 35.6501 | 26.2200 | 501.0 | 2.82 | 0.91 | 1 | 104.1 | 104.1 | -75.2 | 18 | 90.0 |
| 2026-01-16T04:53:00 | 35.6501 | 26.2200 | 533.0 | 2.20 | -0.73 | 1 | 99.3 | 97.5 | -76.8 | 14 | 70.0 |
| 2026-01-16T04:53:00 | 35.6501 | 26.2200 | 565.0 | 0.88 | -0.27 | 1 | 93.9 | 93.7 | -77.3 | 18 | 90.0 |
| 2026-01-16T04:53:00 | 35.6501 | 26.2200 | 597.0 | -2.78 | -9.11 | 1 | 90.5 | 89.4 | -78.0 | 14 | 70.0 |
| 2026-01-16T04:53:00 | 35.6501 | 26.2200 | 629.0 | -4.65 | -8.52 | 1 | 85.1 | 83.4 | -79.4 | 12 | 60.0 |
| 2026-01-16T04:53:00 | 35.6501 | 26.2200 | 661.0 | 0.45 | -4.52 | 1 | 79.0 | 77.2 | -81.0 | 15 | 75.0 |
| 2026-01-16T04:53:00 | 35.6501 | 26.2200 | 693.0 | 0.14 | -6.99 | 1 | 76.4 | 75.6 | -80.6 | 17 | 85.0 |
| 2026-01-16T04:53:00 | 35.6501 | 26.2200 | 725.0 | -3.38 | 5.07 | 1 | 74.9 | 73.3 | -80.5 | 15 | 75.0 |
| 2026-01-16T04:53:00 | 35.6501 | 26.2200 | 757.0 | -0.52 | -0.48 | 1 | 67.7 | 67.0 | -82.2 | 16 | 80.0 |
| 2026-01-16T04:53:00 | 35.6501 | 26.2200 | 789.0 | 2.58 | -3.20 | 1 | 61.9 | 59.4 | -84.5 | 15 | 75.0 |
| 2026-01-16T04:53:00 | 35.6501 | 26.2200 | 821.0 | -2.51 | 1.56 | 1 | 59.5 | 59.1 | -83.6 | 17 | 85.0 |
| 2026-01-16T04:53:00 | 35.6501 | 26.2200 | 853.0 | 1.07 | -1.65 | 1 | 59.3 | 58.7 | -82.8 | 18 | 90.0 |
| 2026-01-16T04:53:00 | 35.6501 | 26.2200 | 885.0 | 0.22 | -11.86 | 1 | 54.0 | 52.9 | -84.3 | 16 | 80.0 |
| 2026-01-16T04:53:00 | 35.6501 | 26.2200 | 917.0 | -2.72 | -0.48 | 1 | 46.3 | 45.8 | -86.5 | 17 | 85.0 |
| 2026-01-16T04:53:00 | 35.6501 | 26.2200 | 949.0 | 2.72 | -6.13 | 1 | 41.6 | 41.0 | -87.6 | 19 | 95.0 |
| 2026-01-16T04:53:00 | 35.6501 | 26.2200 | 981.0 | -2.86 | 0.24 | 1 | 36.0 | 35.2 | -89.2 | 18 | 90.0 |
| 2026-01-16T04:53:00 | 35.6501 | 26.2200 | 1013.0 | -1.63 | 4.55 | 1 | 31.3 | 29.4 | -90.9 | 13 | 65.0 |
| 2026-01-16T04:53:00 | 35.6501 | 26.2200 | 1045.0 | 0.63 | 1.10 | 1 | 23.8 | 23.7 | -92.7 | 19 | 95.0 |
| 2026-01-16T04:53:00 | 35.6501 | 26.2200 | 1077.0 | 5.39 | -0.42 | 1 | 17.2 | 16.6 | -95.4 | 18 | 90.0 |
| 2026-01-16T04:53:00 | 35.6501 | 26.2200 | 1109.0 | -1.75 | -1.69 | 1 | 11.5 | 10.9 | -97.8 | 16 | 80.0 |
| 2026-01-16T04:53:00 | 35.6501 | 26.2200 | 1141.0 | -1.36 | -1.95 | 1 | 7.4 | 6.9 | -99.9 | 17 | 85.0 |
| 2026-01-16T04:53:00 | 35.6501 | 26.2200 | 1173.0 | -0.56 | 0.07 | 1 | 6.5 | 6.5 | -99.3 | 20 | 100.0 |
| 2026-01-16T04:53:00 | 35.6501 | 26.2200 | 1205.0 | 1.41 | -21.15 | 4 | 6.4 | 7.0 | -98.0 | 1 | 5.0 |
| 2026-01-16T04:54:00 | 35.6501 | 26.2200 | 53.0 | -2.73 | -4.52 | 1 | 161.7 | 160.2 | -82.4 | 14 | 73.7 |
| 2026-01-16T04:54:00 | 35.6501 | 26.2200 | 85.0 | 4.28 | -3.61 | 1 | 148.1 | 147.3 | -82.2 | 14 | 73.7 |
| 2026-01-16T04:54:00 | 35.6501 | 26.2200 | 117.0 | -4.53 | -9.48 | 1 | 137.3 | 135.2 | -83.6 | 11 | 57.9 |
| 2026-01-16T04:54:00 | 35.6501 | 26.2200 | 149.0 | -2.42 | -8.91 | 1 | 122.7 | 122.1 | -86.3 | 17 | 89.5 |
| 2026-01-16T04:54:00 | 35.6501 | 26.2200 | 181.0 | 6.30 | -1.73 | 1 | 121.7 | 121.7 | -83.9 | 17 | 89.5 |
| 2026-01-16T04:54:00 | 35.6501 | 26.2200 | 213.0 | 4.77 | -1.02 | 1 | 122.7 | 122.7 | -81.2 | 19 | 100.0 |
| 2026-01-16T04:54:00 | 35.6501 | 26.2200 | 245.0 | -0.23 | 3.28 | 1 | 123.7 | 123.1 | -79.0 | 16 | 84.2 |
| 2026-01-16T04:54:00 | 35.6501 | 26.2200 | 277.0 | -4.85 | 6.41 | 1 | 120.9 | 119.8 | -78.7 | 14 | 73.7 |
| 2026-01-16T04:54:00 | 35.6501 | 26.2200 | 309.0 | 12.21 | -1.59 | 1 | 115.2 | 114.8 | -79.1 | 16 | 84.2 |
| 2026-01-16T04:54:00 | 35.6501 | 26.2200 | 341.0 | 3.59 | -6.77 | 1 | 109.7 | 109.2 | -80.0 | 16 | 84.2 |
| 2026-01-16T04:54:00 | 35.6501 | 26.2200 | 373.0 | -0.70 | -3.61 | 1 | 107.3 | 106.1 | -79.8 | 14 | 73.7 |
| 2026-01-16T04:54:00 | 35.6501 | 26.2200 | 405.0 | 2.30 | -0.88 | 1 | 106.4 | 105.5 | -78.6 | 15 | 78.9 |
| 2026-01-16T04:54:00 | 35.6501 | 26.2200 | 437.0 | -0.99 | -4.79 | 1 | 107.5 | 106.1 | -77.0 | 16 | 84.2 |
| 2026-01-16T04:54:00 | 35.6501 | 26.2200 | 469.0 | 7.25 | 0.29 | 1 | 107.8 | 106.5 | -75.4 | 14 | 73.7 |
| 2026-01-16T04:54:00 | 35.6501 | 26.2200 | 501.0 | 5.47 | 3.53 | 1 | 106.2 | 105.0 | -74.8 | 16 | 84.2 |
| 2026-01-16T04:54:00 | 35.6501 | 26.2200 | 533.0 | -3.66 | -1.10 | 1 | 101.2 | 99.2 | -76.1 | 15 | 78.9 |
| 2026-01-16T04:54:00 | 35.6501 | 26.2200 | 565.0 | 2.76 | -7.58 | 1 | 95.4 | 94.1 | -77.1 | 15 | 78.9 |
| 2026-01-16T04:54:00 | 35.6501 | 26.2200 | 597.0 | -3.66 | -2.26 | 1 | 90.1 | 89.3 | -78.0 | 15 | 78.9 |
| 2026-01-16T04:54:00 | 35.6501 | 26.2200 | 629.0 | 2.55 | -3.83 | 1 | 87.2 | 85.2 | -78.7 | 14 | 73.7 |
| 2026-01-16T04:54:00 | 35.6501 | 26.2200 | 661.0 | -1.59 | -3.58 | 1 | 79.5 | 77.8 | -80.7 | 14 | 73.7 |
| 2026-01-16T04:54:00 | 35.6501 | 26.2200 | 693.0 | 4.22 | -7.74 | 1 | 78.0 | 77.3 | -79.9 | 15 | 78.9 |
| 2026-01-16T04:54:00 | 35.6501 | 26.2200 | 725.0 | -10.29 | 0.16 | 1 | 71.6 | 70.3 | -81.8 | 16 | 84.2 |
| 2026-01-16T04:54:00 | 35.6501 | 26.2200 | 757.0 | -12.02 | 2.51 | 1 | 67.2 | 66.4 | -82.5 | 16 | 84.2 |
| 2026-01-16T04:54:00 | 35.6501 | 26.2200 | 789.0 | 0.11 | -0.78 | 1 | 62.4 | 61.1 | -83.8 | 15 | 78.9 |
| 2026-01-16T04:54:00 | 35.6501 | 26.2200 | 821.0 | 1.29 | -1.82 | 1 | 61.9 | 60.1 | -83.1 | 12 | 63.2 |
| 2026-01-16T04:54:00 | 35.6501 | 26.2200 | 853.0 | -5.15 | -5.69 | 1 | 58.6 | 56.8 | -83.6 | 15 | 78.9 |
| 2026-01-16T04:54:00 | 35.6501 | 26.2200 | 885.0 | 1.99 | 2.64 | 1 | 54.7 | 53.7 | -84.0 | 15 | 78.9 |
| 2026-01-16T04:54:00 | 35.6501 | 26.2200 | 917.0 | -4.61 | 0.21 | 1 | 50.8 | 50.0 | -84.6 | 15 | 78.9 |
| 2026-01-16T04:54:00 | 35.6501 | 26.2200 | 949.0 | 1.36 | -2.67 | 1 | 44.6 | 40.7 | -87.8 | 11 | 57.9 |
| 2026-01-16T04:54:00 | 35.6501 | 26.2200 | 981.0 | -2.50 | -5.39 | 1 | 35.9 | 35.6 | -89.1 | 18 | 94.7 |
| 2026-01-16T04:54:00 | 35.6501 | 26.2200 | 1013.0 | -7.51 | 0.68 | 1 | 31.4 | 30.7 | -90.3 | 17 | 89.5 |
| 2026-01-16T04:54:00 | 35.6501 | 26.2200 | 1045.0 | -2.61 | -6.23 | 1 | 22.6 | 22.2 | -93.4 | 17 | 89.5 |
| 2026-01-16T04:54:00 | 35.6501 | 26.2200 | 1077.0 | -2.04 | -11.68 | 1 | 17.6 | 17.0 | -95.2 | 16 | 84.2 |
| 2026-01-16T04:54:00 | 35.6501 | 26.2200 | 1109.0 | 0.04 | -4.94 | 1 | 12.5 | 12.3 | -96.9 | 18 | 94.7 |
| 2026-01-16T04:54:00 | 35.6501 | 26.2200 | 1141.0 | -0.23 | -4.04 | 1 | 7.2 | 7.0 | -99.8 | 15 | 78.9 |
| 2026-01-16T04:54:00 | 35.6501 | 26.2200 | 1173.0 | 2.17 | -2.25 | 1 | 7.0 | 6.3 | -99.5 | 17 | 89.5 |
| 2026-01-16T04:54:00 | 35.6501 | 26.2200 | 1205.0 | 5.38 | -3.22 | 1 | 5.8 | 5.7 | -99.2 | 6 | 31.6 |
| 2026-01-16T04:55:00 | 35.6501 | 26.2200 | 53.0 | 0.10 | -9.98 | 1 | 157.1 | 157.1 | -83.7 | 16 | 84.2 |
| 2026-01-16T04:55:00 | 35.6501 | 26.2200 | 85.0 | 9.39 | -6.97 | 1 | 149.5 | 148.8 | -81.5 | 16 | 84.2 |
| 2026-01-16T04:55:00 | 35.6501 | 26.2200 | 117.0 | 1.34 | -11.54 | 1 | 138.2 | 137.4 | -82.6 | 15 | 78.9 |
| 2026-01-16T04:55:00 | 35.6501 | 26.2200 | 149.0 | 0.31 | -10.38 | 1 | 125.6 | 124.2 | -85.4 | 13 | 68.4 |
| 2026-01-16T04:55:00 | 35.6501 | 26.2200 | 181.0 | 4.41 | -5.74 | 1 | 123.6 | 122.7 | -83.5 | 13 | 68.4 |
| 2026-01-16T04:55:00 | 35.6501 | 26.2200 | 213.0 | 2.98 | -8.38 | 1 | 121.5 | 120.8 | -82.1 | 12 | 63.2 |
| 2026-01-16T04:55:00 | 35.6501 | 26.2200 | 245.0 | 8.50 | -4.52 | 1 | 122.3 | 121.3 | -79.8 | 12 | 63.2 |
| 2026-01-16T04:55:00 | 35.6501 | 26.2200 | 277.0 | 15.19 | -2.02 | 1 | 117.7 | 116.7 | -80.0 | 13 | 68.4 |
| 2026-01-16T04:55:00 | 35.6501 | 26.2200 | 309.0 | -3.24 | 4.60 | 1 | 113.5 | 112.2 | -80.3 | 12 | 63.2 |
| 2026-01-16T04:55:00 | 35.6501 | 26.2200 | 341.0 | -2.14 | -4.04 | 1 | 111.2 | 110.8 | -79.3 | 18 | 94.7 |
| 2026-01-16T04:55:00 | 35.6501 | 26.2200 | 373.0 | -5.41 | -1.40 | 1 | 105.9 | 105.8 | -79.9 | 17 | 89.5 |
| 2026-01-16T04:55:00 | 35.6501 | 26.2200 | 405.0 | -0.82 | 3.88 | 1 | 108.3 | 107.6 | -77.7 | 16 | 84.2 |
| 2026-01-16T04:55:00 | 35.6501 | 26.2200 | 437.0 | 1.65 | -2.71 | 1 | 110.4 | 109.6 | -75.4 | 16 | 84.2 |
| 2026-01-16T04:55:00 | 35.6501 | 26.2200 | 469.0 | -0.62 | 1.20 | 1 | 104.9 | 104.3 | -76.4 | 17 | 89.5 |
| 2026-01-16T04:55:00 | 35.6501 | 26.2200 | 501.0 | 1.12 | 4.10 | 1 | 104.9 | 104.2 | -75.2 | 16 | 84.2 |
| 2026-01-16T04:55:00 | 35.6501 | 26.2200 | 533.0 | 0.55 | 3.62 | 1 | 99.4 | 98.2 | -76.6 | 14 | 73.7 |
| 2026-01-16T04:55:00 | 35.6501 | 26.2200 | 565.0 | -0.79 | 1.05 | 1 | 96.2 | 94.9 | -76.7 | 16 | 84.2 |
| 2026-01-16T04:55:00 | 35.6501 | 26.2200 | 597.0 | 0.92 | -3.75 | 1 | 91.1 | 90.8 | -77.4 | 18 | 94.7 |
| 2026-01-16T04:55:00 | 35.6501 | 26.2200 | 629.0 | 1.01 | -1.22 | 1 | 85.7 | 85.0 | -78.8 | 17 | 89.5 |
| 2026-01-16T04:55:00 | 35.6501 | 26.2200 | 661.0 | 4.95 | 4.58 | 1 | 79.8 | 78.2 | -80.6 | 13 | 68.4 |
| 2026-01-16T04:55:00 | 35.6501 | 26.2200 | 693.0 | -6.40 | -5.93 | 1 | 76.3 | 75.7 | -80.6 | 17 | 89.5 |
| 2026-01-16T04:55:00 | 35.6501 | 26.2200 | 725.0 | -0.23 | -1.31 | 1 | 76.2 | 72.9 | -80.7 | 11 | 57.9 |
| 2026-01-16T04:55:00 | 35.6501 | 26.2200 | 757.0 | 0.72 | -2.03 | 1 | 67.0 | 65.7 | -82.8 | 13 | 68.4 |
| 2026-01-16T04:55:00 | 35.6501 | 26.2200 | 789.0 | -4.52 | -6.35 | 1 | 62.0 | 60.6 | -84.0 | 14 | 73.7 |
| 2026-01-16T04:55:00 | 35.6501 | 26.2200 | 821.0 | 11.15 | -1.85 | 1 | 59.6 | 58.1 | -84.0 | 15 | 78.9 |
| 2026-01-16T04:55:00 | 35.6501 | 26.2200 | 853.0 | -1.55 | -0.04 | 1 | 58.4 | 57.5 | -83.3 | 16 | 84.2 |
| 2026-01-16T04:55:00 | 35.6501 | 26.2200 | 885.0 | 9.20 | -4.12 | 1 | 53.9 | 53.5 | -84.1 | 17 | 89.5 |
| 2026-01-16T04:55:00 | 35.6501 | 26.2200 | 917.0 | 5.52 | 5.30 | 1 | 48.2 | 47.7 | -85.6 | 16 | 84.2 |
| 2026-01-16T04:55:00 | 35.6501 | 26.2200 | 949.0 | -3.41 | -0.97 | 1 | 41.6 | 41.6 | -87.3 | 18 | 94.7 |
| 2026-01-16T04:55:00 | 35.6501 | 26.2200 | 981.0 | 3.83 | -7.19 | 1 | 35.4 | 34.2 | -89.7 | 15 | 78.9 |
| 2026-01-16T04:55:00 | 35.6501 | 26.2200 | 1013.0 | 1.03 | -2.53 | 1 | 29.3 | 28.7 | -91.3 | 15 | 78.9 |
| 2026-01-16T04:55:00 | 35.6501 | 26.2200 | 1045.0 | -1.04 | 1.81 | 1 | 23.0 | 22.6 | -93.2 | 16 | 84.2 |
| 2026-01-16T04:55:00 | 35.6501 | 26.2200 | 1077.0 | -0.51 | 3.27 | 1 | 17.9 | 17.2 | -95.0 | 14 | 73.7 |
| 2026-01-16T04:55:00 | 35.6501 | 26.2200 | 1109.0 | 3.83 | 1.93 | 1 | 11.7 | 11.6 | -97.4 | 18 | 94.7 |
| 2026-01-16T04:55:00 | 35.6501 | 26.2200 | 1141.0 | -0.84 | -1.74 | 1 | 7.3 | 6.7 | -100.1 | 17 | 89.5 |
| 2026-01-16T04:55:00 | 35.6501 | 26.2200 | 1173.0 | -2.95 | -6.67 | 1 | 6.3 | 5.9 | -99.9 | 14 | 73.7 |
| 2026-01-16T04:55:00 | 35.6501 | 26.2200 | 1205.0 | -0.42 | -3.93 | 4 | 7.2 | 6.8 | -98.2 | 3 | 15.8 |
| 2026-01-16T04:56:00 | 35.6501 | 26.2200 | 53.0 | -10.82 | 1.32 | 1 | 161.2 | 159.9 | -82.5 | 16 | 80.0 |
| 2026-01-16T04:56:00 | 35.6501 | 26.2200 | 85.0 | 2.06 | -5.05 | 1 | 148.0 | 146.8 | -82.4 | 14 | 70.0 |
| 2026-01-16T04:56:00 | 35.6501 | 26.2200 | 117.0 | 4.60 | -14.19 | 1 | 134.8 | 134.3 | -84.0 | 14 | 70.0 |
| 2026-01-16T04:56:00 | 35.6501 | 26.2200 | 149.0 | 3.97 | -15.51 | 1 | 125.4 | 123.5 | -85.7 | 13 | 65.0 |
| 2026-01-16T04:56:00 | 35.6501 | 26.2200 | 181.0 | 6.73 | -8.36 | 1 | 122.9 | 122.0 | -83.8 | 16 | 80.0 |
| 2026-01-16T04:56:00 | 35.6501 | 26.2200 | 213.0 | 4.13 | -0.29 | 1 | 121.2 | 120.7 | -82.1 | 15 | 75.0 |
| 2026-01-16T04:56:00 | 35.6501 | 26.2200 | 245.0 | 4.38 | -8.25 | 1 | 122.7 | 122.2 | -79.4 | 15 | 75.0 |
| 2026-01-16T04:56:00 | 35.6501 | 26.2200 | 277.0 | 4.39 | 3.05 | 1 | 121.0 | 118.0 | -79.4 | 13 | 65.0 |
| 2026-01-16T04:56:00 | 35.6501 | 26.2200 | 309.0 | -2.19 | 2.36 | 1 | 116.4 | 114.6 | -79.2 | 14 | 70.0 |
| 2026-01-16T04:56:00 | 35.6501 | 26.2200 | 341.0 | -7.58 | 0.54 | 1 | 111.2 | 110.5 | -79.4 | 14 | 70.0 |
| 2026-01-16T04:56:00 | 35.6501 | 26.2200 | 373.0 | 6.92 | 6.59 | 1 | 107.6 | 107.1 | -79.4 | 19 | 95.0 |
| 2026-01-16T04:56:00 | 35.6501 | 26.2200 | 405.0 | 4.12 | -5.00 | 1 | 105.5 | 105.1 | -78.8 | 16 | 80.0 |
| 2026-01-16T04:56:00 | 35.6501 | 26.2200 | 437.0 | 6.88 | 0.96 | 1 | 106.2 | 106.1 | -77.0 | 18 | 90.0 |
| 2026-01-16T04:56:00 | 35.6501 | 26.2200 | 469.0 | 0.56 | -13.07 | 1 | 106.0 | 105.2 | -76.0 | 17 | 85.0 |
| 2026-01-16T04:56:00 | 35.6501 | 26.2200 | 501.0 | 3.59 | -2.78 | 1 | 105.7 | 105.1 | -74.8 | 17 | 85.0 |
| 2026-01-16T04:56:00 | 35.6501 | 26.2200 | 533.0 | 7.06 | -7.90 | 1 | 99.5 | 98.1 | -76.6 | 16 | 80.0 |
| 2026-01-16T04:56:00 | 35.6501 | 26.2200 | 565.0 | -6.43 | 3.54 | 1 | 95.9 | 94.1 | -77.1 | 16 | 80.0 |
| 2026-01-16T04:56:00 | 35.6501 | 26.2200 | 597.0 | 4.75 | -7.57 | 1 | 90.0 | 88.4 | -78.4 | 15 | 75.0 |
| 2026-01-16T04:56:00 | 35.6501 | 26.2200 | 629.0 | 5.19 | 0.04 | 1 | 84.4 | 82.0 | -80.0 | 14 | 70.0 |
| 2026-01-16T04:56:00 | 35.6501 | 26.2200 | 661.0 | -3.32 | 4.36 | 1 | 80.4 | 79.6 | -80.0 | 16 | 80.0 |
| 2026-01-16T04:56:00 | 35.6501 | 26.2200 | 693.0 | 2.89 | -1.93 | 1 | 76.4 | 76.0 | -80.4 | 16 | 80.0 |
| 2026-01-16T04:56:00 | 35.6501 | 26.2200 | 725.0 | -3.44 | 1.01 | 1 | 74.0 | 72.4 | -80.9 | 15 | 75.0 |
| 2026-01-16T04:56:00 | 35.6501 | 26.2200 | 757.0 | -3.75 | 0.32 | 1 | 67.1 | 65.8 | -82.8 | 17 | 85.0 |
| 2026-01-16T04:56:00 | 35.6501 | 26.2200 | 789.0 | -1.25 | 6.02 | 1 | 61.9 | 61.0 | -83.8 | 17 | 85.0 |
| 2026-01-16T04:56:00 | 35.6501 | 26.2200 | 821.0 | -5.94 | -1.57 | 1 | 59.4 | 58.7 | -83.8 | 17 | 85.0 |
| 2026-01-16T04:56:00 | 35.6501 | 26.2200 | 853.0 | 2.03 | 1.45 | 1 | 57.9 | 56.6 | -83.7 | 16 | 80.0 |
| 2026-01-16T04:56:00 | 35.6501 | 26.2200 | 885.0 | 0.95 | -0.89 | 1 | 54.1 | 53.1 | -84.2 | 16 | 80.0 |
| 2026-01-16T04:56:00 | 35.6501 | 26.2200 | 917.0 | -1.65 | -0.65 | 1 | 47.8 | 46.4 | -86.2 | 17 | 85.0 |
| 2026-01-16T04:56:00 | 35.6501 | 26.2200 | 949.0 | -3.02 | -5.56 | 1 | 40.7 | 40.2 | -88.0 | 18 | 90.0 |
| 2026-01-16T04:56:00 | 35.6501 | 26.2200 | 981.0 | -1.53 | -3.75 | 1 | 37.0 | 36.6 | -88.6 | 15 | 75.0 |
| 2026-01-16T04:56:00 | 35.6501 | 26.2200 | 1013.0 | 3.31 | -2.47 | 1 | 29.4 | 28.5 | -91.4 | 17 | 85.0 |
| 2026-01-16T04:56:00 | 35.6501 | 26.2200 | 1045.0 | 5.27 | -1.64 | 1 | 23.0 | 21.7 | -93.7 | 16 | 80.0 |
| 2026-01-16T04:56:00 | 35.6501 | 26.2200 | 1077.0 | 7.28 | -1.67 | 1 | 16.2 | 16.2 | -95.6 | 20 | 100.0 |
| 2026-01-16T04:56:00 | 35.6501 | 26.2200 | 1109.0 | -3.15 | -2.42 | 1 | 11.5 | 11.2 | -97.6 | 19 | 95.0 |
| 2026-01-16T04:56:00 | 35.6501 | 26.2200 | 1141.0 | 0.34 | -3.46 | 1 | 7.5 | 7.5 | -99.4 | 20 | 100.0 |
| 2026-01-16T04:56:00 | 35.6501 | 26.2200 | 1173.0 | 2.44 | 0.81 | 1 | 5.7 | 5.7 | -100.1 | 19 | 95.0 |
| 2026-01-16T04:56:00 | 35.6501 | 26.2200 | 1205.0 | -3.77 | -0.20 | 1 | 5.6 | 6.2 | -98.8 | 8 | 40.0 |
| 2026-01-16T04:57:00 | 35.6501 | 26.2200 | 53.0 | 5.71 | -0.84 | 1 | 160.5 | 159.8 | -82.6 | 15 | 78.9 |
| 2026-01-16T04:57:00 | 35.6501 | 26.2200 | 85.0 | -1.38 | -7.03 | 1 | 146.4 | 146.4 | -82.6 | 17 | 89.5 |
| 2026-01-16T04:57:00 | 35.6501 | 26.2200 | 117.0 | -5.41 | -20.21 | 1 | 133.7 | 131.5 | -85.2 | 14 | 73.7 |
| 2026-01-16T04:57:00 | 35.6501 | 26.2200 | 149.0 | 6.56 | -11.56 | 1 | 125.1 | 123.2 | -85.8 | 12 | 63.2 |
| 2026-01-16T04:57:00 | 35.6501 | 26.2200 | 181.0 | 5.62 | -6.50 | 1 | 122.1 | 121.5 | -84.0 | 15 | 78.9 |
| 2026-01-16T04:57:00 | 35.6501 | 26.2200 | 213.0 | 7.44 | -8.54 | 1 | 120.7 | 120.2 | -82.3 | 15 | 78.9 |
| 2026-01-16T04:57:00 | 35.6501 | 26.2200 | 245.0 | 12.45 | -11.35 | 1 | 123.4 | 121.4 | -79.8 | 13 | 68.4 |
| 2026-01-16T04:57:00 | 35.6501 | 26.2200 | 277.0 | -0.39 | -6.85 | 1 | 119.5 | 118.1 | -79.4 | 14 | 73.7 |
| 2026-01-16T04:57:00 | 35.6501 | 26.2200 | 309.0 | 1.74 | -0.51 | 1 | 114.8 | 113.3 | -79.8 | 15 | 78.9 |
| 2026-01-16T04:57:00 | 35.6501 | 26.2200 | 341.0 | 9.54 | 10.49 | 1 | 110.7 | 110.0 | -79.6 | 17 | 89.5 |
| 2026-01-16T04:57:00 | 35.6501 | 26.2200 | 373.0 | 10.15 | -4.77 | 1 | 107.8 | 107.5 | -79.2 | 15 | 78.9 |
| 2026-01-16T04:57:00 | 35.6501 | 26.2200 | 405.0 | -1.95 | 1.26 | 1 | 106.9 | 105.9 | -78.4 | 13 | 68.4 |
| 2026-01-16T04:57:00 | 35.6501 | 26.2200 | 437.0 | 1.47 | -6.13 | 1 | 108.3 | 107.0 | -76.6 | 13 | 68.4 |
| 2026-01-16T04:57:00 | 35.6501 | 26.2200 | 469.0 | 1.13 | -7.53 | 1 | 107.2 | 106.2 | -75.6 | 16 | 84.2 |
| 2026-01-16T04:57:00 | 35.6501 | 26.2200 | 501.0 | -4.45 | -0.10 | 1 | 104.1 | 103.1 | -75.6 | 14 | 73.7 |
| 2026-01-16T04:57:00 | 35.6501 | 26.2200 | 533.0 | 1.20 | 4.15 | 1 | 100.4 | 98.7 | -76.3 | 15 | 78.9 |
| 2026-01-16T04:57:00 | 35.6501 | 26.2200 | 565.0 | -8.15 | -3.09 | 1 | 94.3 | 94.3 | -77.0 | 18 | 94.7 |
| 2026-01-16T04:57:00 | 35.6501 | 26.2200 | 597.0 | -3.30 | -2.81 | 1 | 92.1 | 91.0 | -77.3 | 17 | 89.5 |
| 2026-01-16T04:57:00 | 35.6501 | 26.2200 | 629.0 | -1.96 | 0.09 | 1 | 86.2 | 83.2 | -79.6 | 12 | 63.2 |
| 2026-01-16T04:57:00 | 35.6501 | 26.2200 | 661.0 | -6.84 | -2.91 | 1 | 78.1 | 77.5 | -80.9 | 18 | 94.7 |
| 2026-01-16T04:57:00 | 35.6501 | 26.2200 | 693.0 | 3.88 | 1.28 | 1 | 76.9 | 76.5 | -80.2 | 17 | 89.5 |
| 2026-01-16T04:57:00 | 35.6501 | 26.2200 | 725.0 | 3.66 | 3.17 | 1 | 74.8 | 73.1 | -80.6 | 13 | 68.4 |
| 2026-01-16T04:57:00 | 35.6501 | 26.2200 | 757.0 | -4.66 | -4.84 | 1 | 66.2 | 65.3 | -83.0 | 15 | 78.9 |
| 2026-01-16T04:57:00 | 35.6501 | 26.2200 | 789.0 | 2.96 | -2.61 | 1 | 61.9 | 62.0 | -83.4 | 15 | 78.9 |
| 2026-01-16T04:57:00 | 35.6501 | 26.2200 | 821.0 | 0.78 | -5.88 | 1 | 59.1 | 58.3 | -83.9 | 15 | 78.9 |
| 2026-01-16T04:57:00 | 35.6501 | 26.2200 | 853.0 | 4.17 | 1.34 | 1 | 59.1 | 57.8 | -83.2 | 16 | 84.2 |
| 2026-01-16T04:57:00 | 35.6501 | 26.2200 | 885.0 | -6.50 | -3.49 | 1 | 56.2 | 55.2 | -83.3 | 15 | 78.9 |
| 2026-01-16T04:57:00 | 35.6501 | 26.2200 | 917.0 | -4.21 | -3.18 | 1 | 50.6 | 48.0 | -85.5 | 12 | 63.2 |
| 2026-01-16T04:57:00 | 35.6501 | 26.2200 | 949.0 | -10.17 | -4.03 | 1 | 42.1 | 41.4 | -87.4 | 14 | 73.7 |
| 2026-01-16T04:57:00 | 35.6501 | 26.2200 | 981.0 | -5.63 | -7.16 | 1 | 35.3 | 33.2 | -90.1 | 13 | 68.4 |
| 2026-01-16T04:57:00 | 35.6501 | 26.2200 | 1013.0 | 2.98 | 0.65 | 1 | 29.4 | 28.3 | -91.5 | 15 | 78.9 |
| 2026-01-16T04:57:00 | 35.6501 | 26.2200 | 1045.0 | -0.14 | -9.88 | 1 | 23.8 | 22.6 | -93.2 | 16 | 84.2 |
| 2026-01-16T04:57:00 | 35.6501 | 26.2200 | 1077.0 | -2.01 | -5.46 | 1 | 18.4 | 17.4 | -94.9 | 16 | 84.2 |
| 2026-01-16T04:57:00 | 35.6501 | 26.2200 | 1109.0 | 2.95 | -6.02 | 1 | 11.0 | 10.7 | -97.9 | 18 | 94.7 |
| 2026-01-16T04:57:00 | 35.6501 | 26.2200 | 1141.0 | 5.33 | -5.33 | 1 | 6.8 | 6.8 | -99.9 | 19 | 100.0 |
| 2026-01-16T04:57:00 | 35.6501 | 26.2200 | 1173.0 | -2.31 | -6.03 | 1 | 5.9 | 5.9 | -99.9 | 17 | 89.5 |
| 2026-01-16T04:57:00 | 35.6501 | 26.2200 | 1205.0 | 0.96 | 0.19 | 1 | 5.4 | 5.8 | -99.1 | 9 | 47.4 |
| 2026-01-16T04:58:00 | 35.6501 | 26.2200 | 53.0 | 10.37 | -3.66 | 1 | 163.8 | 161.2 | -81.9 | 9 | 47.4 |
| 2026-01-16T04:58:00 | 35.6501 | 26.2200 | 85.0 | 2.36 | -5.91 | 1 | 147.4 | 147.0 | -82.3 | 17 | 89.5 |
| 2026-01-16T04:58:00 | 35.6501 | 26.2200 | 117.0 | 3.51 | -19.09 | 1 | 130.4 | 130.7 | -85.5 | 14 | 73.7 |
| 2026-01-16T04:58:00 | 35.6501 | 26.2200 | 149.0 | 6.16 | -10.80 | 1 | 122.3 | 122.0 | -86.3 | 17 | 89.5 |
| 2026-01-16T04:58:00 | 35.6501 | 26.2200 | 181.0 | 2.69 | -2.53 | 1 | 120.1 | 119.8 | -84.7 | 17 | 89.5 |
| 2026-01-16T04:58:00 | 35.6501 | 26.2200 | 213.0 | 5.04 | 1.89 | 1 | 121.4 | 120.0 | -82.4 | 15 | 78.9 |
| 2026-01-16T04:58:00 | 35.6501 | 26.2200 | 245.0 | 12.89 | -4.42 | 1 | 121.2 | 120.8 | -80.0 | 17 | 89.5 |
| 2026-01-16T04:58:00 | 35.6501 | 26.2200 | 277.0 | 6.08 | 4.40 | 1 | 120.4 | 118.6 | -79.2 | 13 | 68.4 |
| 2026-01-16T04:58:00 | 35.6501 | 26.2200 | 309.0 | 0.70 | -2.47 | 1 | 115.8 | 114.4 | -79.3 | 16 | 84.2 |
| 2026-01-16T04:58:00 | 35.6501 | 26.2200 | 341.0 | 3.71 | -1.49 | 1 | 111.6 | 110.7 | -79.3 | 15 | 78.9 |
| 2026-01-16T04:58:00 | 35.6501 | 26.2200 | 373.0 | 4.17 | 3.08 | 1 | 107.4 | 107.0 | -79.4 | 16 | 84.2 |
| 2026-01-16T04:58:00 | 35.6501 | 26.2200 | 405.0 | 4.91 | 13.21 | 1 | 107.1 | 105.6 | -78.6 | 16 | 84.2 |
| 2026-01-16T04:58:00 | 35.6501 | 26.2200 | 437.0 | 1.70 | -6.09 | 1 | 106.8 | 106.4 | -76.9 | 18 | 94.7 |
| 2026-01-16T04:58:00 | 35.6501 | 26.2200 | 469.0 | -4.08 | 7.93 | 1 | 106.9 | 105.5 | -75.9 | 14 | 73.7 |
| 2026-01-16T04:58:00 | 35.6501 | 26.2200 | 501.0 | -2.63 | 10.35 | 1 | 105.3 | 104.2 | -75.2 | 15 | 78.9 |
| 2026-01-16T04:58:00 | 35.6501 | 26.2200 | 533.0 | -9.80 | -1.63 | 1 | 100.2 | 98.9 | -76.2 | 15 | 78.9 |
| 2026-01-16T04:58:00 | 35.6501 | 26.2200 | 565.0 | 2.14 | -4.58 | 1 | 97.2 | 95.1 | -76.7 | 12 | 63.2 |
| 2026-01-16T04:58:00 | 35.6501 | 26.2200 | 597.0 | 4.00 | -5.94 | 1 | 90.8 | 89.5 | -77.9 | 16 | 84.2 |
| 2026-01-16T04:58:00 | 35.6501 | 26.2200 | 629.0 | 3.19 | -10.50 | 1 | 82.9 | 82.5 | -79.9 | 17 | 89.5 |
| 2026-01-16T04:58:00 | 35.6501 | 26.2200 | 661.0 | -1.27 | 1.04 | 1 | 79.2 | 77.2 | -81.0 | 15 | 78.9 |
| 2026-01-16T04:58:00 | 35.6501 | 26.2200 | 693.0 | 5.25 | 4.44 | 1 | 78.0 | 76.6 | -80.2 | 15 | 78.9 |
| 2026-01-16T04:58:00 | 35.6501 | 26.2200 | 725.0 | -2.73 | 4.13 | 1 | 72.5 | 71.3 | -81.4 | 15 | 78.9 |
| 2026-01-16T04:58:00 | 35.6501 | 26.2200 | 757.0 | 1.75 | -1.01 | 1 | 67.7 | 66.4 | -82.5 | 15 | 78.9 |
| 2026-01-16T04:58:00 | 35.6501 | 26.2200 | 789.0 | -1.42 | -8.13 | 1 | 62.8 | 61.5 | -83.6 | 15 | 78.9 |
| 2026-01-16T04:58:00 | 35.6501 | 26.2200 | 821.0 | -3.50 | 3.30 | 1 | 59.1 | 59.0 | -83.6 | 16 | 84.2 |
| 2026-01-16T04:58:00 | 35.6501 | 26.2200 | 853.0 | -0.65 | -1.69 | 1 | 56.4 | 55.7 | -84.1 | 15 | 78.9 |
| 2026-01-16T04:58:00 | 35.6501 | 26.2200 | 885.0 | -4.23 | 1.18 | 1 | 53.5 | 52.2 | -84.6 | 15 | 78.9 |
| 2026-01-16T04:58:00 | 35.6501 | 26.2200 | 917.0 | -1.42 | -7.24 | 1 | 51.5 | 49.6 | -84.8 | 12 | 63.2 |
| 2026-01-16T04:58:00 | 35.6501 | 26.2200 | 949.0 | 1.28 | -15.08 | 1 | 41.7 | 40.2 | -88.0 | 16 | 84.2 |
| 2026-01-16T04:58:00 | 35.6501 | 26.2200 | 981.0 | 2.98 | 6.61 | 1 | 36.6 | 35.4 | -89.2 | 14 | 73.7 |
| 2026-01-16T04:58:00 | 35.6501 | 26.2200 | 1013.0 | 2.26 | 1.89 | 1 | 29.4 | 29.0 | -91.1 | 18 | 94.7 |
| 2026-01-16T04:58:00 | 35.6501 | 26.2200 | 1045.0 | -4.31 | -0.67 | 1 | 22.9 | 22.6 | -93.2 | 17 | 89.5 |
| 2026-01-16T04:58:00 | 35.6501 | 26.2200 | 1077.0 | -5.11 | -2.93 | 1 | 18.2 | 17.5 | -94.9 | 16 | 84.2 |
| 2026-01-16T04:58:00 | 35.6501 | 26.2200 | 1109.0 | -6.11 | -2.29 | 1 | 10.6 | 10.6 | -98.0 | 19 | 100.0 |
| 2026-01-16T04:58:00 | 35.6501 | 26.2200 | 1141.0 | 3.00 | -4.28 | 1 | 6.4 | 6.4 | -100.4 | 19 | 100.0 |
| 2026-01-16T04:58:00 | 35.6501 | 26.2200 | 1173.0 | -1.35 | -2.37 | 1 | 6.0 | 6.2 | -99.7 | 16 | 84.2 |
| 2026-01-16T04:58:00 | 35.6501 | 26.2200 | 1205.0 | 3.77 | -9.44 | 1 | 5.1 | 5.8 | -99.2 | 6 | 31.6 |
| 2026-01-16T04:59:00 | 35.6501 | 26.2200 | 53.0 | 0.77 | 3.00 | 1 | 161.3 | 160.4 | -82.3 | 15 | 78.9 |
| 2026-01-16T04:59:00 | 35.6501 | 26.2200 | 85.0 | 5.95 | -4.57 | 1 | 147.2 | 146.4 | -82.6 | 16 | 84.2 |
| 2026-01-16T04:59:00 | 35.6501 | 26.2200 | 117.0 | -1.31 | -3.11 | 1 | 134.1 | 133.0 | -84.5 | 15 | 78.9 |
| 2026-01-16T04:59:00 | 35.6501 | 26.2200 | 149.0 | 2.73 | -12.06 | 1 | 118.7 | 118.7 | -87.8 | 16 | 84.2 |
| 2026-01-16T04:59:00 | 35.6501 | 26.2200 | 181.0 | 11.70 | -1.47 | 1 | 119.6 | 118.7 | -85.2 | 16 | 84.2 |
| 2026-01-16T04:59:00 | 35.6501 | 26.2200 | 213.0 | 3.97 | -4.99 | 1 | 119.8 | 119.3 | -82.7 | 17 | 89.5 |
| 2026-01-16T04:59:00 | 35.6501 | 26.2200 | 245.0 | 2.72 | -10.38 | 1 | 121.1 | 120.8 | -80.1 | 16 | 84.2 |
| 2026-01-16T04:59:00 | 35.6501 | 26.2200 | 277.0 | 3.49 | -0.00 | 1 | 118.7 | 117.7 | -79.6 | 16 | 84.2 |
| 2026-01-16T04:59:00 | 35.6501 | 26.2200 | 309.0 | 2.50 | -3.91 | 1 | 115.2 | 114.2 | -79.4 | 15 | 78.9 |
| 2026-01-16T04:59:00 | 35.6501 | 26.2200 | 341.0 | 2.87 | -4.21 | 1 | 111.5 | 110.8 | -79.3 | 14 | 73.7 |
| 2026-01-16T04:59:00 | 35.6501 | 26.2200 | 373.0 | 3.73 | -3.79 | 1 | 106.6 | 106.2 | -79.8 | 17 | 89.5 |
| 2026-01-16T04:59:00 | 35.6501 | 26.2200 | 405.0 | -0.99 | -5.53 | 1 | 107.3 | 106.1 | -78.4 | 16 | 84.2 |
| 2026-01-16T04:59:00 | 35.6501 | 26.2200 | 437.0 | 5.13 | 4.35 | 1 | 106.8 | 106.4 | -76.8 | 16 | 84.2 |
| 2026-01-16T04:59:00 | 35.6501 | 26.2200 | 469.0 | -0.40 | 3.77 | 1 | 107.4 | 106.3 | -75.5 | 14 | 73.7 |
| 2026-01-16T04:59:00 | 35.6501 | 26.2200 | 501.0 | 3.02 | 4.73 | 1 | 103.5 | 102.6 | -75.9 | 16 | 84.2 |
| 2026-01-16T04:59:00 | 35.6501 | 26.2200 | 533.0 | 2.74 | -5.29 | 1 | 98.0 | 97.1 | -77.0 | 16 | 84.2 |
| 2026-01-16T04:59:00 | 35.6501 | 26.2200 | 565.0 | -0.03 | -2.59 | 1 | 94.3 | 92.6 | -77.8 | 15 | 78.9 |
| 2026-01-16T04:59:00 | 35.6501 | 26.2200 | 597.0 | 8.59 | -3.06 | 1 | 89.2 | 86.0 | -79.5 | 14 | 73.7 |
| 2026-01-16T04:59:00 | 35.6501 | 26.2200 | 629.0 | -0.68 | 0.67 | 1 | 81.5 | 81.5 | -80.3 | 17 | 89.5 |
| 2026-01-16T04:59:00 | 35.6501 | 26.2200 | 661.0 | 2.92 | 1.03 | 1 | 78.5 | 76.4 | -81.4 | 15 | 78.9 |
| 2026-01-16T04:59:00 | 35.6501 | 26.2200 | 693.0 | 4.49 | -4.97 | 1 | 76.2 | 74.9 | -80.9 | 13 | 68.4 |
| 2026-01-16T04:59:00 | 35.6501 | 26.2200 | 725.0 | -0.24 | -10.30 | 1 | 73.8 | 73.5 | -80.5 | 18 | 94.7 |
| 2026-01-16T04:59:00 | 35.6501 | 26.2200 | 757.0 | 4.86 | -1.97 | 1 | 66.6 | 65.5 | -82.9 | 16 | 84.2 |
| 2026-01-16T04:59:00 | 35.6501 | 26.2200 | 789.0 | -3.44 | -7.12 | 1 | 62.5 | 61.0 | -83.8 | 13 | 68.4 |
| 2026-01-16T04:59:00 | 35.6501 | 26.2200 | 821.0 | -0.85 | -2.69 | 1 | 60.6 | 60.6 | -83.0 | 19 | 100.0 |
| 2026-01-16T04:59:00 | 35.6501 | 26.2200 | 853.0 | -0.82 | -9.88 | 1 | 59.7 | 58.7 | -82.8 | 16 | 84.2 |
| 2026-01-16T04:59:00 | 35.6501 | 26.2200 | 885.0 | 4.80 | -6.64 | 1 | 53.2 | 52.4 | -84.5 | 15 | 78.9 |
| 2026-01-16T04:59:00 | 35.6501 | 26.2200 | 917.0 | 4.50 | -4.21 | 1 | 50.0 | 49.5 | -84.8 | 18 | 94.7 |
| 2026-01-16T04:59:00 | 35.6501 | 26.2200 | 949.0 | -7.71 | -8.25 | 1 | 42.6 | 41.7 | -87.3 | 15 | 78.9 |
| 2026-01-16T04:59:00 | 35.6501 | 26.2200 | 981.0 | -0.46 | -5.51 | 1 | 34.5 | 34.5 | -89.5 | 17 | 89.5 |
| 2026-01-16T04:59:00 | 35.6501 | 26.2200 | 1013.0 | 5.05 | -5.62 | 1 | 28.3 | 28.3 | -91.5 | 18 | 94.7 |
| 2026-01-16T04:59:00 | 35.6501 | 26.2200 | 1045.0 | -0.34 | -4.67 | 1 | 25.1 | 23.8 | -92.7 | 16 | 84.2 |
| 2026-01-16T04:59:00 | 35.6501 | 26.2200 | 1077.0 | -8.70 | -7.61 | 1 | 17.5 | 17.5 | -94.9 | 17 | 89.5 |
| 2026-01-16T04:59:00 | 35.6501 | 26.2200 | 1109.0 | -4.60 | -5.52 | 1 | 10.0 | 10.0 | -98.4 | 19 | 100.0 |
| 2026-01-16T04:59:00 | 35.6501 | 26.2200 | 1141.0 | 3.17 | -11.35 | 1 | 6.9 | 6.9 | -99.9 | 19 | 100.0 |
| 2026-01-16T04:59:00 | 35.6501 | 26.2200 | 1173.0 | -2.59 | -1.96 | 1 | 5.6 | 5.6 | -100.2 | 17 | 89.5 |
| 2026-01-16T04:59:00 | 35.6501 | 26.2200 | 1205.0 | 1.10 | -1.35 | 1 | 5.7 | 5.5 | -99.4 | 9 | 47.4 |
| 2026-01-16T05:00:00 | 35.6501 | 26.2200 | 53.0 | 0.46 | -8.98 | 1 | 158.4 | 157.7 | -83.5 | 18 | 90.0 |
| 2026-01-16T05:00:00 | 35.6501 | 26.2200 | 85.0 | 6.77 | -1.73 | 1 | 147.7 | 147.1 | -82.3 | 16 | 80.0 |
| 2026-01-16T05:00:00 | 35.6501 | 26.2200 | 117.0 | 3.27 | -8.86 | 1 | 133.5 | 132.2 | -84.9 | 14 | 70.0 |
| 2026-01-16T05:00:00 | 35.6501 | 26.2200 | 149.0 | 8.76 | -20.67 | 1 | 117.7 | 117.4 | -88.3 | 17 | 85.0 |
| 2026-01-16T05:00:00 | 35.6501 | 26.2200 | 181.0 | 4.16 | -9.72 | 1 | 120.1 | 120.0 | -84.7 | 18 | 90.0 |
| 2026-01-16T05:00:00 | 35.6501 | 26.2200 | 213.0 | 5.47 | -11.81 | 1 | 119.5 | 118.0 | -83.3 | 16 | 80.0 |
| 2026-01-16T05:00:00 | 35.6501 | 26.2200 | 245.0 | 7.71 | -6.05 | 1 | 120.9 | 119.1 | -80.8 | 16 | 80.0 |
| 2026-01-16T05:00:00 | 35.6501 | 26.2200 | 277.0 | 9.09 | 6.81 | 1 | 117.5 | 116.7 | -80.0 | 14 | 70.0 |
| 2026-01-16T05:00:00 | 35.6501 | 26.2200 | 309.0 | 6.57 | 2.48 | 1 | 115.6 | 113.5 | -79.7 | 14 | 70.0 |
| 2026-01-16T05:00:00 | 35.6501 | 26.2200 | 341.0 | 10.88 | -5.45 | 1 | 112.0 | 111.7 | -78.9 | 18 | 90.0 |
| 2026-01-16T05:00:00 | 35.6501 | 26.2200 | 373.0 | 5.08 | -4.51 | 1 | 108.1 | 107.4 | -79.2 | 17 | 85.0 |
| 2026-01-16T05:00:00 | 35.6501 | 26.2200 | 405.0 | 2.92 | 0.56 | 1 | 109.0 | 107.2 | -77.9 | 16 | 80.0 |
| 2026-01-16T05:00:00 | 35.6501 | 26.2200 | 437.0 | 4.77 | -3.28 | 1 | 108.5 | 108.0 | -76.2 | 17 | 85.0 |
| 2026-01-16T05:00:00 | 35.6501 | 26.2200 | 469.0 | -6.44 | -5.81 | 1 | 107.8 | 106.3 | -75.5 | 14 | 70.0 |
| 2026-01-16T05:00:00 | 35.6501 | 26.2200 | 501.0 | 1.20 | -1.82 | 1 | 104.9 | 103.9 | -75.3 | 17 | 85.0 |
| 2026-01-16T05:00:00 | 35.6501 | 26.2200 | 533.0 | -5.46 | -2.02 | 1 | 98.1 | 97.3 | -76.9 | 18 | 90.0 |
| 2026-01-16T05:00:00 | 35.6501 | 26.2200 | 565.0 | 2.14 | -0.86 | 1 | 94.9 | 93.2 | -77.5 | 15 | 75.0 |
| 2026-01-16T05:00:00 | 35.6501 | 26.2200 | 597.0 | 3.51 | -3.36 | 1 | 90.7 | 90.0 | -77.7 | 17 | 85.0 |
| 2026-01-16T05:00:00 | 35.6501 | 26.2200 | 629.0 | -1.82 | -3.86 | 1 | 84.0 | 82.8 | -79.7 | 16 | 80.0 |
| 2026-01-16T05:00:00 | 35.6501 | 26.2200 | 661.0 | -0.90 | -1.75 | 1 | 80.4 | 77.9 | -80.7 | 14 | 70.0 |
| 2026-01-16T05:00:00 | 35.6501 | 26.2200 | 693.0 | -0.45 | 1.68 | 1 | 78.4 | 77.2 | -79.9 | 15 | 75.0 |
| 2026-01-16T05:00:00 | 35.6501 | 26.2200 | 725.0 | -2.36 | -5.80 | 1 | 75.9 | 73.9 | -80.3 | 12 | 60.0 |
| 2026-01-16T05:00:00 | 35.6501 | 26.2200 | 757.0 | 1.12 | -6.07 | 1 | 65.8 | 64.7 | -83.2 | 15 | 75.0 |
| 2026-01-16T05:00:00 | 35.6501 | 26.2200 | 789.0 | -1.91 | -0.18 | 1 | 59.7 | 58.8 | -84.7 | 18 | 90.0 |
| 2026-01-16T05:00:00 | 35.6501 | 26.2200 | 821.0 | 0.90 | -3.72 | 1 | 59.6 | 59.1 | -83.6 | 19 | 95.0 |
| 2026-01-16T05:00:00 | 35.6501 | 26.2200 | 853.0 | -4.10 | -6.41 | 1 | 59.8 | 58.7 | -82.8 | 16 | 80.0 |
| 2026-01-16T05:00:00 | 35.6501 | 26.2200 | 885.0 | 7.29 | -7.73 | 1 | 53.8 | 51.8 | -84.8 | 15 | 75.0 |
| 2026-01-16T05:00:00 | 35.6501 | 26.2200 | 917.0 | 1.50 | -2.72 | 1 | 48.7 | 48.7 | -85.2 | 20 | 100.0 |
| 2026-01-16T05:00:00 | 35.6501 | 26.2200 | 949.0 | -2.35 | -6.50 | 1 | 43.4 | 41.9 | -87.2 | 17 | 85.0 |
| 2026-01-16T05:00:00 | 35.6501 | 26.2200 | 981.0 | -0.02 | -11.25 | 1 | 36.5 | 35.3 | -89.2 | 16 | 80.0 |
| 2026-01-16T05:00:00 | 35.6501 | 26.2200 | 1013.0 | -1.00 | -4.88 | 1 | 28.9 | 28.3 | -91.4 | 19 | 95.0 |
| 2026-01-16T05:00:00 | 35.6501 | 26.2200 | 1045.0 | -3.36 | -1.31 | 1 | 23.0 | 23.0 | -93.0 | 19 | 95.0 |
| 2026-01-16T05:00:00 | 35.6501 | 26.2200 | 1077.0 | -2.25 | 2.92 | 1 | 17.3 | 16.2 | -95.6 | 17 | 85.0 |
| 2026-01-16T05:00:00 | 35.6501 | 26.2200 | 1109.0 | -2.79 | -0.76 | 1 | 11.4 | 11.0 | -97.7 | 19 | 95.0 |
| 2026-01-16T05:00:00 | 35.6501 | 26.2200 | 1141.0 | -3.66 | -5.66 | 1 | 7.1 | 6.8 | -100.0 | 19 | 95.0 |
| 2026-01-16T05:00:00 | 35.6501 | 26.2200 | 1173.0 | 2.75 | -0.78 | 1 | 5.5 | 5.5 | -100.3 | 16 | 80.0 |
| 2026-01-16T05:00:00 | 35.6501 | 26.2200 | 1205.0 | 5.34 | -1.49 | 1 | 5.0 | 5.0 | -99.9 | 7 | 35.0 |
| 2026-01-16T05:01:00 | 35.6501 | 26.2200 | 53.0 | 7.35 | 0.35 | 1 | 159.9 | 159.5 | -82.7 | 18 | 94.7 |
| 2026-01-16T05:01:00 | 35.6501 | 26.2200 | 85.0 | 10.29 | 0.03 | 1 | 146.3 | 145.4 | -83.0 | 16 | 84.2 |
| 2026-01-16T05:01:00 | 35.6501 | 26.2200 | 117.0 | -2.66 | -21.26 | 1 | 126.4 | 125.4 | -87.9 | 16 | 84.2 |
| 2026-01-16T05:01:00 | 35.6501 | 26.2200 | 149.0 | 6.10 | -19.05 | 1 | 118.5 | 118.7 | -87.8 | 17 | 89.5 |
| 2026-01-16T05:01:00 | 35.6501 | 26.2200 | 181.0 | 5.15 | 7.79 | 1 | 118.2 | 116.8 | -86.0 | 15 | 78.9 |
| 2026-01-16T05:01:00 | 35.6501 | 26.2200 | 213.0 | 0.49 | -0.39 | 1 | 119.8 | 118.7 | -83.0 | 16 | 84.2 |
| 2026-01-16T05:01:00 | 35.6501 | 26.2200 | 245.0 | 5.13 | -2.30 | 1 | 120.1 | 118.7 | -81.0 | 16 | 84.2 |
| 2026-01-16T05:01:00 | 35.6501 | 26.2200 | 277.0 | -2.20 | 1.74 | 1 | 117.3 | 115.5 | -80.5 | 15 | 78.9 |
| 2026-01-16T05:01:00 | 35.6501 | 26.2200 | 309.0 | 4.56 | 5.66 | 1 | 114.8 | 113.6 | -79.7 | 14 | 73.7 |
| 2026-01-16T05:01:00 | 35.6501 | 26.2200 | 341.0 | 6.23 | -1.07 | 1 | 112.4 | 111.7 | -78.9 | 16 | 84.2 |
| 2026-01-16T05:01:00 | 35.6501 | 26.2200 | 373.0 | -1.86 | 5.77 | 1 | 109.5 | 109.2 | -78.5 | 17 | 89.5 |
| 2026-01-16T05:01:00 | 35.6501 | 26.2200 | 405.0 | 2.59 | 0.50 | 1 | 107.8 | 106.9 | -78.0 | 17 | 89.5 |
| 2026-01-16T05:01:00 | 35.6501 | 26.2200 | 437.0 | -2.94 | -1.82 | 1 | 107.8 | 105.6 | -77.2 | 14 | 73.7 |
| 2026-01-16T05:01:00 | 35.6501 | 26.2200 | 469.0 | -4.03 | -0.42 | 1 | 107.8 | 106.7 | -75.4 | 15 | 78.9 |
| 2026-01-16T05:01:00 | 35.6501 | 26.2200 | 501.0 | -13.17 | -1.70 | 1 | 104.3 | 103.7 | -75.4 | 16 | 84.2 |
| 2026-01-16T05:01:00 | 35.6501 | 26.2200 | 533.0 | 3.04 | -7.40 | 1 | 98.2 | 97.7 | -76.8 | 17 | 89.5 |
| 2026-01-16T05:01:00 | 35.6501 | 26.2200 | 565.0 | 2.58 | -13.38 | 1 | 93.2 | 92.8 | -77.7 | 16 | 84.2 |
| 2026-01-16T05:01:00 | 35.6501 | 26.2200 | 597.0 | -0.16 | -1.30 | 1 | 92.9 | 90.9 | -77.3 | 14 | 73.7 |
| 2026-01-16T05:01:00 | 35.6501 | 26.2200 | 629.0 | -3.72 | -8.26 | 1 | 85.9 | 82.2 | -80.0 | 13 | 68.4 |
| 2026-01-16T05:01:00 | 35.6501 | 26.2200 | 661.0 | 3.67 | -12.90 | 1 | 81.7 | 80.4 | -79.6 | 16 | 84.2 |
| 2026-01-16T05:01:00 | 35.6501 | 26.2200 | 693.0 | -3.80 | -3.43 | 1 | 77.6 | 76.5 | -80.2 | 14 | 73.7 |
| 2026-01-16T05:01:00 | 35.6501 | 26.2200 | 725.0 | 1.89 | -0.10 | 1 | 73.8 | 72.4 | -80.9 | 15 | 78.9 |
| 2026-01-16T05:01:00 | 35.6501 | 26.2200 | 757.0 | 0.64 | -0.60 | 1 | 68.1 | 65.8 | -82.8 | 14 | 73.7 |
| 2026-01-16T05:01:00 | 35.6501 | 26.2200 | 789.0 | 3.17 | 2.09 | 1 | 61.7 | 61.2 | -83.7 | 15 | 78.9 |
| 2026-01-16T05:01:00 | 35.6501 | 26.2200 | 821.0 | -1.28 | -5.76 | 1 | 62.0 | 59.4 | -83.5 | 12 | 63.2 |
| 2026-01-16T05:01:00 | 35.6501 | 26.2200 | 853.0 | 0.68 | -2.33 | 1 | 57.6 | 56.3 | -83.8 | 16 | 84.2 |
| 2026-01-16T05:01:00 | 35.6501 | 26.2200 | 885.0 | 6.14 | -4.14 | 1 | 53.4 | 52.7 | -84.4 | 16 | 84.2 |
| 2026-01-16T05:01:00 | 35.6501 | 26.2200 | 917.0 | -0.63 | -2.74 | 1 | 50.0 | 49.7 | -84.7 | 17 | 89.5 |
| 2026-01-16T05:01:00 | 35.6501 | 26.2200 | 949.0 | 9.05 | -5.92 | 1 | 42.3 | 40.6 | -87.8 | 14 | 73.7 |
| 2026-01-16T05:01:00 | 35.6501 | 26.2200 | 981.0 | -3.59 | -5.11 | 1 | 36.8 | 34.6 | -89.5 | 12 | 63.2 |
| 2026-01-16T05:01:00 | 35.6501 | 26.2200 | 1013.0 | -0.17 | -9.94 | 1 | 27.7 | 27.7 | -91.7 | 19 | 100.0 |
| 2026-01-16T05:01:00 | 35.6501 | 26.2200 | 1045.0 | -3.69 | -1.00 | 1 | 23.2 | 22.6 | -93.2 | 17 | 89.5 |
| 2026-01-16T05:01:00 | 35.6501 | 26.2200 | 1077.0 | -0.68 | -5.58 | 1 | 16.7 | 16.2 | -95.5 | 18 | 94.7 |
| 2026-01-16T05:01:00 | 35.6501 | 26.2200 | 1109.0 | -5.93 | -7.90 | 1 | 10.5 | 10.0 | -98.4 | 16 | 84.2 |
| 2026-01-16T05:01:00 | 35.6501 | 26.2200 | 1141.0 | -7.14 | -5.13 | 1 | 7.8 | 6.6 | -100.1 | 17 | 89.5 |
| 2026-01-16T05:01:00 | 35.6501 | 26.2200 | 1173.0 | -0.16 | -3.50 | 1 | 6.0 | 5.8 | -100.0 | 15 | 78.9 |
| 2026-01-16T05:01:00 | 35.6501 | 26.2200 | 1205.0 | -3.20 | -3.66 | 1 | 5.9 | 5.6 | -99.3 | 12 | 63.2 |
| 2026-01-16T05:02:00 | 35.6501 | 26.2200 | 53.0 | 3.34 | -3.45 | 1 | 156.5 | 155.4 | -84.4 | 15 | 78.9 |
| 2026-01-16T05:02:00 | 35.6501 | 26.2200 | 85.0 | 1.28 | 1.40 | 1 | 148.4 | 146.9 | -82.3 | 13 | 68.4 |
| 2026-01-16T05:02:00 | 35.6501 | 26.2200 | 117.0 | 1.13 | -12.16 | 1 | 129.1 | 128.2 | -86.7 | 14 | 73.7 |
| 2026-01-16T05:02:00 | 35.6501 | 26.2200 | 149.0 | -3.47 | -10.81 | 1 | 123.4 | 121.6 | -86.5 | 11 | 57.9 |
| 2026-01-16T05:02:00 | 35.6501 | 26.2200 | 181.0 | 0.92 | -11.23 | 1 | 120.4 | 120.2 | -84.5 | 16 | 84.2 |
| 2026-01-16T05:02:00 | 35.6501 | 26.2200 | 213.0 | 6.09 | -4.33 | 1 | 120.2 | 119.0 | -82.8 | 15 | 78.9 |
| 2026-01-16T05:02:00 | 35.6501 | 26.2200 | 245.0 | 6.45 | -0.50 | 1 | 119.6 | 119.0 | -80.9 | 17 | 89.5 |
| 2026-01-16T05:02:00 | 35.6501 | 26.2200 | 277.0 | 7.93 | -3.55 | 1 | 116.1 | 115.3 | -80.6 | 15 | 78.9 |
| 2026-01-16T05:02:00 | 35.6501 | 26.2200 | 309.0 | 1.97 | 1.79 | 1 | 113.0 | 112.6 | -80.1 | 17 | 89.5 |
| 2026-01-16T05:02:00 | 35.6501 | 26.2200 | 341.0 | 6.13 | 3.56 | 1 | 110.3 | 109.8 | -79.7 | 18 | 94.7 |
| 2026-01-16T05:02:00 | 35.6501 | 26.2200 | 373.0 | 7.01 | 0.49 | 1 | 107.0 | 106.3 | -79.7 | 16 | 84.2 |
| 2026-01-16T05:02:00 | 35.6501 | 26.2200 | 405.0 | -1.64 | 0.69 | 1 | 106.9 | 105.9 | -78.5 | 15 | 78.9 |
| 2026-01-16T05:02:00 | 35.6501 | 26.2200 | 437.0 | 5.27 | 0.48 | 1 | 108.5 | 107.2 | -76.5 | 15 | 78.9 |
| 2026-01-16T05:02:00 | 35.6501 | 26.2200 | 469.0 | 6.52 | 6.13 | 1 | 105.7 | 105.2 | -76.0 | 16 | 84.2 |
| 2026-01-16T05:02:00 | 35.6501 | 26.2200 | 501.0 | 8.58 | -1.35 | 1 | 105.6 | 105.4 | -74.7 | 18 | 94.7 |
| 2026-01-16T05:02:00 | 35.6501 | 26.2200 | 533.0 | -3.99 | -1.39 | 1 | 98.8 | 97.3 | -76.9 | 16 | 84.2 |
| 2026-01-16T05:02:00 | 35.6501 | 26.2200 | 565.0 | 3.34 | -5.94 | 1 | 94.2 | 93.7 | -77.3 | 15 | 78.9 |
| 2026-01-16T05:02:00 | 35.6501 | 26.2200 | 597.0 | 3.61 | -7.54 | 1 | 92.0 | 91.2 | -77.2 | 17 | 89.5 |
| 2026-01-16T05:02:00 | 35.6501 | 26.2200 | 629.0 | 6.04 | -13.29 | 1 | 85.2 | 83.6 | -79.4 | 13 | 68.4 |
| 2026-01-16T05:02:00 | 35.6501 | 26.2200 | 661.0 | 1.17 | -6.51 | 1 | 78.9 | 78.5 | -80.4 | 17 | 89.5 |
| 2026-01-16T05:02:00 | 35.6501 | 26.2200 | 693.0 | -0.38 | -0.40 | 1 | 77.2 | 75.8 | -80.5 | 17 | 89.5 |
| 2026-01-16T05:02:00 | 35.6501 | 26.2200 | 725.0 | 0.49 | -2.19 | 1 | 74.0 | 73.0 | -80.6 | 17 | 89.5 |
| 2026-01-16T05:02:00 | 35.6501 | 26.2200 | 757.0 | -0.18 | 5.94 | 1 | 67.1 | 65.6 | -82.8 | 15 | 78.9 |
| 2026-01-16T05:02:00 | 35.6501 | 26.2200 | 789.0 | 2.53 | -2.70 | 1 | 61.3 | 60.0 | -84.2 | 16 | 84.2 |
| 2026-01-16T05:02:00 | 35.6501 | 26.2200 | 821.0 | 2.46 | -0.03 | 1 | 61.1 | 58.5 | -83.9 | 13 | 68.4 |
| 2026-01-16T05:02:00 | 35.6501 | 26.2200 | 853.0 | 3.54 | -1.31 | 1 | 59.7 | 57.9 | -83.1 | 15 | 78.9 |
| 2026-01-16T05:02:00 | 35.6501 | 26.2200 | 885.0 | 7.54 | -3.03 | 1 | 53.9 | 52.9 | -84.3 | 15 | 78.9 |
| 2026-01-16T05:02:00 | 35.6501 | 26.2200 | 917.0 | 6.98 | -4.60 | 1 | 48.7 | 47.7 | -85.6 | 14 | 73.7 |
| 2026-01-16T05:02:00 | 35.6501 | 26.2200 | 949.0 | -1.53 | -9.42 | 1 | 42.8 | 41.4 | -87.4 | 15 | 78.9 |
| 2026-01-16T05:02:00 | 35.6501 | 26.2200 | 981.0 | 0.24 | 8.86 | 1 | 36.8 | 35.5 | -89.1 | 14 | 73.7 |
| 2026-01-16T05:02:00 | 35.6501 | 26.2200 | 1013.0 | 3.04 | -4.47 | 1 | 28.5 | 27.9 | -91.7 | 17 | 89.5 |
| 2026-01-16T05:02:00 | 35.6501 | 26.2200 | 1045.0 | 0.56 | 0.85 | 1 | 23.2 | 22.2 | -93.4 | 15 | 78.9 |
| 2026-01-16T05:02:00 | 35.6501 | 26.2200 | 1077.0 | -1.38 | -2.84 | 1 | 18.3 | 17.4 | -94.9 | 15 | 78.9 |
| 2026-01-16T05:02:00 | 35.6501 | 26.2200 | 1109.0 | -2.18 | -9.18 | 1 | 10.8 | 10.5 | -98.1 | 18 | 94.7 |
| 2026-01-16T05:02:00 | 35.6501 | 26.2200 | 1141.0 | -2.64 | -4.61 | 1 | 7.3 | 7.1 | -99.7 | 18 | 94.7 |
| 2026-01-16T05:02:00 | 35.6501 | 26.2200 | 1173.0 | -7.50 | -9.53 | 1 | 5.8 | 5.5 | -100.3 | 18 | 94.7 |
| 2026-01-16T05:02:00 | 35.6501 | 26.2200 | 1205.0 | 0.35 | 3.72 | 1 | 5.7 | 5.5 | -99.4 | 9 | 47.4 |
| 2026-01-16T05:03:00 | 35.6501 | 26.2200 | 53.0 | 1.90 | -13.18 | 1 | 149.9 | 149.6 | -87.0 | 18 | 90.0 |
| 2026-01-16T05:03:00 | 35.6501 | 26.2200 | 85.0 | 3.23 | -8.67 | 1 | 146.2 | 145.5 | -83.0 | 16 | 80.0 |
| 2026-01-16T05:03:00 | 35.6501 | 26.2200 | 117.0 | 4.00 | -11.14 | 1 | 129.5 | 129.1 | -86.2 | 18 | 90.0 |
| 2026-01-16T05:03:00 | 35.6501 | 26.2200 | 149.0 | 3.89 | -5.93 | 1 | 122.9 | 121.6 | -86.5 | 16 | 80.0 |
| 2026-01-16T05:03:00 | 35.6501 | 26.2200 | 181.0 | -2.19 | -3.92 | 1 | 121.4 | 119.9 | -84.7 | 13 | 65.0 |
| 2026-01-16T05:03:00 | 35.6501 | 26.2200 | 213.0 | 5.50 | 3.65 | 1 | 118.5 | 115.6 | -84.3 | 14 | 70.0 |
| 2026-01-16T05:03:00 | 35.6501 | 26.2200 | 245.0 | 4.43 | -10.62 | 1 | 120.2 | 119.4 | -80.7 | 15 | 75.0 |
| 2026-01-16T05:03:00 | 35.6501 | 26.2200 | 277.0 | 4.97 | -2.88 | 1 | 115.0 | 114.5 | -81.0 | 18 | 90.0 |
| 2026-01-16T05:03:00 | 35.6501 | 26.2200 | 309.0 | 10.17 | -0.74 | 1 | 111.9 | 111.9 | -80.4 | 18 | 90.0 |
| 2026-01-16T05:03:00 | 35.6501 | 26.2200 | 341.0 | 3.97 | 1.73 | 1 | 112.6 | 110.9 | -79.2 | 14 | 70.0 |
| 2026-01-16T05:03:00 | 35.6501 | 26.2200 | 373.0 | 6.34 | 2.77 | 1 | 109.5 | 109.2 | -78.5 | 18 | 90.0 |
| 2026-01-16T05:03:00 | 35.6501 | 26.2200 | 405.0 | -3.68 | -4.94 | 1 | 107.5 | 106.8 | -78.0 | 14 | 70.0 |
| 2026-01-16T05:03:00 | 35.6501 | 26.2200 | 437.0 | -4.05 | 2.15 | 1 | 109.2 | 107.6 | -76.3 | 14 | 70.0 |
| 2026-01-16T05:03:00 | 35.6501 | 26.2200 | 469.0 | -2.73 | 0.02 | 1 | 107.4 | 107.1 | -75.2 | 19 | 95.0 |
| 2026-01-16T05:03:00 | 35.6501 | 26.2200 | 501.0 | -12.35 | 3.69 | 1 | 103.5 | 102.6 | -75.8 | 15 | 75.0 |
| 2026-01-16T05:03:00 | 35.6501 | 26.2200 | 533.0 | 0.71 | -3.66 | 1 | 101.0 | 99.1 | -76.2 | 14 | 70.0 |
| 2026-01-16T05:03:00 | 35.6501 | 26.2200 | 565.0 | -2.54 | -7.76 | 1 | 95.7 | 94.4 | -77.0 | 14 | 70.0 |
| 2026-01-16T05:03:00 | 35.6501 | 26.2200 | 597.0 | 0.70 | -6.99 | 1 | 91.0 | 90.1 | -77.7 | 15 | 75.0 |
| 2026-01-16T05:03:00 | 35.6501 | 26.2200 | 629.0 | 2.94 | -3.84 | 1 | 85.5 | 84.8 | -78.9 | 18 | 90.0 |
| 2026-01-16T05:03:00 | 35.6501 | 26.2200 | 661.0 | -8.32 | -5.18 | 1 | 79.7 | 78.2 | -80.6 | 15 | 75.0 |
| 2026-01-16T05:03:00 | 35.6501 | 26.2200 | 693.0 | 0.60 | -4.50 | 1 | 76.2 | 74.3 | -81.2 | 16 | 80.0 |
| 2026-01-16T05:03:00 | 35.6501 | 26.2200 | 725.0 | 0.75 | -2.68 | 1 | 74.2 | 73.0 | -80.7 | 17 | 85.0 |
| 2026-01-16T05:03:00 | 35.6501 | 26.2200 | 757.0 | -0.54 | -7.43 | 1 | 67.2 | 66.1 | -82.6 | 15 | 75.0 |
| 2026-01-16T05:03:00 | 35.6501 | 26.2200 | 789.0 | 0.10 | -5.36 | 1 | 62.1 | 61.7 | -83.5 | 18 | 90.0 |
| 2026-01-16T05:03:00 | 35.6501 | 26.2200 | 821.0 | 3.94 | -9.30 | 1 | 61.6 | 59.2 | -83.6 | 15 | 75.0 |
| 2026-01-16T05:03:00 | 35.6501 | 26.2200 | 853.0 | 13.24 | -2.22 | 1 | 58.4 | 57.5 | -83.3 | 17 | 85.0 |
| 2026-01-16T05:03:00 | 35.6501 | 26.2200 | 885.0 | -0.32 | 1.92 | 1 | 53.8 | 53.5 | -84.0 | 19 | 95.0 |
| 2026-01-16T05:03:00 | 35.6501 | 26.2200 | 917.0 | -0.45 | -3.53 | 1 | 49.8 | 49.8 | -84.7 | 19 | 95.0 |
| 2026-01-16T05:03:00 | 35.6501 | 26.2200 | 949.0 | 1.16 | -3.08 | 1 | 43.1 | 42.2 | -87.1 | 16 | 80.0 |
| 2026-01-16T05:03:00 | 35.6501 | 26.2200 | 981.0 | 7.08 | -7.81 | 1 | 35.6 | 34.6 | -89.5 | 13 | 65.0 |
| 2026-01-16T05:03:00 | 35.6501 | 26.2200 | 1013.0 | -2.54 | -9.45 | 1 | 27.2 | 26.5 | -92.3 | 18 | 90.0 |
| 2026-01-16T05:03:00 | 35.6501 | 26.2200 | 1045.0 | -2.95 | -11.82 | 1 | 21.9 | 21.9 | -93.6 | 20 | 100.0 |
| 2026-01-16T05:03:00 | 35.6501 | 26.2200 | 1077.0 | 1.33 | -1.87 | 1 | 19.4 | 18.1 | -94.6 | 15 | 75.0 |
| 2026-01-16T05:03:00 | 35.6501 | 26.2200 | 1109.0 | -7.30 | -3.63 | 1 | 9.4 | 9.4 | -98.8 | 20 | 100.0 |
| 2026-01-16T05:03:00 | 35.6501 | 26.2200 | 1141.0 | -8.28 | -4.95 | 1 | 6.9 | 6.9 | -99.9 | 20 | 100.0 |
| 2026-01-16T05:03:00 | 35.6501 | 26.2200 | 1173.0 | -0.59 | -4.16 | 1 | 5.9 | 5.8 | -100.0 | 17 | 85.0 |
| 2026-01-16T05:03:00 | 35.6501 | 26.2200 | 1205.0 | -1.20 | -3.69 | 1 | 5.6 | 5.6 | -99.3 | 9 | 45.0 |
| 2026-01-16T05:04:00 | 35.6501 | 26.2200 | 53.0 | 8.07 | 1.26 | 1 | 153.9 | 153.9 | -85.1 | 19 | 100.0 |
| 2026-01-16T05:04:00 | 35.6501 | 26.2200 | 85.0 | 3.29 | -2.18 | 1 | 146.1 | 145.6 | -82.9 | 18 | 94.7 |
| 2026-01-16T05:04:00 | 35.6501 | 26.2200 | 117.0 | -5.93 | -14.56 | 1 | 127.7 | 126.7 | -87.3 | 16 | 84.2 |
| 2026-01-16T05:04:00 | 35.6501 | 26.2200 | 149.0 | 7.81 | -13.14 | 1 | 120.3 | 118.0 | -88.1 | 13 | 68.4 |
| 2026-01-16T05:04:00 | 35.6501 | 26.2200 | 181.0 | -6.77 | -3.74 | 1 | 120.4 | 119.1 | -85.0 | 14 | 73.7 |
| 2026-01-16T05:04:00 | 35.6501 | 26.2200 | 213.0 | 11.08 | -16.47 | 1 | 119.8 | 117.7 | -83.4 | 13 | 68.4 |
| 2026-01-16T05:04:00 | 35.6501 | 26.2200 | 245.0 | 13.23 | -3.89 | 1 | 118.0 | 117.4 | -81.5 | 16 | 84.2 |
| 2026-01-16T05:04:00 | 35.6501 | 26.2200 | 277.0 | -4.30 | -0.42 | 1 | 114.5 | 113.2 | -81.5 | 14 | 73.7 |
| 2026-01-16T05:04:00 | 35.6501 | 26.2200 | 309.0 | 0.40 | 5.24 | 1 | 111.1 | 109.1 | -81.6 | 13 | 68.4 |
| 2026-01-16T05:04:00 | 35.6501 | 26.2200 | 341.0 | 5.57 | -0.48 | 1 | 111.2 | 107.9 | -80.5 | 13 | 68.4 |
| 2026-01-16T05:04:00 | 35.6501 | 26.2200 | 373.0 | 0.74 | 0.07 | 1 | 109.3 | 108.8 | -78.6 | 16 | 84.2 |
| 2026-01-16T05:04:00 | 35.6501 | 26.2200 | 405.0 | 6.16 | -0.60 | 1 | 108.6 | 107.4 | -77.8 | 15 | 78.9 |
| 2026-01-16T05:04:00 | 35.6501 | 26.2200 | 437.0 | -10.30 | 1.75 | 1 | 108.3 | 104.9 | -77.5 | 10 | 52.6 |
| 2026-01-16T05:04:00 | 35.6501 | 26.2200 | 469.0 | -5.94 | -4.27 | 1 | 106.3 | 105.5 | -75.9 | 17 | 89.5 |
| 2026-01-16T05:04:00 | 35.6501 | 26.2200 | 501.0 | -1.52 | -8.98 | 1 | 101.7 | 100.6 | -76.7 | 15 | 78.9 |
| 2026-01-16T05:04:00 | 35.6501 | 26.2200 | 533.0 | 1.52 | -2.73 | 1 | 98.7 | 97.7 | -76.7 | 17 | 89.5 |
| 2026-01-16T05:04:00 | 35.6501 | 26.2200 | 565.0 | 1.47 | -3.60 | 1 | 96.2 | 94.8 | -76.8 | 14 | 73.7 |
| 2026-01-16T05:04:00 | 35.6501 | 26.2200 | 597.0 | -2.11 | -1.50 | 1 | 90.4 | 90.6 | -77.5 | 18 | 94.7 |
| 2026-01-16T05:04:00 | 35.6501 | 26.2200 | 629.0 | -1.39 | 1.09 | 1 | 84.3 | 83.4 | -79.4 | 17 | 89.5 |
| 2026-01-16T05:04:00 | 35.6501 | 26.2200 | 661.0 | 0.43 | 2.36 | 1 | 79.6 | 79.8 | -79.9 | 18 | 94.7 |
| 2026-01-16T05:04:00 | 35.6501 | 26.2200 | 693.0 | -6.88 | -4.91 | 1 | 75.7 | 75.4 | -80.7 | 17 | 89.5 |
| 2026-01-16T05:04:00 | 35.6501 | 26.2200 | 725.0 | 8.78 | 3.50 | 1 | 74.4 | 72.6 | -80.8 | 12 | 63.2 |
| 2026-01-16T05:04:00 | 35.6501 | 26.2200 | 757.0 | -5.63 | -6.15 | 1 | 65.5 | 65.5 | -82.9 | 13 | 68.4 |
| 2026-01-16T05:04:00 | 35.6501 | 26.2200 | 789.0 | 2.56 | -2.51 | 1 | 61.4 | 59.9 | -84.3 | 15 | 78.9 |
| 2026-01-16T05:04:00 | 35.6501 | 26.2200 | 821.0 | 3.91 | -5.47 | 1 | 61.4 | 59.1 | -83.6 | 13 | 68.4 |
| 2026-01-16T05:04:00 | 35.6501 | 26.2200 | 853.0 | -0.68 | -12.88 | 1 | 58.0 | 56.9 | -83.6 | 15 | 78.9 |
| 2026-01-16T05:04:00 | 35.6501 | 26.2200 | 885.0 | 6.76 | -3.99 | 1 | 53.9 | 52.5 | -84.5 | 15 | 78.9 |
| 2026-01-16T05:04:00 | 35.6501 | 26.2200 | 917.0 | 5.74 | -9.93 | 1 | 51.6 | 48.8 | -85.1 | 13 | 68.4 |
| 2026-01-16T05:04:00 | 35.6501 | 26.2200 | 949.0 | 1.93 | 0.06 | 1 | 43.1 | 42.3 | -87.0 | 14 | 73.7 |
| 2026-01-16T05:04:00 | 35.6501 | 26.2200 | 981.0 | -4.14 | -0.46 | 1 | 35.4 | 34.7 | -89.5 | 15 | 78.9 |
| 2026-01-16T05:04:00 | 35.6501 | 26.2200 | 1013.0 | 2.59 | 3.26 | 1 | 28.4 | 27.8 | -91.7 | 16 | 84.2 |
| 2026-01-16T05:04:00 | 35.6501 | 26.2200 | 1045.0 | -0.67 | -0.07 | 1 | 21.6 | 21.0 | -94.0 | 16 | 84.2 |
| 2026-01-16T05:04:00 | 35.6501 | 26.2200 | 1077.0 | -0.38 | -3.32 | 1 | 16.4 | 15.3 | -96.1 | 16 | 84.2 |
| 2026-01-16T05:04:00 | 35.6501 | 26.2200 | 1109.0 | -0.34 | -2.75 | 1 | 10.8 | 10.8 | -97.8 | 19 | 100.0 |
| 2026-01-16T05:04:00 | 35.6501 | 26.2200 | 1141.0 | -3.69 | -5.01 | 1 | 7.4 | 7.4 | -99.4 | 19 | 100.0 |
| 2026-01-16T05:04:00 | 35.6501 | 26.2200 | 1173.0 | 0.82 | -4.50 | 1 | 5.4 | 5.4 | -100.4 | 17 | 89.5 |
| 2026-01-16T05:04:00 | 35.6501 | 26.2200 | 1205.0 | -0.40 | -0.47 | 1 | 5.4 | 5.4 | -99.5 | 15 | 78.9 |
| 2026-01-16T05:05:00 | 35.6501 | 26.2200 | 53.0 | 4.17 | -11.47 | 1 | 158.5 | 157.0 | -83.8 | 11 | 57.9 |
| 2026-01-16T05:05:00 | 35.6501 | 26.2200 | 85.0 | 4.05 | -9.52 | 1 | 144.5 | 144.3 | -83.5 | 17 | 89.5 |
| 2026-01-16T05:05:00 | 35.6501 | 26.2200 | 117.0 | 5.06 | 0.92 | 1 | 128.5 | 125.6 | -87.8 | 13 | 68.4 |
| 2026-01-16T05:05:00 | 35.6501 | 26.2200 | 149.0 | -2.37 | -5.02 | 1 | 121.9 | 118.6 | -87.8 | 11 | 57.9 |
| 2026-01-16T05:05:00 | 35.6501 | 26.2200 | 181.0 | 7.01 | 1.82 | 1 | 119.4 | 119.2 | -85.0 | 17 | 89.5 |
| 2026-01-16T05:05:00 | 35.6501 | 26.2200 | 213.0 | -0.44 | -2.58 | 1 | 117.2 | 116.0 | -84.1 | 15 | 78.9 |
| 2026-01-16T05:05:00 | 35.6501 | 26.2200 | 245.0 | 10.02 | -3.03 | 1 | 118.2 | 117.2 | -81.6 | 14 | 73.7 |
| 2026-01-16T05:05:00 | 35.6501 | 26.2200 | 277.0 | 4.57 | -9.67 | 1 | 114.1 | 114.1 | -81.1 | 18 | 94.7 |
| 2026-01-16T05:05:00 | 35.6501 | 26.2200 | 309.0 | -1.93 | -8.93 | 1 | 110.3 | 109.4 | -81.5 | 17 | 89.5 |
| 2026-01-16T05:05:00 | 35.6501 | 26.2200 | 341.0 | -1.26 | -7.74 | 1 | 111.7 | 109.8 | -79.7 | 14 | 73.7 |
| 2026-01-16T05:05:00 | 35.6501 | 26.2200 | 373.0 | 1.93 | 0.35 | 1 | 110.1 | 108.7 | -78.7 | 15 | 78.9 |
| 2026-01-16T05:05:00 | 35.6501 | 26.2200 | 405.0 | -5.19 | -4.55 | 1 | 107.4 | 107.1 | -77.9 | 17 | 89.5 |
| 2026-01-16T05:05:00 | 35.6501 | 26.2200 | 437.0 | -2.38 | -2.64 | 1 | 108.5 | 108.5 | -75.9 | 19 | 100.0 |
| 2026-01-16T05:05:00 | 35.6501 | 26.2200 | 469.0 | 0.69 | -3.89 | 1 | 106.2 | 106.2 | -75.6 | 17 | 89.5 |
| 2026-01-16T05:05:00 | 35.6501 | 26.2200 | 501.0 | -3.78 | 1.07 | 1 | 103.5 | 103.1 | -75.6 | 16 | 84.2 |
| 2026-01-16T05:05:00 | 35.6501 | 26.2200 | 533.0 | -6.62 | -3.49 | 1 | 97.1 | 97.1 | -77.0 | 18 | 94.7 |
| 2026-01-16T05:05:00 | 35.6501 | 26.2200 | 565.0 | -0.12 | 0.88 | 1 | 95.9 | 95.4 | -76.5 | 17 | 89.5 |
| 2026-01-16T05:05:00 | 35.6501 | 26.2200 | 597.0 | 8.06 | -0.02 | 1 | 88.8 | 87.8 | -78.7 | 14 | 73.7 |
| 2026-01-16T05:05:00 | 35.6501 | 26.2200 | 629.0 | 6.57 | -3.95 | 1 | 84.9 | 81.3 | -80.3 | 11 | 57.9 |
| 2026-01-16T05:05:00 | 35.6501 | 26.2200 | 661.0 | -0.57 | -2.51 | 1 | 77.6 | 74.7 | -82.1 | 12 | 63.2 |
| 2026-01-16T05:05:00 | 35.6501 | 26.2200 | 693.0 | 1.56 | 1.03 | 1 | 77.8 | 76.1 | -80.4 | 12 | 63.2 |
| 2026-01-16T05:05:00 | 35.6501 | 26.2200 | 725.0 | 7.28 | 1.03 | 1 | 71.9 | 71.6 | -81.3 | 12 | 63.2 |
| 2026-01-16T05:05:00 | 35.6501 | 26.2200 | 757.0 | 1.16 | -8.34 | 1 | 65.6 | 64.9 | -83.1 | 14 | 73.7 |
| 2026-01-16T05:05:00 | 35.6501 | 26.2200 | 789.0 | -4.19 | -6.72 | 1 | 63.6 | 62.0 | -83.4 | 11 | 57.9 |
| 2026-01-16T05:05:00 | 35.6501 | 26.2200 | 821.0 | 5.40 | -2.04 | 1 | 60.4 | 59.8 | -83.3 | 17 | 89.5 |
| 2026-01-16T05:05:00 | 35.6501 | 26.2200 | 853.0 | 6.70 | -2.55 | 1 | 58.2 | 56.1 | -83.9 | 13 | 68.4 |
| 2026-01-16T05:05:00 | 35.6501 | 26.2200 | 885.0 | -4.63 | -0.63 | 1 | 54.0 | 52.0 | -84.7 | 13 | 68.4 |
| 2026-01-16T05:05:00 | 35.6501 | 26.2200 | 917.0 | -10.85 | -1.61 | 1 | 51.6 | 51.0 | -84.2 | 17 | 89.5 |
| 2026-01-16T05:05:00 | 35.6501 | 26.2200 | 949.0 | -3.64 | -5.26 | 1 | 43.0 | 42.6 | -86.9 | 15 | 78.9 |
| 2026-01-16T05:05:00 | 35.6501 | 26.2200 | 981.0 | 1.40 | -5.86 | 1 | 34.9 | 33.9 | -89.8 | 17 | 89.5 |
| 2026-01-16T05:05:00 | 35.6501 | 26.2200 | 1013.0 | -7.57 | -1.03 | 1 | 28.6 | 27.9 | -91.6 | 16 | 84.2 |
| 2026-01-16T05:05:00 | 35.6501 | 26.2200 | 1045.0 | -4.17 | -5.87 | 1 | 21.4 | 21.1 | -94.0 | 18 | 94.7 |
| 2026-01-16T05:05:00 | 35.6501 | 26.2200 | 1077.0 | 0.84 | -2.64 | 1 | 16.4 | 15.1 | -96.2 | 15 | 78.9 |
| 2026-01-16T05:05:00 | 35.6501 | 26.2200 | 1109.0 | 4.63 | -3.12 | 1 | 11.5 | 11.5 | -97.4 | 19 | 100.0 |
| 2026-01-16T05:05:00 | 35.6501 | 26.2200 | 1141.0 | -1.85 | -1.50 | 1 | 6.5 | 6.5 | -100.2 | 18 | 94.7 |
| 2026-01-16T05:05:00 | 35.6501 | 26.2200 | 1173.0 | -1.41 | -3.00 | 1 | 5.6 | 5.6 | -100.2 | 17 | 89.5 |
| 2026-01-16T05:05:00 | 35.6501 | 26.2200 | 1205.0 | 2.36 | -5.74 | 1 | 5.2 | 4.8 | -100.2 | 14 | 73.7 |
| 2026-01-16T05:06:00 | 35.6501 | 26.2200 | 53.0 | 3.38 | -2.22 | 1 | 159.8 | 158.9 | -83.0 | 15 | 75.0 |
| 2026-01-16T05:06:00 | 35.6501 | 26.2200 | 85.0 | 1.37 | 1.31 | 1 | 146.1 | 145.7 | -82.9 | 18 | 90.0 |
| 2026-01-16T05:06:00 | 35.6501 | 26.2200 | 117.0 | 3.96 | -5.93 | 1 | 126.1 | 125.7 | -87.7 | 18 | 90.0 |
| 2026-01-16T05:06:00 | 35.6501 | 26.2200 | 149.0 | -2.40 | 1.73 | 1 | 117.8 | 117.2 | -88.4 | 18 | 90.0 |
| 2026-01-16T05:06:00 | 35.6501 | 26.2200 | 181.0 | 4.97 | -5.43 | 1 | 117.2 | 116.3 | -86.3 | 17 | 85.0 |
| 2026-01-16T05:06:00 | 35.6501 | 26.2200 | 213.0 | 8.28 | -2.27 | 1 | 115.3 | 115.3 | -84.4 | 17 | 85.0 |
| 2026-01-16T05:06:00 | 35.6501 | 26.2200 | 245.0 | -1.74 | 0.46 | 1 | 116.6 | 115.8 | -82.2 | 15 | 75.0 |
| 2026-01-16T05:06:00 | 35.6501 | 26.2200 | 277.0 | 6.39 | -3.25 | 1 | 114.6 | 113.0 | -81.6 | 13 | 65.0 |
| 2026-01-16T05:06:00 | 35.6501 | 26.2200 | 309.0 | 1.52 | -5.61 | 1 | 110.4 | 109.1 | -81.6 | 15 | 75.0 |
| 2026-01-16T05:06:00 | 35.6501 | 26.2200 | 341.0 | 7.73 | 3.60 | 1 | 110.7 | 110.6 | -79.4 | 17 | 85.0 |
| 2026-01-16T05:06:00 | 35.6501 | 26.2200 | 373.0 | 1.88 | 2.97 | 1 | 110.4 | 110.2 | -78.0 | 19 | 95.0 |
| 2026-01-16T05:06:00 | 35.6501 | 26.2200 | 405.0 | 6.10 | 7.60 | 1 | 109.4 | 109.3 | -77.0 | 18 | 90.0 |
| 2026-01-16T05:06:00 | 35.6501 | 26.2200 | 437.0 | 0.51 | -0.69 | 1 | 108.2 | 107.8 | -76.2 | 16 | 80.0 |
| 2026-01-16T05:06:00 | 35.6501 | 26.2200 | 469.0 | 2.64 | -6.65 | 1 | 107.0 | 106.3 | -75.5 | 17 | 85.0 |
| 2026-01-16T05:06:00 | 35.6501 | 26.2200 | 501.0 | -3.61 | -0.12 | 1 | 103.4 | 101.8 | -76.2 | 15 | 75.0 |
| 2026-01-16T05:06:00 | 35.6501 | 26.2200 | 533.0 | 6.62 | -1.00 | 1 | 98.3 | 97.1 | -77.0 | 14 | 70.0 |
| 2026-01-16T05:06:00 | 35.6501 | 26.2200 | 565.0 | -1.43 | 1.17 | 1 | 95.5 | 95.4 | -76.5 | 17 | 85.0 |
| 2026-01-16T05:06:00 | 35.6501 | 26.2200 | 597.0 | 7.79 | 2.00 | 1 | 90.9 | 88.0 | -78.6 | 15 | 75.0 |
| 2026-01-16T05:06:00 | 35.6501 | 26.2200 | 629.0 | 4.00 | 1.04 | 1 | 85.8 | 84.4 | -79.0 | 15 | 75.0 |
| 2026-01-16T05:06:00 | 35.6501 | 26.2200 | 661.0 | -3.41 | 0.06 | 1 | 78.5 | 78.0 | -80.7 | 16 | 80.0 |
| 2026-01-16T05:06:00 | 35.6501 | 26.2200 | 693.0 | -1.71 | 2.15 | 1 | 79.1 | 75.7 | -80.6 | 12 | 60.0 |
| 2026-01-16T05:06:00 | 35.6501 | 26.2200 | 725.0 | 5.90 | -2.13 | 1 | 73.3 | 71.4 | -81.4 | 14 | 70.0 |
| 2026-01-16T05:06:00 | 35.6501 | 26.2200 | 757.0 | 9.12 | -0.53 | 1 | 65.4 | 63.4 | -83.8 | 17 | 85.0 |
| 2026-01-16T05:06:00 | 35.6501 | 26.2200 | 789.0 | 10.67 | -6.76 | 1 | 61.6 | 61.3 | -83.7 | 19 | 95.0 |
| 2026-01-16T05:06:00 | 35.6501 | 26.2200 | 821.0 | 8.01 | 1.39 | 1 | 57.3 | 57.3 | -84.4 | 18 | 90.0 |
| 2026-01-16T05:06:00 | 35.6501 | 26.2200 | 853.0 | -1.57 | -5.14 | 1 | 59.2 | 58.5 | -82.8 | 18 | 90.0 |
| 2026-01-16T05:06:00 | 35.6501 | 26.2200 | 885.0 | -3.39 | -3.86 | 1 | 55.2 | 54.9 | -83.4 | 19 | 95.0 |
| 2026-01-16T05:06:00 | 35.6501 | 26.2200 | 917.0 | -3.07 | -9.48 | 1 | 51.0 | 50.8 | -84.3 | 18 | 90.0 |
| 2026-01-16T05:06:00 | 35.6501 | 26.2200 | 949.0 | -0.21 | -1.08 | 1 | 41.5 | 41.2 | -87.5 | 17 | 85.0 |
| 2026-01-16T05:06:00 | 35.6501 | 26.2200 | 981.0 | 4.21 | 1.11 | 1 | 36.2 | 36.2 | -88.8 | 19 | 95.0 |
| 2026-01-16T05:06:00 | 35.6501 | 26.2200 | 1013.0 | 0.68 | -5.03 | 1 | 29.7 | 28.9 | -91.1 | 16 | 80.0 |
| 2026-01-16T05:06:00 | 35.6501 | 26.2200 | 1045.0 | 0.45 | -6.63 | 1 | 21.4 | 20.5 | -94.2 | 16 | 80.0 |
| 2026-01-16T05:06:00 | 35.6501 | 26.2200 | 1077.0 | 2.51 | -3.61 | 1 | 17.2 | 16.5 | -95.4 | 18 | 90.0 |
| 2026-01-16T05:06:00 | 35.6501 | 26.2200 | 1109.0 | -3.22 | -0.79 | 1 | 10.2 | 10.2 | -98.2 | 19 | 95.0 |
| 2026-01-16T05:06:00 | 35.6501 | 26.2200 | 1141.0 | -0.60 | -2.15 | 1 | 6.6 | 6.6 | -100.2 | 20 | 100.0 |
| 2026-01-16T05:06:00 | 35.6501 | 26.2200 | 1173.0 | -6.42 | -4.96 | 1 | 5.8 | 5.8 | -100.0 | 20 | 100.0 |
| 2026-01-16T05:06:00 | 35.6501 | 26.2200 | 1205.0 | -2.55 | 1.38 | 1 | 5.8 | 6.0 | -99.0 | 8 | 40.0 |
| 2026-01-16T05:07:00 | 35.6501 | 26.2200 | 53.0 | 1.75 | -3.03 | 1 | 155.0 | 155.0 | -84.6 | 18 | 94.7 |
| 2026-01-16T05:07:00 | 35.6501 | 26.2200 | 85.0 | -0.08 | -0.71 | 1 | 140.8 | 140.5 | -85.2 | 18 | 94.7 |
| 2026-01-16T05:07:00 | 35.6501 | 26.2200 | 117.0 | -2.73 | -7.46 | 1 | 126.3 | 125.8 | -87.7 | 15 | 78.9 |
| 2026-01-16T05:07:00 | 35.6501 | 26.2200 | 149.0 | -3.00 | -7.52 | 1 | 115.9 | 115.4 | -89.2 | 17 | 89.5 |
| 2026-01-16T05:07:00 | 35.6501 | 26.2200 | 181.0 | 4.55 | -10.14 | 1 | 116.4 | 115.5 | -86.6 | 17 | 89.5 |
| 2026-01-16T05:07:00 | 35.6501 | 26.2200 | 213.0 | 4.72 | -3.28 | 1 | 115.0 | 115.0 | -84.6 | 17 | 89.5 |
| 2026-01-16T05:07:00 | 35.6501 | 26.2200 | 245.0 | 5.47 | -3.35 | 1 | 116.0 | 115.6 | -82.3 | 15 | 78.9 |
| 2026-01-16T05:07:00 | 35.6501 | 26.2200 | 277.0 | 3.78 | -4.46 | 1 | 115.5 | 113.3 | -81.5 | 14 | 73.7 |
| 2026-01-16T05:07:00 | 35.6501 | 26.2200 | 309.0 | -0.43 | -3.67 | 1 | 111.2 | 109.8 | -81.3 | 16 | 84.2 |
| 2026-01-16T05:07:00 | 35.6501 | 26.2200 | 341.0 | 4.55 | 5.47 | 1 | 110.0 | 108.7 | -80.2 | 12 | 63.2 |
| 2026-01-16T05:07:00 | 35.6501 | 26.2200 | 373.0 | -0.69 | 8.07 | 1 | 111.0 | 109.9 | -78.1 | 15 | 78.9 |
| 2026-01-16T05:07:00 | 35.6501 | 26.2200 | 405.0 | 3.74 | -4.13 | 1 | 110.2 | 108.1 | -77.5 | 12 | 63.2 |
| 2026-01-16T05:07:00 | 35.6501 | 26.2200 | 437.0 | 9.08 | -3.64 | 1 | 109.1 | 108.0 | -76.1 | 15 | 78.9 |
| 2026-01-16T05:07:00 | 35.6501 | 26.2200 | 469.0 | 6.70 | 0.53 | 1 | 107.5 | 106.6 | -75.4 | 17 | 89.5 |
| 2026-01-16T05:07:00 | 35.6501 | 26.2200 | 501.0 | -3.57 | 2.15 | 1 | 104.0 | 103.1 | -75.6 | 16 | 84.2 |
| 2026-01-16T05:07:00 | 35.6501 | 26.2200 | 533.0 | -0.03 | -2.66 | 1 | 99.7 | 98.4 | -76.4 | 16 | 84.2 |
| 2026-01-16T05:07:00 | 35.6501 | 26.2200 | 565.0 | 4.83 | -7.89 | 1 | 94.5 | 93.5 | -77.4 | 17 | 89.5 |
| 2026-01-16T05:07:00 | 35.6501 | 26.2200 | 597.0 | -1.23 | -3.24 | 1 | 89.8 | 89.6 | -77.9 | 17 | 89.5 |
| 2026-01-16T05:07:00 | 35.6501 | 26.2200 | 629.0 | -0.98 | 3.06 | 1 | 83.9 | 83.5 | -79.4 | 15 | 78.9 |
| 2026-01-16T05:07:00 | 35.6501 | 26.2200 | 661.0 | -1.99 | 2.80 | 1 | 79.4 | 77.7 | -80.8 | 14 | 73.7 |
| 2026-01-16T05:07:00 | 35.6501 | 26.2200 | 693.0 | -1.35 | -3.84 | 1 | 77.4 | 75.4 | -80.7 | 15 | 78.9 |
| 2026-01-16T05:07:00 | 35.6501 | 26.2200 | 725.0 | -0.25 | -1.54 | 1 | 74.6 | 74.6 | -79.9 | 18 | 94.7 |
| 2026-01-16T05:07:00 | 35.6501 | 26.2200 | 757.0 | 2.25 | 0.26 | 1 | 67.2 | 65.9 | -82.7 | 17 | 89.5 |
| 2026-01-16T05:07:00 | 35.6501 | 26.2200 | 789.0 | 5.85 | -3.56 | 1 | 60.4 | 59.5 | -84.5 | 17 | 89.5 |
| 2026-01-16T05:07:00 | 35.6501 | 26.2200 | 821.0 | 1.54 | -6.23 | 1 | 61.1 | 60.0 | -83.2 | 16 | 84.2 |
| 2026-01-16T05:07:00 | 35.6501 | 26.2200 | 853.0 | -5.48 | -3.42 | 1 | 58.3 | 57.1 | -83.5 | 16 | 84.2 |
| 2026-01-16T05:07:00 | 35.6501 | 26.2200 | 885.0 | 7.56 | -3.27 | 1 | 54.5 | 52.7 | -84.4 | 13 | 68.4 |
| 2026-01-16T05:07:00 | 35.6501 | 26.2200 | 917.0 | -3.22 | -5.36 | 1 | 50.5 | 49.5 | -84.8 | 15 | 78.9 |
| 2026-01-16T05:07:00 | 35.6501 | 26.2200 | 949.0 | 0.05 | -7.15 | 1 | 40.8 | 40.4 | -87.9 | 15 | 78.9 |
| 2026-01-16T05:07:00 | 35.6501 | 26.2200 | 981.0 | -2.69 | -7.80 | 1 | 37.4 | 34.8 | -89.4 | 14 | 73.7 |
| 2026-01-16T05:07:00 | 35.6501 | 26.2200 | 1013.0 | -2.57 | -1.48 | 1 | 28.2 | 27.7 | -91.7 | 18 | 94.7 |
| 2026-01-16T05:07:00 | 35.6501 | 26.2200 | 1045.0 | 1.87 | 2.38 | 1 | 22.4 | 22.4 | -93.3 | 19 | 100.0 |
| 2026-01-16T05:07:00 | 35.6501 | 26.2200 | 1077.0 | 1.52 | -6.37 | 1 | 16.5 | 15.3 | -96.0 | 16 | 84.2 |
| 2026-01-16T05:07:00 | 35.6501 | 26.2200 | 1109.0 | -3.70 | -7.01 | 1 | 10.7 | 10.7 | -97.9 | 19 | 100.0 |
| 2026-01-16T05:07:00 | 35.6501 | 26.2200 | 1141.0 | 0.85 | -4.51 | 1 | 6.9 | 6.9 | -99.9 | 19 | 100.0 |
| 2026-01-16T05:07:00 | 35.6501 | 26.2200 | 1173.0 | -2.46 | -4.30 | 1 | 6.4 | 6.1 | -99.7 | 15 | 78.9 |
| 2026-01-16T05:07:00 | 35.6501 | 26.2200 | 1205.0 | -5.52 | -9.60 | 1 | 5.4 | 5.1 | -99.9 | 9 | 47.4 |
| 2026-01-16T05:07:00 | 35.6501 | 26.2200 | 1237.0 | 9.09 | 9.95 | 4 | 5.2 | 4.8 | -99.4 | 1 | 5.3 |
| 2026-01-16T05:08:00 | 35.6501 | 26.2200 | 53.0 | 8.38 | -9.77 | 1 | 153.0 | 153.0 | -85.5 | 17 | 89.5 |
| 2026-01-16T05:08:00 | 35.6501 | 26.2200 | 85.0 | -6.01 | -3.55 | 1 | 141.1 | 141.1 | -84.9 | 18 | 94.7 |
| 2026-01-16T05:08:00 | 35.6501 | 26.2200 | 117.0 | -0.98 | -7.95 | 1 | 126.9 | 125.5 | -87.8 | 13 | 68.4 |
| 2026-01-16T05:08:00 | 35.6501 | 26.2200 | 149.0 | -5.51 | -10.05 | 1 | 116.7 | 116.3 | -88.8 | 18 | 94.7 |
| 2026-01-16T05:08:00 | 35.6501 | 26.2200 | 181.0 | 2.20 | -8.65 | 1 | 118.6 | 118.3 | -85.4 | 18 | 94.7 |
| 2026-01-16T05:08:00 | 35.6501 | 26.2200 | 213.0 | -7.45 | -9.59 | 1 | 117.3 | 116.6 | -83.9 | 14 | 73.7 |
| 2026-01-16T05:08:00 | 35.6501 | 26.2200 | 245.0 | 4.67 | -1.25 | 1 | 115.7 | 114.6 | -82.7 | 16 | 84.2 |
| 2026-01-16T05:08:00 | 35.6501 | 26.2200 | 277.0 | 9.20 | -6.90 | 1 | 113.5 | 113.2 | -81.5 | 15 | 78.9 |
| 2026-01-16T05:08:00 | 35.6501 | 26.2200 | 309.0 | 6.63 | -5.43 | 1 | 108.4 | 107.2 | -82.5 | 13 | 68.4 |
| 2026-01-16T05:08:00 | 35.6501 | 26.2200 | 341.0 | 1.28 | 1.28 | 1 | 109.5 | 108.6 | -80.2 | 14 | 73.7 |
| 2026-01-16T05:08:00 | 35.6501 | 26.2200 | 373.0 | 0.56 | 0.97 | 1 | 111.3 | 109.8 | -78.2 | 10 | 52.6 |
| 2026-01-16T05:08:00 | 35.6501 | 26.2200 | 405.0 | -2.05 | -2.22 | 1 | 109.1 | 107.7 | -77.7 | 13 | 68.4 |
| 2026-01-16T05:08:00 | 35.6501 | 26.2200 | 437.0 | 5.07 | -0.38 | 1 | 107.3 | 106.1 | -76.9 | 16 | 84.2 |
| 2026-01-16T05:08:00 | 35.6501 | 26.2200 | 469.0 | -0.85 | -5.21 | 1 | 106.1 | 105.6 | -75.8 | 15 | 78.9 |
| 2026-01-16T05:08:00 | 35.6501 | 26.2200 | 501.0 | -8.42 | -5.73 | 1 | 104.1 | 103.6 | -75.4 | 16 | 84.2 |
| 2026-01-16T05:08:00 | 35.6501 | 26.2200 | 533.0 | -6.56 | -7.49 | 1 | 100.9 | 99.8 | -75.8 | 14 | 73.7 |
| 2026-01-16T05:08:00 | 35.6501 | 26.2200 | 565.0 | -0.27 | 1.14 | 1 | 95.9 | 95.3 | -76.6 | 17 | 89.5 |
| 2026-01-16T05:08:00 | 35.6501 | 26.2200 | 597.0 | -5.70 | -1.35 | 1 | 90.0 | 88.0 | -78.6 | 14 | 73.7 |
| 2026-01-16T05:08:00 | 35.6501 | 26.2200 | 629.0 | -0.68 | -4.69 | 1 | 85.8 | 85.1 | -78.7 | 17 | 89.5 |
| 2026-01-16T05:08:00 | 35.6501 | 26.2200 | 661.0 | 9.33 | -2.22 | 1 | 79.2 | 77.7 | -80.8 | 15 | 78.9 |
| 2026-01-16T05:08:00 | 35.6501 | 26.2200 | 693.0 | 1.90 | -2.14 | 1 | 76.4 | 76.0 | -80.5 | 15 | 78.9 |
| 2026-01-16T05:08:00 | 35.6501 | 26.2200 | 725.0 | 1.96 | -4.59 | 1 | 72.9 | 72.2 | -81.0 | 15 | 78.9 |
| 2026-01-16T05:08:00 | 35.6501 | 26.2200 | 757.0 | -1.03 | 2.24 | 1 | 66.8 | 65.5 | -82.9 | 13 | 68.4 |
| 2026-01-16T05:08:00 | 35.6501 | 26.2200 | 789.0 | 4.45 | -7.41 | 1 | 63.5 | 62.2 | -83.3 | 16 | 84.2 |
| 2026-01-16T05:08:00 | 35.6501 | 26.2200 | 821.0 | 3.49 | -6.81 | 1 | 57.8 | 57.3 | -84.4 | 17 | 89.5 |
| 2026-01-16T05:08:00 | 35.6501 | 26.2200 | 853.0 | 6.70 | -2.14 | 1 | 58.3 | 56.5 | -83.7 | 16 | 84.2 |
| 2026-01-16T05:08:00 | 35.6501 | 26.2200 | 885.0 | 4.44 | 2.55 | 1 | 51.2 | 51.2 | -85.1 | 17 | 89.5 |
| 2026-01-16T05:08:00 | 35.6501 | 26.2200 | 917.0 | 3.39 | -5.15 | 1 | 49.9 | 48.2 | -85.4 | 14 | 73.7 |
| 2026-01-16T05:08:00 | 35.6501 | 26.2200 | 949.0 | -0.66 | 3.72 | 1 | 41.4 | 39.4 | -88.3 | 15 | 78.9 |
| 2026-01-16T05:08:00 | 35.6501 | 26.2200 | 981.0 | -2.64 | -1.76 | 1 | 35.2 | 34.0 | -89.8 | 16 | 84.2 |
| 2026-01-16T05:08:00 | 35.6501 | 26.2200 | 1013.0 | -4.05 | -3.80 | 1 | 28.4 | 27.0 | -92.0 | 14 | 73.7 |
| 2026-01-16T05:08:00 | 35.6501 | 26.2200 | 1045.0 | 1.75 | -7.88 | 1 | 20.7 | 19.9 | -94.6 | 17 | 89.5 |
| 2026-01-16T05:08:00 | 35.6501 | 26.2200 | 1077.0 | -1.76 | -4.94 | 1 | 17.0 | 16.7 | -95.3 | 18 | 94.7 |
| 2026-01-16T05:08:00 | 35.6501 | 26.2200 | 1109.0 | -1.06 | -8.10 | 1 | 10.4 | 10.4 | -98.1 | 19 | 100.0 |
| 2026-01-16T05:08:00 | 35.6501 | 26.2200 | 1141.0 | -3.61 | -3.54 | 1 | 7.1 | 7.1 | -99.7 | 19 | 100.0 |
| 2026-01-16T05:08:00 | 35.6501 | 26.2200 | 1173.0 | 4.16 | -5.49 | 1 | 5.3 | 5.2 | -100.6 | 13 | 68.4 |
| 2026-01-16T05:08:00 | 35.6501 | 26.2200 | 1205.0 | -1.82 | -9.87 | 1 | 4.9 | 4.7 | -100.3 | 9 | 47.4 |
| 2026-01-16T05:09:00 | 35.6501 | 26.2200 | 53.0 | 9.42 | -6.10 | 1 | 155.9 | 155.6 | -84.4 | 18 | 90.0 |
| 2026-01-16T05:09:00 | 35.6501 | 26.2200 | 85.0 | 4.28 | 0.05 | 1 | 142.2 | 141.4 | -84.8 | 18 | 90.0 |
| 2026-01-16T05:09:00 | 35.6501 | 26.2200 | 117.0 | -2.68 | -5.33 | 1 | 127.1 | 126.7 | -87.3 | 17 | 85.0 |
| 2026-01-16T05:09:00 | 35.6501 | 26.2200 | 149.0 | -0.47 | -3.61 | 1 | 115.7 | 115.5 | -89.1 | 15 | 75.0 |
| 2026-01-16T05:09:00 | 35.6501 | 26.2200 | 181.0 | 1.97 | -13.20 | 1 | 117.5 | 116.7 | -86.1 | 18 | 90.0 |
| 2026-01-16T05:09:00 | 35.6501 | 26.2200 | 213.0 | -1.11 | -5.07 | 1 | 116.7 | 115.8 | -84.2 | 13 | 65.0 |
| 2026-01-16T05:09:00 | 35.6501 | 26.2200 | 245.0 | 4.28 | -10.32 | 1 | 115.1 | 113.4 | -83.3 | 14 | 70.0 |
| 2026-01-16T05:09:00 | 35.6501 | 26.2200 | 277.0 | 10.53 | -0.88 | 1 | 112.4 | 112.0 | -82.1 | 17 | 85.0 |
| 2026-01-16T05:09:00 | 35.6501 | 26.2200 | 309.0 | 4.10 | -1.79 | 1 | 109.6 | 108.9 | -81.7 | 16 | 80.0 |
| 2026-01-16T05:09:00 | 35.6501 | 26.2200 | 341.0 | 4.60 | -3.64 | 1 | 107.5 | 107.1 | -80.9 | 18 | 90.0 |
| 2026-01-16T05:09:00 | 35.6501 | 26.2200 | 373.0 | -1.92 | 1.97 | 1 | 110.9 | 110.2 | -78.0 | 16 | 80.0 |
| 2026-01-16T05:09:00 | 35.6501 | 26.2200 | 405.0 | 0.79 | -0.42 | 1 | 109.1 | 108.1 | -77.5 | 17 | 85.0 |
| 2026-01-16T05:09:00 | 35.6501 | 26.2200 | 437.0 | 2.75 | -1.85 | 1 | 108.4 | 107.2 | -76.5 | 14 | 70.0 |
| 2026-01-16T05:09:00 | 35.6501 | 26.2200 | 469.0 | -0.49 | 1.80 | 1 | 106.6 | 105.1 | -76.1 | 14 | 70.0 |
| 2026-01-16T05:09:00 | 35.6501 | 26.2200 | 501.0 | 3.57 | 1.65 | 1 | 103.6 | 103.1 | -75.7 | 17 | 85.0 |
| 2026-01-16T05:09:00 | 35.6501 | 26.2200 | 533.0 | 1.78 | -10.44 | 1 | 99.7 | 98.4 | -76.5 | 15 | 75.0 |
| 2026-01-16T05:09:00 | 35.6501 | 26.2200 | 565.0 | 3.97 | -1.76 | 1 | 95.8 | 95.1 | -76.6 | 16 | 80.0 |
| 2026-01-16T05:09:00 | 35.6501 | 26.2200 | 597.0 | 8.39 | 5.42 | 1 | 90.8 | 89.5 | -78.0 | 17 | 85.0 |
| 2026-01-16T05:09:00 | 35.6501 | 26.2200 | 629.0 | 2.04 | -0.67 | 1 | 87.4 | 86.1 | -78.3 | 16 | 80.0 |
| 2026-01-16T05:09:00 | 35.6501 | 26.2200 | 661.0 | 2.57 | -6.73 | 1 | 80.1 | 79.8 | -79.9 | 19 | 95.0 |
Only the first 2000 rows were shown. To view the complete dataset, download it as tab-delimited text. You can still view the full matrix in your browser, but be aware that this may crash the browser due to the huge size.
